[[{"header":{"parameterUnit":"m.s-1","parameterCategory":1,"la1":31.0,"la2":29.5877,"lo1":-88.7671,"lo2":-86.6584,"dy":0.0162,"dx":0.0185,"nx":115,"ny":88,"refTime":"2023-08-24T12:00:00:Z","depth":0,"parameterNumber":2,"parameterNumberName":"U-component_of_WINDS"},"data":[0.0,0.0,0.0,0.0,0.0,0.0,0.0,0.0,0.0,0.0,0.0,0.0,0.0,0.0,0.0,0.0,0.0,0.0,0.0,0.0,0.0,0.0,0.0,0.0,0.0,0.0,0.0,0.0,0.0,0.0,0.0,0.0,0.0,0.0,0.0,0.0,0.0,0.0,0.0,0.0,0.0,0.0,0.0,0.0,0.0,0.0,0.0,0.0,0.0,0.0,0.0,0.0,0.0,0.0,0.0,0.0,0.0,0.0,0.0,0.0,0.0,0.0,0.0,0.0,0.0,0.0,0.0,0.0,0.0,0.0,0.0,0.0,0.0,0.0,0.0,0.0,0.0,0.0,0.0,0.0,0.0,0.0,0.0,0.0,0.0,0.0,0.0,0.0,0.0,0.0,0.0,0.0,0.0,0.0,0.0,0.0,0.0,0.0,0.0,0.0,0.0,0.0,0.0,0.0,0.0,0.0,0.0,0.0,0.0,0.0,0.0,0.0,0.0,0.0,0.0,0.0,0.0,0.0,0.0,0.0,0.0,0.0,0.0,0.0,0.0,0.0,0.0,0.0,0.0,0.0,0.0,0.0,0.0,0.0,0.0,0.0,0.0,0.0,0.0,0.0,0.0,0.0,0.0,0.0,0.0,0.0,0.0,0.0,0.0,0.0,0.0,0.0,0.0,0.0,0.0,0.0,0.0,0.0,0.0,0.0,0.0,0.0,0.0,0.0,0.0,0.0,0.0,0.0,0.0,0.0,0.0,0.0,0.0,0.0,0.0,0.0,0.0,0.0,0.0,0.0,0.0,0.0,0.0,0.0,0.0,0.0,0.0,0.0,0.0,0.0,0.0,0.0,0.0,0.0,0.0,0.0,0.0,0.0,0.0,0.0,0.0,0.0,0.0,0.0,0.0,0.0,0.0,0.0,0.0,0.0,0.0,0.0,0.0,0.0,0.0,0.0,0.0,0.0,0.0,0.0,0.0,0.0,0.0,0.0,0.0,0.0,0.0,0.0,0.0,0.0,0.0,0.0,0.0,0.0,0.0,0.0,0.0,0.0,0.0,0.0,0.0,0.0,0.0,0.0,0.0,0.0,0.0,0.0,0.0,0.0,0.0,0.0,0.0,0.0,0.0,0.0,0.0,0.0,0.0,0.0,0.0,0.0,0.0,0.0,0.0,0.0,0.0,0.0,0.0,0.0,0.0,0.0,0.0,0.0,0.0,0.0,0.0,0.0,0.0,0.0,0.0,0.0,0.0,0.0,0.0,0.0,0.0,0.0,0.0,0.0,0.0,0.0,0.0,0.0,0.0,0.0,0.0,0.0,0.0,0.0,0.0,0.0,0.0,0.0,0.0,0.0,0.0,0.0,0.0,0.0,0.0,0.0,0.0,0.0,0.0,0.0,0.0,0.0,0.0,0.0,0.0,0.0,0.0,0.0,0.0,0.0,0.0,0.0,0.0,0.0,0.0,0.0,0.0,0.0,0.0,0.0,0.0,0.0,0.0,0.0,0.0,0.0,0.0,0.0,0.0,0.0,0.0,0.0,0.0,0.0,0.0,0.0,0.0,0.0,0.0,0.0,0.0,0.0,0.0,0.0,0.0,0.0,0.0,0.0,0.0,0.0,0.0,0.0,0.0,0.0,0.0,0.0,0.0,0.0,0.0,0.0,0.0,0.0,0.0,0.0,0.0,0.0,0.0,0.0,0.0,0.0,0.0,0.0,0.0,0.0,0.0,0.0,0.0,0.0,0.0,0.0,0.0,0.0,0.0,0.0,0.0,0.0,0.0,0.0,0.0,0.0,0.0,0.0,0.0,0.0,0.0,0.0,0.0,0.0,0.0,0.0,0.0,0.0,0.0,0.0,0.0,0.0,0.0,0.0,0.0,0.0,0.0,0.0,0.0,0.0,0.0,0.0,0.0,0.0,0.0,0.0,0.0,0.0,0.0,0.0,0.0,0.0,0.0,0.0,0.0,0.0,0.0,0.0,0.0,0.0,0.0,0.0,0.0,0.0,0.0,0.0,0.0,0.0,0.0,0.0,0.0,0.0,0.0,0.0,0.0,0.0,0.0,0.0,0.0,0.0,0.0,0.0,0.0,0.0,0.0,0.0,0.0,0.0,0.0,0.0,0.0,0.0,0.0,0.0,0.0,0.0,0.0,0.0,0.0,0.0,0.0,0.0,0.0,0.0,0.0,0.0,0.0,0.0,0.0,0.0,0.0,0.0,0.0,0.0,0.0,0.0,0.0,0.0,0.0,0.0,0.0,0.0,0.0,0.0,0.0,0.0,0.0,0.0,0.0,0.0,0.0,0.0,0.0,0.0,0.0,0.0,0.0,0.0,0.0,0.0,0.0,0.0,0.0,0.0,0.0,0.0,0.0,0.0,0.0,0.0,0.0,0.0,0.0,0.0,0.0,0.0,0.0,0.0,0.0,0.0,0.0,0.0,0.0,0.0,0.0,0.0,0.0,0.0,0.0,0.0,0.0,0.0,0.0,0.0,0.0,0.0,0.0,0.0,0.0,0.0,0.0,0.0,0.0,0.0,0.0,0.0,0.0,0.0,0.0,0.0,0.0,0.0,0.0,0.0,0.0,0.0,0.0,0.0,0.0,0.0,0.0,0.0,0.0,0.0,0.0,0.0,0.0,0.0,0.0,0.0,0.0,0.0,0.0,0.0,0.0,0.0,0.0,0.0,0.0,0.0,0.0,0.0,0.0,0.0,0.0,0.0,0.0,0.0,0.0,0.0,0.0,0.0,0.0,0.0,0.0,0.0,0.0,0.0,0.0,0.0,0.0,0.0,0.0,0.0,0.0,0.0,0.0,0.0,0.0,0.0,0.0,0.0,0.0,0.0,0.0,0.0,0.0,0.0,0.0,0.0,0.0,0.0,0.0,0.0,0.0,0.0,0.0,0.0,0.0,0.0,0.0,0.0,0.0,0.0,0.0,0.0,0.0,0.0,0.0,0.0,0.0,0.0,0.0,0.0,0.0,0.0,0.0,0.0,0.0,0.0,0.0,0.0,0.0,0.0,0.0,0.0,0.0,0.0,0.0,0.0,0.0,0.0,0.0,0.0,0.0,0.0,0.0,0.0,0.0,0.0,0.0,0.0,0.0,0.0,0.0,0.0,0.0,0.0,0.0,0.0,0.0,0.0,0.0,0.0,0.0,0.0,0.0,0.0,0.0,0.0,0.0,0.0,0.0,0.0,0.0,0.0,0.0,0.0,0.0,0.0,0.0,0.0,0.0,0.0,0.0,0.0,0.0,0.0,0.0,0.0,0.0,0.0,0.0,0.0,0.0,0.0,0.0,0.0,0.0,0.0,0.0,0.0,0.0,0.0,0.0,0.0,0.0,0.0,0.0,0.0,0.0,0.0,0.0,0.0,0.0,0.0,0.0,0.0,0.0,0.0,0.0,0.0,0.0,0.0,0.0,0.0,0.0,0.0,0.0,0.0,0.0,0.0,0.0,0.0,0.0,0.0,0.0,0.0,0.0,0.0,0.0,0.0,0.0,0.0,0.0,0.0,0.0,0.0,0.0,0.0,0.0,0.0,0.0,0.0,0.0,0.0,0.0,0.0,0.0,0.0,0.0,0.0,0.0,0.0,0.0,0.0,0.0,0.0,0.0,0.0,0.0,0.0,0.0,0.0,0.0,0.0,0.0,0.0,0.0,0.0,0.0,0.0,0.0,0.0,0.0,0.0,0.0,0.0,0.0,0.0,0.0,0.0,0.0,0.0,0.0,0.0,0.0,0.0,0.0,0.0,0.0,0.0,0.0,0.0,0.0,0.0,0.0,0.0,0.0,0.0,0.0,0.0,0.0,0.0,0.0,0.0,0.0,0.0,0.0,0.0,0.0,0.0,0.0,0.0,0.0,0.0,0.0,0.0,0.0,0.0,0.0,0.0,0.0,0.0,0.0,0.0,0.0,0.0,0.0,0.0,0.0,0.0,0.0,0.0,0.0,0.0,0.0,0.0,0.0,0.0,0.0,0.0,0.0,0.0,0.0,0.0,0.0,0.0,0.0,0.0,0.0,0.0,0.0,0.0,0.0,0.0,0.0,0.0,0.0,0.0,0.0,0.0,0.0,0.0,0.0,0.0,0.0,0.0,0.0,0.0,0.0,0.0,0.0,0.0,0.0,0.0,0.0,0.0,0.0,0.0,0.0,0.0,0.0,0.0,0.0,0.0,0.0,0.0,0.0,0.0,0.0,0.0,0.0,0.0,0.0,0.0,0.0,0.0,0.0,0.0,0.0,0.0,0.0,0.0,0.0,0.0,-0.2214,0.0,0.0,0.0,0.0,0.0,0.0,0.0,0.0,0.0,0.0,0.0,0.0,0.0,0.0,0.0,0.0,0.0,0.0,0.0,0.0,0.0,0.0,0.0,0.0,0.0,0.0,0.0,0.0,0.0,0.0,0.0,0.0,0.0,0.0,0.0,0.0,0.0,0.0,0.0,0.0,0.0,0.0,0.0,0.0,0.0,0.0,0.0,0.0,0.0,0.0,0.0,0.0,0.0,0.0,0.0,0.0,0.0,0.0,0.0,0.0,0.0,0.0,0.0,0.0,0.0,0.0,0.0,0.0,0.0,0.0,0.0,0.0,0.0,0.0,0.0,0.0,0.0,0.0,0.0,0.0,0.0,0.0,0.0,0.0,0.0,0.0,0.0,0.0,0.0,0.0,0.0,0.0,0.0,0.0,0.0,0.0,0.0,0.0,0.0,0.0,0.0,0.0,0.0,0.0,0.0,0.0,0.0,0.0,0.0,0.0,-0.1842,-0.1809,-0.1809,-0.1776,-0.1776,0.0,0.0,0.0,0.0,0.0,0.0,0.0,0.0,0.0,0.0,0.0,0.0,0.0,0.0,0.0,0.0,0.0,0.0,0.0,0.0,0.0,0.0,0.0,0.0,0.0,0.0,0.0,0.0,0.0,0.0,0.0,0.0,0.0,0.0,0.0,0.0,0.0,0.0,0.0,0.0,0.0,0.0,0.0,0.0,0.0,0.0,0.0,0.0,0.0,0.0,0.0,0.0,0.0,0.0,0.0,0.0,0.0,0.0,0.0,0.0,0.0,0.0,0.0,0.0,0.0,0.0,0.0,0.0,0.0,0.0,0.0,0.0,0.0,0.0,0.0,0.0,0.0,0.0,0.0,0.0,0.0,0.0,0.0,0.0,0.0,0.0,0.0,0.0,0.0,0.0,0.0,0.0,0.0,0.0,0.0,0.0,0.0,0.0,0.0,0.0,0.0,0.0,0.0,0.0,0.0,0.0,0.0,0.0,0.0,0.0,0.0,0.0,-0.1475,-0.1442,-0.1408,0.0,0.0,0.0,0.0,0.0,0.0,0.0,0.0,0.0,0.0,0.0,0.0,0.0,0.0,0.0,0.0,0.0,0.0,0.0,0.0,0.0,0.0,0.0,0.0,0.0,0.0,0.0,0.0,0.0,0.0,0.0,0.0,0.0,0.0,0.0,0.0,0.0,0.0,0.0,0.0,0.0,0.0,0.0,0.0,0.0,0.0,0.0,0.0,0.0,0.0,0.0,0.0,0.0,0.0,0.0,0.0,0.0,0.0,0.0,0.0,0.0,0.0,0.0,0.0,0.0,0.0,0.0,0.0,0.0,0.0,0.0,0.0,0.0,0.0,0.0,0.0,0.0,0.0,0.0,0.0,0.0,0.0,0.0,0.0,0.0,0.0,0.0,0.0,0.0,0.0,0.0,0.0,0.0,0.0,0.0,0.0,0.0,0.0,0.0,0.0,0.0,0.0,0.0,0.0,0.0,0.0,0.0,0.0,0.0,0.0,-0.1143,-0.1143,-0.1244,0.0,-0.1143,0.0,0.0,0.0,0.0,0.0,0.0,0.0,0.0,0.0,0.0,0.0,0.0,0.0,0.0,0.0,0.0,0.0,0.0,0.0,0.0,0.0,0.0,0.0,0.0,0.0,0.0,0.0,0.0,0.0,0.0,0.0,0.0,0.0,0.0,0.0,0.0,0.0,0.0,0.0,0.0,0.0,0.0,0.0,0.0,0.0,0.0,0.0,0.0,0.0,0.0,0.0,0.0,0.0,0.0,0.0,0.0,0.0,0.0,0.0,0.0,0.0,0.0,0.0,0.0,0.0,0.0,0.0,0.0,0.0,0.0,0.0,0.0,0.0,0.0,0.0,0.0,0.0,0.0,0.0,0.0,0.0,0.0,0.0,0.0,0.0,0.0,0.0,0.0,0.0,0.0,0.0,0.0,0.0,0.0,0.0,0.0,0.0,0.0,0.0,0.0,0.0,0.0,0.0,0.0,0.0,0.0,0.0,0.0,0.0,0.0,-0.0977,-0.0977,-0.0841,-0.0673,0.0,0.0,0.0,0.0,0.0,0.0,0.0,0.0,0.0,0.0,0.0,0.0,0.0,0.0,0.0,0.0,0.0,0.0,0.0,0.0,0.0,0.0,0.0,0.0,0.0,0.0,0.0,0.0,0.0,0.0,0.0,0.0,0.0,0.0,0.0,0.0,0.0,0.0,0.0,0.0,0.0,0.0,0.0,0.0,0.0,0.0,0.0,0.0,0.0,0.0,0.0,0.0,0.0,0.0,0.0,0.0,0.0,0.0,0.0,0.0,0.0,0.0,0.0,0.0,0.0,0.0,0.0,0.0,0.0,0.0,0.0,0.0,0.0,0.0,0.0,0.0,0.0,0.0,0.0,0.0,0.0,0.0,0.0,0.0,0.0,0.0,0.0,0.0,0.0,0.0,0.0,0.0,0.0,0.0,0.0,0.0,0.0,0.0,0.0,0.0,0.0,0.0,0.0,0.0,0.0,0.0,0.0,0.0,0.0,0.0,-0.0792,-0.0723,-0.0652,-0.0406,-0.0134,0.0202,0.0,0.0,0.0,0.0,0.0,0.0,0.0,0.0,0.0,0.0,0.0,0.0,0.0,0.0,0.0,0.0,0.0,0.0,0.0,0.0,0.0,0.0,0.0,0.0,0.0,0.0,0.0,0.0,0.0,0.0,0.0,0.0,0.0,0.0,0.0,0.0,0.0,0.0,0.0,0.0,0.0,0.0,0.0,0.0,0.0,0.0,0.0,0.0,0.0,0.0,0.0,0.0,0.0,0.0,0.0,0.0,0.0,0.0,0.0,0.0,0.0,0.0,0.0,0.0,0.0,0.0,0.0,0.0,0.0,0.0,0.0,0.0,0.0,0.0,0.0,0.0,0.0,0.0,0.0,0.0,0.0,0.0,0.0,0.0,0.0,0.0,0.0,0.0,0.0,0.0,0.0,0.0,0.0,0.0,0.0,0.0,0.0,0.0,0.0,0.0,0.0,0.0,0.0,0.0,0.0,0.0,0.0,0.0,-0.0725,-0.0581,-0.0363,-0.0036,-0.0035,0.0236,0.0,0.0,0.0,0.0,0.0,0.0,0.0,0.0,0.0,0.0,0.0,0.0,0.0,0.0,0.0,0.0,0.0,0.0,0.0,0.0,0.0,0.0,0.0,0.0,0.0,0.0,0.0,0.0,0.0,0.0,0.0,0.0,0.0,0.0,0.0,0.0,0.0,0.0,0.0,0.0,0.0,0.0,0.0,0.0,0.0,0.0,0.0,0.0,0.0,0.0,0.0,0.0,0.0,0.0,0.0,0.0,0.0,0.0,0.0,0.0,0.0,0.0,0.0,0.0,0.0,0.0,0.0,0.0,0.0,0.0,0.0,0.0,0.0,0.0,0.0,0.0,0.0,0.0,0.0,0.0,0.0,0.0,0.0,0.0,0.0,0.0,0.0,0.0,0.0,0.0,0.0,0.0,0.0,0.0,0.0,0.0,0.0,0.0,0.0,0.0,0.0,0.0,0.0,0.0,0.0,0.0,0.0,0.0,0.0,-0.0611,-0.0306,0.0077,0.042,0.0526,0.067,0.0,0.0,0.0,0.0,0.0,0.0,0.0,0.0,0.0,0.0,0.0,0.0,0.0,0.0,0.0,0.0,0.0,0.0,0.0,0.0,0.0,0.0,0.0,0.0,0.0,0.0,0.0,0.0,0.0,0.0,0.0,0.0,0.0,0.0,0.0,0.0,0.0,0.0,0.0,0.0,0.0,0.0,0.0,0.0,0.0,0.0,0.0,0.0,0.0,0.0,0.0,0.0,0.0,0.0,0.0,0.0,0.0,0.0,0.0,0.0,0.0,0.0,0.0,0.0,0.0,0.0,0.0,0.0,0.0,0.0,0.0,0.0,0.0,0.0,0.0,0.0,0.0,0.0,0.0,0.0,0.0,0.0,0.0,0.0,0.0,0.0,0.0,0.0,0.0,0.0,0.0,0.0,0.0,0.0,0.0,0.0,0.0,0.0,0.0,0.0,0.0,0.0,0.0,0.0,0.0,0.0,0.0,0.0,0.0,-0.0362,0.0,0.0442,0.0763,0.0911,0.0983,0.0,0.0,0.0,0.0,0.0,0.0,0.0,0.0,0.0,0.0,0.0,0.0,0.0,0.0,0.0,0.0,0.0,0.0,0.0,0.0,0.0,0.0,0.0,0.0,0.0,0.0,0.0,0.0,0.0,0.0,0.0,0.0,0.0,0.0,0.0,0.0,0.0,0.0,0.0,0.0,0.0,0.0,0.0,0.0,0.0,0.0,0.0,0.0,0.0,0.0,0.0,0.0,0.0,0.0,0.0,0.0,0.0,0.0,0.0,0.0,0.0,0.0,0.0,0.0,0.0,0.0,0.0,0.0,0.0,0.0,0.0,0.0,0.0,0.0,0.0,0.0,0.0,0.0,0.0,0.0,0.0,0.0,0.0,0.0,0.0,0.0,0.0,0.0,0.0,0.0,0.0,0.0,0.0,0.0,0.0,0.0,0.0,0.0,0.0,0.0,0.0,0.0,0.0,0.0,0.0,0.0,0.0,0.0,-0.0483,0.0084,0.0506,0.0758,0.0927,0.1052,0.1145,0.0,0.0,0.0,0.0,0.0,0.0,0.0,0.0,0.0,0.0,0.0,0.0,0.0,0.0,0.0,0.0,0.0,0.0,0.0,0.0,0.0,0.0,0.0,0.0,0.0,0.0,0.0,0.0,0.0,0.0,0.0,0.0,0.0,0.0,0.0,0.0,0.0,0.0,0.0,0.0,0.0,0.0,0.0,0.0,0.0,0.0,0.0,0.0,0.0,0.0,0.0,0.0,0.0,0.0,0.0,0.0,0.0,0.0,0.0,0.0,0.0,0.0,0.0,0.0,0.0,0.0,0.0,0.0,0.0,0.0,0.0,0.0,0.0,0.0,0.0,0.0,0.0,0.0,0.0,0.0,0.0,0.0,0.0,0.0,0.0,0.0,0.0,0.0,0.0,0.0,0.0,0.0,0.0,0.0,0.0,0.0,0.0,0.0,0.0,0.0,0.0,0.0,0.0,0.0,0.0,0.0,0.0,0.0,0.0,0.0529,0.075,0.0969,0.1099,0.1258,0.1422,0.0,0.0,0.0,0.0,0.0,0.0,0.0,0.0,0.0,0.0,0.0,0.0,0.0,0.0,0.0,0.0,0.0,0.0,0.0,0.0,0.0,0.0,0.0,0.0,0.0,0.0,0.0,0.0,0.0,0.0,0.0,0.0,0.0,0.0,0.0,0.0,0.0,0.0,0.0,0.0,0.0,0.0,0.0,0.0,0.0,0.0,0.0,0.0,0.0,0.0,0.0,0.0,0.0,0.0,0.0,0.0,0.0,0.0,0.0,0.0,0.0,0.0,0.0,0.0,0.0,0.0,0.0,0.0,0.0,0.0,0.0,0.0,0.0,0.0,0.0,0.0,0.0,0.0,0.0,0.0,0.0,0.0,0.0,0.0,0.0,0.0,0.0,0.0,0.0,0.0,0.0,0.0,0.0,0.0,0.0,0.0,0.0,0.0,0.0,0.0,0.0,0.0,0.0,0.0,0.0,0.0,0.0,0.0,0.0,0.081,0.0945,0.1078,0.1254,0.1435,0.1701,0.1969,0.0,0.0,0.0,0.0,0.0,0.0,0.0,0.0,0.0,0.0,0.0,0.0,0.0,0.0,0.0,0.0,0.0,0.0,0.0,0.0,0.0,0.0,0.0,0.0,0.0,0.0,0.0,0.0,0.0,0.0,0.0,0.0,0.0,0.0,0.0,0.0,0.0,0.0,0.0,0.0,0.0,0.0,0.0,0.0,0.0,0.0,0.0,0.0,0.0,0.0,0.0,0.0,0.0,0.0,0.0,0.0,0.0,0.0,0.0,0.0,0.0,0.0,0.0,0.0,0.0,0.0,0.0,0.0,0.0,0.0,0.0,0.0,0.0,0.0,0.0,0.0,0.0,0.0,0.0,0.0,0.0,0.0,0.0,0.0,0.0,0.0,0.0,0.0,0.0,0.0,0.0,0.0,0.0,0.0,0.0,0.0,0.0,0.0,0.0,0.0,0.0,0.0,0.0,0.0,0.0,0.0,0.0,0.0,0.1034,0.1034,0.1168,0.1435,0.166,0.2016,0.0,0.0,0.0,0.0,0.0,0.0,0.0,0.0,0.0,0.0,0.0,0.0,0.0,0.0,0.0,0.0,0.0,0.0,0.0,0.0,0.0,0.0,0.0,0.0,0.0,0.0,0.0,0.0,0.0,0.0,0.0,0.0,0.0,0.0,0.0,0.0,0.0,0.0,0.0,0.0,0.0,0.0,0.0,0.0,0.0,0.0,0.0,0.0,0.0,0.0,0.0,0.0,0.0,0.0,0.0,0.0,0.0,0.0,0.0,0.0,0.0,0.0,0.0,0.0,0.0,0.0,0.0,0.0,0.0,0.0,0.0,0.0,0.0,0.0,0.0,0.0,0.0,0.0,0.0,0.0,0.0,0.0,0.0,0.0,0.0,0.0,0.0,0.0,0.0,0.0,0.0,0.0,0.0,0.0,0.0,0.0,0.0,0.0,0.0,0.0,0.0,0.0,0.0,0.0,0.0,0.0,0.0,0.0,0.0,0.1211,0.1256,0.1435,0.1705,0.1975,0.2288,0.0,0.0,0.0,0.0,0.0,0.0,0.0,0.0,0.0,0.0,0.0,0.0,0.0,0.0,0.0,0.0,0.0,0.0,0.0,0.0,0.0,0.0,0.0,0.0,0.0,0.0,0.0,0.0,0.0,0.0,0.0,0.0,0.0,0.0,0.0,0.0,0.0,0.0,0.0,0.0,0.0,0.0,0.0,0.0,0.0,0.0,0.0,0.0,0.0,0.0,0.0,0.0,0.0,0.0,0.0,0.0,0.0,0.0,0.0,0.0,0.0,0.0,0.0,0.0,0.0,0.0,0.0,0.0,0.0,0.0,0.0,0.0,0.0,0.0,0.0,0.0,0.0,0.0,0.0,0.0,0.0,0.0,0.0,0.0,0.0,0.0,0.0,0.0,0.0,0.0,0.0,0.0,0.0,0.0,0.0,0.0,0.0,0.0,0.0,0.0,0.0,0.0,0.0,0.0,0.0,0.0,0.0,0.0,0.121,0.1344,0.1479,0.1701,0.2014,0.2194,0.2509,0.0,0.0,0.0,0.0,0.0,0.0,0.0,0.0,0.0,0.0,0.0,0.0,0.0,0.0,0.0,0.0,0.0,0.0,0.0,0.0,0.0,0.0,0.0,0.0,0.0,0.0,0.0,0.0,0.0,0.0,0.0,0.0,0.0,0.0,0.0,0.0,0.0,0.0,0.0,0.0,0.0,0.0,0.0,0.0,0.0,0.0,0.0,0.0,0.0,0.0,0.0,0.0,0.0,0.0,0.0,0.0,0.0,0.0,0.0,0.0,0.0,0.0,0.0,0.0,0.0,0.0,0.0,0.0,0.0,0.0,0.0,0.0,0.0,0.0,0.0,0.0,0.0,0.0,0.0,0.0,0.0,0.0,0.0,0.0,0.0,0.0,0.0,0.0,0.0,0.0,0.0,0.0,0.0,0.0,0.0,0.0,0.0,0.0,0.0,0.0,0.0,0.0,0.0,0.0,0.0,0.0,0.0,0.0,0.1346,0.1443,0.1669,0.1988,0.2307,0.2426,0.2682,0.0,0.0,0.0,0.0,0.0,0.0,0.0,0.0,0.0,0.0,0.0,0.0,0.0,0.0,0.0,0.0,0.0,0.0,0.0,0.0,0.0,0.0,0.0,0.0,0.0,0.0,0.0,0.0,0.0,0.0,0.0,0.0,0.0,0.0,0.0,0.0,0.0,0.0,0.0,0.0,0.0,0.0,0.0,0.0,0.0,0.0,0.0,0.0,0.0,0.0,0.0,0.0,0.0,0.0,0.0,0.0,0.0,0.0,0.0,0.0,0.0,0.0,0.0,0.0,0.0,0.0,0.0,0.0,0.0,0.0,0.0,0.0,0.0,0.0,0.0,0.0,0.0,0.0,0.0,0.0,0.0,0.0,0.0,0.0,0.0,0.0,0.0,0.0,0.0,0.0,0.0,0.0,0.0,0.0,0.0,0.0,0.0,0.0,0.0,0.0,0.0,0.0,0.0,0.0,0.0,0.0,0.0,0.0,0.1458,0.1645,0.1789,0.21,0.2505,0.2592,0.2865,0.0,0.0,0.0,0.0,0.0,0.0,0.0,0.0,0.0,0.0,0.0,0.0,0.0,0.0,0.0,0.0,0.0,0.0,0.0,0.0,0.0,0.0,0.0,0.0,0.0,0.0,0.0,0.0,0.0,0.0,0.0,0.0,0.0,0.0,0.0,0.0,0.0,0.0,0.0,0.0,0.0,0.0,0.0,0.0,0.0,0.0,0.0,0.0,1.0283,0.0,0.0,0.0,0.0,0.0,0.0,0.0,0.0,0.0,0.0,0.0,0.0,0.0,0.0,0.0,0.0,0.0,0.0,0.0,0.0,0.0,0.0,0.0,0.0,0.0,0.0,0.0,0.0,0.0,0.0,0.0,0.0,0.0,0.0,0.0,0.0,0.0,0.0,0.0,0.0,0.0,0.0,0.0,0.0,0.0,0.0,0.0,0.0,0.0,0.0,0.0,0.0,0.0,0.0,0.0,0.0,0.0,0.0,0.0,0.1646,0.1811,0.1958,0.2223,0.2663,0.2858,0.3097,0.0,0.0,0.0,0.0,0.0,0.0,0.0,0.0,0.0,0.0,0.0,0.0,0.0,0.0,0.0,0.0,0.0,0.0,0.0,0.0,0.0,0.0,0.0,0.0,0.0,0.0,0.0,0.0,0.0,0.0,0.0,0.0,0.0,0.0,0.0,0.0,0.0,0.0,0.0,0.0,0.0,0.0,0.0,0.0,0.0,0.0,0.0,0.0,0.0,0.0,0.0,0.0,0.0,0.0,0.0,0.0,0.0,0.0,0.0,0.0,0.0,0.0,0.0,0.0,0.0,0.0,0.0,0.0,0.0,0.0,0.0,0.0,0.0,0.0,0.0,0.0,0.0,0.0,0.0,0.0,0.0,0.0,0.0,0.0,0.0,0.0,0.0,0.0,0.0,0.0,0.0,0.0,0.0,0.0,0.0,0.0,0.0,0.0,0.0,0.0,0.0,0.0,0.0,0.0,0.0,0.0,0.0,0.1667,0.1803,0.2032,0.2134,0.2393,0.2817,0.3105,0.3348,0.3637,0.0,0.0,0.0,0.0,0.0,0.0,0.0,0.0,0.0,0.0,0.0,0.0,0.0,0.0,0.0,0.0,0.0,0.0,0.0,0.0,0.0,0.0,0.0,0.0,0.0,0.0,0.0,0.0,0.0,0.0,0.0,0.0,0.0,0.0,0.0,0.0,0.0,0.0,0.9932,1.0312,0.0,0.0,0.0,0.0,0.0,0.0,0.0,0.0,1.0166,0.0,0.0,0.0,0.0,0.0,0.0,0.0,0.0,0.0,0.0,0.0,0.0,0.0,0.0,0.0,0.0,0.0,0.0,0.0,0.0,0.0,0.0,0.0,0.0,0.0,0.0,0.0,0.0,0.0,0.0,0.0,0.0,0.0,0.0,0.0,0.0,0.0,0.0,0.0,0.0,0.0,0.0,0.0,0.0,0.0,0.0,0.0,0.0,0.0,0.0,0.0,0.0,0.0,0.0,0.0,0.0,0.1715,0.1572,0.1724,0.2156,0.2212,0.2458,0.3018,0.3263,0.3519,0.3904,0.0,0.0,0.0,0.0,0.0,0.0,0.0,0.0,0.0,0.0,0.0,0.0,0.0,0.0,0.0,0.0,0.0,0.0,0.0,0.0,0.0,0.0,0.0,0.0,0.0,0.0,0.0,0.0,0.0,0.0,0.0,0.0,0.0,0.0,0.0,0.0,0.0,0.0,0.0,1.0312,1.0631,0.0,0.0,0.0,0.0,0.0,0.0,0.0,0.0,0.998,0.0,0.0,0.0,0.0,0.0,0.0,0.0,0.0,0.0,0.0,0.0,0.0,0.0,0.0,0.0,0.0,0.0,0.0,0.0,0.0,0.0,0.0,0.0,0.0,0.0,0.0,0.0,0.0,0.0,0.0,0.0,0.0,0.0,0.0,0.0,0.0,0.0,0.0,0.0,0.0,0.0,0.0,0.0,0.0,0.0,0.0,0.0,0.0,0.0,0.0,0.0,0.0,0.0,0.0,0.0,0.1865,0.1754,0.187,0.2181,0.2296,0.2587,0.3072,0.3304,0.3573,0.0,0.0,0.0,0.0,0.0,0.0,0.0,0.0,0.0,0.0,0.0,0.0,0.0,0.0,0.0,0.0,0.0,0.0,0.0,0.0,0.0,0.0,0.0,0.0,0.0,0.0,0.0,0.0,0.0,0.0,0.0,0.0,0.0,0.0,0.0,0.0,0.0,0.0,0.0,0.0,1.0302,1.0631,1.0679,0.0,0.0,0.0,0.0,0.0,0.0,1.0205,1.0029,0.0,0.0,0.0,0.0,0.0,0.0,0.0,0.0,0.0,0.0,0.0,0.0,0.0,0.0,0.0,0.0,0.0,0.0,0.0,0.0,0.0,0.0,0.0,0.0,0.0,0.0,0.0,0.0,0.0,0.0,0.0,0.0,0.0,0.0,0.0,0.0,0.0,0.0,0.0,0.0,0.0,0.0,0.0,0.0,0.0,0.0,0.0,0.0,0.0,0.0,0.0,0.0,0.0,0.0,0.0,0.199,0.1943,0.1951,0.2179,0.2352,0.2631,0.3021,0.3246,0.3589,0.0,0.0,0.0,0.0,0.0,0.0,0.0,0.0,0.0,0.0,0.0,0.0,0.0,0.0,0.0,0.0,0.0,0.0,0.0,0.0,0.0,0.0,0.0,0.0,0.0,0.0,0.0,0.0,0.0,0.0,0.0,0.0,0.0,0.0,0.0,0.0,0.0,0.0,0.0,0.0,0.0,1.0582,1.0641,1.0756,0.0,0.0,0.0,0.0,1.0418,1.0176,0.0,0.0,0.0,0.0,0.0,0.0,0.0,0.0,0.0,0.0,0.0,0.0,0.0,0.0,0.0,0.0,0.0,0.0,0.0,0.0,0.0,0.0,0.0,0.0,0.0,0.0,0.0,0.0,0.0,0.0,0.0,0.0,0.0,0.0,0.0,0.0,0.0,0.0,0.0,0.0,0.0,0.0,0.0,0.0,0.0,0.0,0.0,0.0,0.0,0.0,0.0,0.0,0.0,0.0,0.0,0.0,0.2058,0.1859,0.1843,0.2012,0.2184,0.241,0.2747,0.3193,0.3516,0.0,0.0,0.0,0.0,0.0,0.0,0.0,0.0,0.0,0.0,0.0,0.0,0.0,0.0,0.0,0.0,0.0,0.0,0.0,0.0,0.0,0.0,0.0,0.0,0.0,0.0,0.0,0.0,0.0,0.0,0.0,0.0,0.0,0.0,0.0,0.0,0.0,0.0,0.0,0.0,0.0,1.0428,1.0515,1.0592,1.0631,0.0,0.0,1.039,1.0322,1.0127,0.0,0.0,0.0,0.0,0.0,0.0,0.0,0.0,0.0,0.0,0.0,0.0,0.0,0.0,0.0,0.0,0.0,0.0,0.0,0.0,0.0,0.0,0.0,0.0,0.0,0.0,0.0,0.0,0.0,0.0,0.0,0.0,0.0,0.0,0.0,0.0,0.0,0.0,0.0,0.0,0.0,0.0,0.0,0.0,0.0,0.0,0.0,0.0,0.0,0.0,0.0,0.0,0.0,0.0,0.0,0.2095,0.2071,0.1901,0.1825,0.2014,0.2071,0.2296,0.2691,0.2914,0.3193,0.0,0.0,0.0,0.0,0.0,0.0,0.0,0.0,0.0,0.0,0.0,0.0,0.0,0.0,0.0,0.0,0.0,0.0,0.0,0.0,0.0,0.0,0.0,0.0,0.0,0.0,0.0,0.0,0.0,0.0,0.0,0.0,0.0,0.0,0.0,0.0,0.0,0.0,0.0,0.0,0.0,0.0,1.0925,1.0975,0.0,0.0,0.0,1.1016,1.0942,0.0,0.0,0.0,0.0,0.0,0.0,0.0,0.0,0.0,0.0,0.0,0.0,0.0,0.0,0.0,0.0,0.0,0.0,0.0,0.0,0.0,0.0,0.0,0.0,0.0,0.0,0.0,0.0,0.0,0.0,0.0,0.0,0.0,0.0,0.0,0.0,0.0,0.0,0.0,0.0,0.0,0.0,0.0,0.0,0.0,0.0,0.0,0.0,0.0,0.0,0.0,0.0,0.0,0.0,0.0,0.0,0.0,0.2101,0.1883,0.1794,0.1961,0.1961,0.2128,0.2521,0.2635,0.0,0.0,0.0,0.0,0.0,0.0,0.0,0.0,0.0,0.0,0.0,0.0,0.0,0.0,0.0,0.0,0.0,0.0,0.0,0.0,0.0,0.0,0.0,0.0,0.0,0.0,0.0,0.6666,0.0,0.0,0.0,0.0,0.0,0.0,0.0,0.0,0.0,0.0,0.0,0.0,0.0,0.0,1.0742,1.1261,1.1261,1.1276,0.0,0.0,1.1416,1.1274,1.1062,1.0875,0.0,0.0,0.0,0.0,0.0,0.0,0.0,0.0,0.0,0.0,0.0,0.0,0.0,0.0,0.0,0.0,0.0,0.0,0.0,0.0,0.0,0.0,0.0,0.0,0.0,0.0,0.0,0.0,0.0,0.0,0.0,0.0,0.0,0.0,0.0,0.0,0.0,0.0,0.0,0.0,0.0,0.0,0.0,0.0,0.0,0.0,0.0,0.0,0.0,0.0,0.0,0.0,0.0,0.0,0.2119,0.2009,0.1737,0.1685,0.1797,0.1797,0.1908,0.2071,0.2465,0.28,0.0,0.0,0.0,0.0,0.0,0.0,0.0,0.0,0.0,0.0,0.0,0.0,0.0,0.0,0.0,0.0,0.0,0.0,0.0,0.0,0.0,0.0,0.0,0.0,0.0,0.0,0.0,0.0,0.0,0.0,0.0,0.0,0.0,0.0,0.0,0.0,0.0,0.0,0.0,0.0,0.0,1.1154,1.1192,1.1192,1.1211,0.0,1.124,1.1151,1.0884,1.0839,1.0732,1.0543,0.0,0.0,0.0,0.0,0.0,0.0,0.0,0.0,0.0,0.0,0.0,0.0,0.0,0.0,0.0,0.0,0.0,0.0,0.0,0.0,0.0,0.0,0.0,0.0,0.0,0.0,0.0,0.0,0.0,0.0,0.0,0.0,0.0,0.0,0.0,0.0,0.0,0.0,0.0,0.0,0.0,0.0,0.0,0.0,0.0,0.0,0.0,0.0,0.0,0.0,0.0,0.0,0.0,0.2017,0.1908,0.1685,0.1572,0.1515,0.1515,0.1628,0.1852,0.2076,0.2355,0.0,0.0,0.0,0.0,0.0,0.0,0.0,0.0,0.0,0.0,0.0,0.0,0.0,0.0,0.0,0.0,0.0,0.0,0.0,0.0,0.0,0.0,0.0,0.0,0.0,0.0,0.0,0.0,0.6865,0.7154,0.7545,0.0,0.0,0.0,0.0,0.0,0.0,0.0,0.0,0.0,0.0,1.0967,1.126,1.1288,0.0,0.0,1.1665,1.1618,1.1522,1.1331,1.1178,1.1033,1.0839,0.0,0.0,0.0,0.0,0.0,0.0,0.0,0.0,0.0,0.0,0.0,0.0,0.0,0.0,0.0,0.0,0.0,0.0,0.0,0.0,0.0,0.0,0.0,0.0,0.0,0.0,0.0,0.0,0.0,0.0,0.0,0.0,0.0,0.0,0.0,0.0,0.0,0.0,0.0,0.0,0.0,0.0,0.0,0.0,0.0,0.0,0.0,0.0,0.0,0.0,0.0,0.0,0.1905,0.1741,0.1572,0.1403,0.129,0.1234,0.1403,0.1628,0.1741,0.202,0.0,0.0,0.0,0.0,0.0,0.0,0.0,0.0,0.0,0.0,0.0,0.0,0.0,0.0,0.0,0.0,0.0,0.0,0.0,0.0,0.0,0.0,0.0,0.0,0.0,0.0,0.0,0.0,0.6937,0.7324,0.773,0.0,0.0,0.0,0.0,0.0,0.0,0.0,0.0,0.0,0.0,1.1006,1.1322,1.1414,1.1504,1.1841,1.1769,1.1678,1.1678,1.1477,1.1276,1.1124,0.0,0.0,0.0,0.0,0.0,0.0,0.0,0.0,0.0,0.0,0.0,0.0,0.0,0.0,0.0,0.0,0.0,0.0,0.0,0.0,0.0,0.0,0.0,0.0,0.0,0.0,0.0,-0.1339,0.0,0.0,0.0045,0.0,0.0,0.0,0.0,0.0,0.0,0.0,0.0,0.0,0.0,0.0,0.0,0.0,0.0,0.0,0.0,0.0,0.0,0.0,0.0,0.0,0.0,0.1741,0.1572,0.129,0.1178,0.129,0.1178,0.1178,0.129,0.1628,0.1908,0.224,0.0,0.0,0.0,0.0,0.0,0.0,0.0,0.0,0.0,0.0,0.0,0.0,0.0,0.0,0.0,0.0,0.0,0.0,0.0,0.0,0.0,0.0,0.0,0.0,0.0,0.0,0.6502,0.7113,0.7575,0.0,0.0,0.0,0.0,0.0,0.0,0.0,0.0,0.0,0.0,1.1301,1.1451,1.1301,1.141,1.1451,1.1326,1.1318,1.1267,1.1116,1.1023,1.0871,0.0,0.0,0.0,0.0,0.0,0.0,0.0,0.0,0.0,0.0,0.0,0.0,0.0,0.0,0.0,0.0,0.0,0.0,0.0,0.0,0.0,0.0,0.0,0.0,0.0,0.0,0.0,-0.2301,-0.1796,0.0,0.0,0.0,0.0,0.0,0.0,0.0,0.0,0.0,0.0,0.0,0.2399,0.2505,0.0,0.0,0.0,0.0,0.0,0.0,0.0,0.0,0.0,0.0,0.0,0.0,0.1403,0.129,0.1178,0.1122,0.101,0.0954,0.101,0.101,0.1234,0.1626,0.2184,0.0,0.0,0.0,0.0,0.0,0.0,0.0,0.0,0.0,0.0,0.0,0.0,0.0,0.0,0.0,0.0,0.0,0.0,0.0,0.0,0.0,0.0,0.0,0.0,0.0,0.6643,0.0,0.0,0.0,0.0,0.0,0.0,0.0,0.0,0.0,0.0,0.0,1.0495,1.0812,1.0922,1.0981,1.0922,1.0913,1.0922,0.0,0.0,0.0,0.0,0.0,0.0,0.0,0.0,0.0,0.0,0.0,0.0,0.0,0.0,0.942,0.9465,0.9316,0.9106,0.891,0.0,0.0,0.0,0.0,0.0,0.0,0.0,0.0,0.0,0.0,0.0,0.0,0.0,0.0,-0.2871,0.0,-0.1962,0.0,0.0,0.0,0.0,0.0,0.0,0.0,0.0,0.1459,0.1646,0.1841,0.2005,0.2251,0.0,0.2244,0.2354,0.0,0.0,0.0,0.0,0.0,0.0,0.0,0.0,0.1234,0.1122,0.1122,0.101,0.0729,0.0729,0.0785,0.0897,0.1066,0.1457,0.2127,0.274,0.3297,0.0,0.0,0.0,0.0,0.0,0.0,0.0,0.0,0.0,0.0,0.0,0.0,0.0,0.0,0.0,0.0,0.0,0.0,0.0,0.0,0.0,0.0,0.0,0.679,0.0,0.0,0.0,0.0,0.0,0.0,0.0,0.0,0.0,0.9947,1.0058,1.0213,1.036,1.047,1.0522,1.0462,0.0,0.0,0.0,0.0,0.0,0.0,0.0,1.0219,1.0272,1.008,0.9882,0.9766,0.9638,0.9443,0.9232,0.0,0.0,0.9211,0.9061,0.8903,0.8745,0.858,0.8368,0.8168,0.7949,0.7783,0.0,0.0,0.0,0.0,0.0,0.0,0.0,0.0,-0.382,-0.3465,0.0,-0.2709,0.0,0.0,0.0,0.0,-0.0457,-0.0157,0.0,0.0,0.0993,0.1178,0.129,0.157,0.1853,0.2135,0.2079,0.1967,0.1741,0.1737,0.0,0.0,0.0,0.0,0.0,0.0,0.1178,0.1122,0.0954,0.0729,0.0393,0.0393,0.0561,0.0897,0.1066,0.1457,0.1959,0.2571,0.3072,0.3572,0.4184,0.0,0.0,0.0,0.0,0.0,0.0,0.0,0.0,0.0,0.0,0.0,0.0,0.0,0.0,0.0,0.0,0.0,0.0,0.0,0.0,0.673,0.0,0.0,0.0,0.0,0.0,0.0,0.0,0.0,0.0,0.0,0.9309,0.9577,0.9799,0.9792,0.0,0.0,0.0,0.0,0.9933,0.9836,0.9658,0.9708,1.0013,0.9955,0.9945,1.0236,0.0,0.0,0.9743,0.9694,0.9603,0.9249,0.9017,0.8831,0.9003,0.8884,0.8752,0.8633,0.8368,0.8115,0.7955,0.7783,0.7622,-0.746,0.0,0.0,0.0,0.0,-0.5304,-0.4967,-0.4639,-0.4285,-0.3913,-0.3515,-0.3218,0.0,0.0,0.0,0.0,0.0,0.0,-0.0774,-0.0608,-0.0167,0.0112,0.0224,0.0449,0.0617,0.0785,0.0785,0.0729,0.0673,0.056,0.0841,0.1403,0.0,0.0,0.0,0.0,0.0897,0.0617,0.0393,0.0224,0.0112,0.0112,0.0224,0.0505,0.0841,0.1178,0.1626,0.2128,0.2685,0.3241,0.3741,0.0,0.0,0.0,0.0,0.0,0.0,0.0,0.0,0.0,0.0,0.0,0.0,0.0,0.0,0.0,0.0,0.0,0.0,0.0,0.6775,0.6718,0.6691,0.0,0.0,0.0,0.0,0.0,0.0,0.0,0.0,0.0,0.8533,0.8956,0.9323,0.0,0.0,0.9972,0.9919,0.9943,0.9967,0.9806,0.9694,0.0,0.9754,0.971,0.9694,0.9768,0.9673,0.953,0.9343,0.933,0.9304,0.9212,0.9149,0.9099,0.9073,0.8806,0.8453,0.8321,0.8162,0.7949,0.7783,0.7574,0.7371,-0.8294,-0.7589,-0.6991,-0.6574,-0.6228,-0.5845,-0.5504,-0.5231,-0.487,-0.4492,-0.4137,-0.388,-0.3664,-0.3358,-0.2983,0.0,0.0,0.0,-0.1626,-0.1401,-0.112,-0.0952,-0.0954,-0.0673,-0.0449,-0.0393,-0.0393,-0.0393,-0.0393,-0.0512,-0.0229,0.04,0.0,0.0,0.0801,0.0579,0.0408,0.0175,-0.0058,-0.0233,-0.0408,-0.0292,-0.0058,0.0229,0.0515,0.0853,0.1235,0.1794,0.224,0.274,0.3186,0.3685,0.0,0.0,0.0,0.0,0.0,0.0,0.0,0.0,0.0,0.0,0.0,0.6971,0.6766,0.0,0.0,0.0,0.6737,0.6707,0.6766,0.6707,0.0,0.0,0.0,0.0,0.0,0.0,0.0,0.7515,0.7823,0.8057,0.8172,0.8526,0.888,0.92,0.9549,0.9799,0.9799,0.0,0.9724,0.9673,0.9557,0.9428,0.9538,0.9498,0.9537,0.9579,0.9471,0.9367,0.9213,0.9141,0.9104,0.9017,0.8928,0.8863,0.8863,0.8588,0.8373,0.838,0.8213,0.7985,0.7756,0.76,0.7432,-0.9011,-0.8528,-0.7873,-0.7181,-0.6465,-0.6306,-0.6128,-0.5832,-0.5513,-0.5179,-0.4952,-0.468,-0.4353,-0.4021,-0.3463,0.0,-0.2792,-0.2631,-0.235,-0.1902,-0.1902,-0.2017,-0.2193,-0.1689,-0.1409,-0.1352,-0.1355,-0.1358,-0.1361,-0.1459,-0.1361,-0.0947,-0.0415,-0.0178,-0.0178,-0.0183,-0.0247,-0.0247,-0.0494,-0.0741,-0.0988,-0.0679,-0.0426,-0.0178,0.0177,0.0525,0.085,0.1411,0.1859,0.2135,0.2575,0.3128,0.3741,0.0,0.0,0.0,0.0,0.0,0.0,0.0,0.0,0.0,0.0,0.0,0.0,0.0,0.0,0.0,0.6652,0.0,0.6652,0.6652,0.0,0.0,0.0,0.6712,0.6851,0.6846,0.6965,0.7258,0.0,0.0,0.7988,0.8265,0.851,0.8902,0.931,0.9531,0.959,0.9454,0.9401,0.9427,0.9296,0.9207,0.9322,0.9371,0.937,0.9433,0.9448,0.9346,0.9154,0.9094,0.8998,0.8813,0.8575,0.8462,0.8456,0.8402,0.8337,0.8622,0.8404,0.8086,0.7828,0.7763,0.7575,-0.9538,-0.898,-0.8848,-0.8206,-0.7303,-0.6849,-0.6532,-0.6277,-0.5891,-0.5668,-0.555,-0.5226,-0.4956,-0.4622,-0.4177,-0.3849,-0.3685,-0.3463,-0.3239,-0.3021,-0.274,-0.2627,-0.2575,-0.2357,-0.2153,-0.1982,-0.2028,-0.1991,-0.1931,-0.1946,-0.1831,-0.1526,-0.1561,-0.1624,-0.1652,-0.1416,-0.1235,-0.1235,-0.1359,-0.1359,-0.1297,-0.1049,-0.0862,-0.0855,-0.0427,-0.0,0.0483,0.0885,0.1339,0.1858,0.2213,0.2629,0.3241,0.363,0.0,0.0,0.0,0.0,0.0,0.0,0.0,0.0,0.0,0.6761,0.6761,0.0,0.644,0.0,0.6119,0.6009,0.6069,0.6064,0.0,0.0,0.5996,0.6229,0.645,0.6629,0.6852,0.7026,0.7331,0.7602,0.7661,0.8105,0.8421,0.8546,0.8944,0.9211,0.9217,0.9278,0.9343,0.9331,0.9199,0.9052,0.9099,0.9122,0.9134,0.9134,0.9145,0.9052,0.9064,0.9058,0.8966,0.8914,0.8903,0.884,0.8828,0.8782,0.8587,0.8507,0.8182,0.786,0.7801,0.7623,0.7379,-0.9958,-0.9562,-0.9506,-0.9083,-0.8399,-0.7703,-0.7172,-0.6915,-0.6512,-0.6239,-0.605,-0.5664,-0.5445,-0.5281,-0.4842,-0.4512,-0.4408,-0.4184,-0.3996,-0.3883,-0.3713,-0.3564,-0.344,-0.333,-0.3122,-0.2943,-0.281,-0.2711,-0.2651,-0.2559,-0.245,-0.2326,-0.2525,-0.2673,-0.2766,-0.2184,-0.1863,-0.1863,-0.1928,-0.1799,-0.1606,-0.1477,-0.1341,-0.1196,-0.0882,-0.0563,-0.0123,0.0425,0.0902,0.1379,0.177,0.2208,0.2691,0.3028,0.3455,0.0,0.0,0.0,0.0,0.0,0.0,0.0,0.0,0.0,0.0,0.0,0.6114,0.6014,0.585,0.5736,0.5622,0.5759,0.5694,0.5518,0.5819,0.6081,0.6195,0.6379,0.6592,0.6763,0.7109,0.7355,0.7471,0.7918,0.8186,0.8249,0.8428,0.8743,0.9,0.9116,0.9145,0.9145,0.9081,0.8952,0.8888,0.8835,0.877,0.8765,0.8765,0.8765,0.877,0.877,0.8765,0.8765,0.877,0.8765,0.8689,0.8565,0.8506,0.828,0.7985,0.7762,0.7747,0.7613,0.7427,-1.0434,-1.0047,-0.9926,-0.9794,-0.95,-0.871,-0.8089,-0.7648,-0.7302,-0.6895,-0.6475,-0.6114,-0.5882,-0.5832,-0.5474,-0.5211,-0.5045,-0.4957,-0.4819,-0.4711,-0.4653,-0.4601,-0.4476,-0.4317,-0.4142,-0.3894,-0.3604,-0.3489,-0.343,-0.3325,-0.3236,-0.324,-0.3253,-0.3429,-0.3565,-0.2825,-0.2356,-0.2288,-0.2288,-0.2153,-0.2018,-0.1951,-0.1795,-0.1493,-0.1298,-0.1091,-0.0876,-0.0187,0.0434,0.0743,0.1234,0.1705,0.2135,0.2423,0.2855,0.0,0.3789,0.0,0.0,0.0,0.0,0.0,0.0,0.0,0.0,0.5762,0.5784,0.5814,0.5759,0.5643,0.5353,0.5551,0.5649,0.5351,0.5719,0.6009,0.603,0.6159,0.6289,0.6489,0.6897,0.7191,0.7322,0.7673,0.7922,0.7972,0.7967,0.8221,0.8689,0.8818,0.8823,0.8888,0.8888,0.8759,0.87,0.8511,0.8447,0.8447,0.8447,0.8447,0.8452,0.8452,0.8452,0.8452,0.8447,0.8376,0.8172,0.8172,0.8112,0.7987,0.7837,0.7697,0.7697,0.7692,0.7601,-1.0814,-1.0504,-1.0441,-1.0212,-0.9907,-0.9725,-0.9181,-0.8446,-0.8083,-0.7591,-0.7084,-0.6678,-0.6431,-0.6287,-0.6286,-0.619,-0.5853,-0.6002,-0.5909,-0.5704,-0.5528,-0.5423,-0.5275,-0.5213,-0.4895,-0.4466,-0.4505,-0.4358,-0.4088,-0.4111,-0.3926,-0.373,-0.3818,-0.3828,-0.3828,0.0,0.0,0.0,-0.2621,-0.2621,-0.2554,-0.2421,-0.2216,-0.207,-0.187,0.0,-0.1324,-0.0906,-0.0447,-0.0,0.0437,0.0,0.0,0.0,0.0,0.0,0.0,0.0,0.0,0.0,0.0,0.0,0.5366,0.5548,0.5601,0.5651,0.5682,0.577,0.5604,0.543,0.5426,0.5453,0.5415,0.5415,0.5446,0.5571,0.5693,0.5845,0.6093,0.6363,0.6668,0.6815,0.7015,0.7186,0.7396,0.7591,0.7661,0.7857,0.8117,0.8242,0.8177,0.8177,0.8247,0.8177,0.8182,0.8117,0.8117,0.8117,0.8117,0.8117,0.8252,0.8187,0.8117,0.8187,0.8187,0.8117,0.8052,0.8047,0.7987,0.7797,0.7731,0.7666,0.7666,0.7596,0.7526,-1.1192,-1.0933,-1.0877,-1.0681,0.0,-1.0308,-1.0019,-0.9444,-0.8872,-0.8309,-0.778,-0.7488,-0.7316,-0.7213,-0.716,-0.6973,-0.6744,-0.673,-0.6713,-0.6559,-0.6375,-0.6241,-0.6207,-0.5977,-0.5693,-0.5373,-0.5252,-0.509,-0.4824,-0.4755,-0.4556,-0.4361,-0.4361,-0.4361,-0.4361,-0.4161,-0.3758,-0.3222,-0.3222,-0.3157,-0.2956,-0.2824,-0.2691,-0.2488,-0.2221,0.0,0.0,0.0,0.0,0.0,0.0,0.0,0.0,0.1323,0.0,0.2405,0.2831,0.3261,0.3811,0.4119,0.436,0.4607,0.4914,0.5269,0.5451,0.5522,0.5549,0.5574,0.5461,0.5343,0.5165,0.5225,0.5147,0.5026,0.515,0.5293,0.5485,0.5632,0.586,0.6133,0.6346,0.6482,0.6618,0.6811,0.7003,0.7199,0.7274,0.74,0.7596,0.7852,0.7982,0.7982,0.7982,0.7982,0.7982,0.7982,0.7982,0.7982,0.7982,0.8047,0.8117,0.8052,0.7982,0.7912,0.7912,0.7982,0.7862,0.7862,0.7792,0.7657,0.7596,0.7596,0.7596,0.7526,0.7461,-1.1611,-1.1365,-1.1247,-1.1059,-1.087,-1.0744,-1.0555,-1.0345,-0.9624,0.0,0.0,-0.8286,-0.821,-0.8156,-0.7893,-0.7735,-0.756,-0.7426,-0.7358,-0.7332,-0.7201,-0.7035,-0.7007,-0.6749,-0.6478,-0.6214,-0.5881,-0.5686,-0.5495,-0.5289,-0.509,-0.4897,-0.4897,-0.4827,-0.4764,-0.4564,-0.4231,-0.3959,-0.3823,-0.3625,-0.3293,-0.3291,-0.3159,-0.282,-0.2624,-0.2423,-0.2287,-0.2018,-0.1614,-0.1076,-0.0739,-0.0333,0.0391,0.078,0.122,0.182,0.2253,0.275,0.3317,0.3626,0.3936,0.4187,0.4624,0.5047,0.5387,0.5384,0.5398,0.5428,0.5366,0.5243,0.4937,0.4975,0.4916,0.4662,0.4888,0.5153,0.5292,0.5355,0.555,0.5756,0.5954,0.6148,0.6284,0.6416,0.6613,0.6745,0.6815,0.6881,0.7138,0.7591,0.7852,0.7852,0.7852,0.7917,0.7922,0.7917,0.7922,0.7852,0.7917,0.7922,0.7922,0.7922,0.7782,0.7572,0.7777,0.7792,0.7731,0.7661,0.7661,0.7526,0.7526,0.7526,0.7526,0.7526,0.7466,-1.2198,-1.1747,-1.1622,-1.1435,-1.1247,-1.1059,-1.0933,-1.0654,-0.9952,-0.9492,-0.9242,-0.8842,-0.8628,-0.8534,-0.8563,-0.8471,-0.8287,-0.8318,-0.8233,-0.806,-0.7931,-0.7692,-0.7396,-0.7391,-0.7003,-0.6416,-0.6284,-0.6152,-0.5826,-0.562,-0.5488,-0.5292,-0.5156,-0.4957,-0.4827,-0.4764,-0.4631,-0.4492,-0.4025,-0.3758,-0.3692,-0.3692,-0.3491,-0.3159,-0.3092,-0.2958,-0.2619,-0.2354,-0.2085,-0.2018,-0.1344,-0.0805,-0.0401,0.0267,0.08,0.1196,0.186,0.2458,0.2986,0.3381,0.3843,0.4438,0.4704,0.5049,0.5494,0.5483,0.5417,0.5411,0.5212,0.5032,0.4841,0.4847,0.4791,0.4728,0.4815,0.4831,0.4894,0.4894,0.5093,0.5428,0.5491,0.5624,0.5892,0.602,0.6152,0.6416,0.6548,0.6618,0.6942,0.7269,0.7526,0.7591,0.7591,0.7587,0.7591,0.7591,0.7591,0.7587,0.7591,0.7591,0.7591,0.7591,0.7591,0.7521,0.7591,0.7591,0.7526,0.7526,0.7526,0.7526,0.7526,0.7526,0.7526,0.7526,0.7466,-1.2718,-1.2491,-1.2072,-1.1809,-1.174,-1.1498,-1.1247,-1.1045,-1.067,-1.023,-0.9906,-0.9599,-0.9426,-0.9371,-0.9176,-0.9092,-0.8966,-0.8837,-0.87,-0.8501,-0.8382,-0.8112,-0.7842,-0.7587,-0.7326,-0.7003,-0.6675,-0.6416,-0.6152,-0.6017,-0.5749,-0.5488,-0.5359,-0.5156,-0.4957,-0.4957,-0.4891,-0.4691,-0.4425,-0.4159,-0.3894,-0.3894,-0.3758,-0.3558,-0.356,-0.336,-0.2956,-0.2824,-0.2557,-0.2221,-0.1884,-0.1412,-0.0873,-0.0336,0.0202,0.0739,0.1277,0.1883,0.2555,0.3023,0.3556,0.4092,0.4364,0.4674,0.4997,0.5058,0.5091,0.509,0.496,0.4894,0.4691,0.4691,0.4628,0.4564,0.4498,0.4564,0.4694,0.4691,0.4761,0.5027,0.516,0.5355,0.5627,0.569,0.5885,0.6214,0.6416,0.6613,0.6741,0.7138,0.733,0.7335,0.7396,0.7526,0.7526,0.7526,0.7526,0.7526,0.7526,0.7526,0.7526,0.7526,0.7526,0.7526,0.7526,0.7526,0.7526,0.7526,0.7526,0.7526,0.7526,0.7526,0.7526,0.7526,0.7461,-1.3324,-1.3164,-1.2649,-1.2321,-1.212,-1.1809,-1.1622,-1.1498,-1.1303,-1.0996,-1.0618,-1.0238,-1.011,-1.011,-0.9786,-0.9582,-0.9524,-0.9268,-0.9017,-0.8899,-0.8641,-0.8447,-0.8236,-0.7782,-0.7591,-0.7461,-0.7003,-0.6609,-0.6478,-0.628,-0.6013,-0.5617,-0.5491,-0.5359,-0.5156,-0.5156,-0.509,-0.4894,-0.4761,-0.4561,-0.4161,-0.4097,-0.3961,-0.3828,-0.3828,-0.3694,-0.336,-0.3228,-0.2958,-0.249,-0.2288,-0.1951,-0.1412,-0.0873,-0.0336,0.0202,0.0739,0.1344,0.2153,0.2757,0.3293,0.3625,0.3961,0.4231,0.4428,0.4495,0.4628,0.4761,0.4697,0.4631,0.4492,0.4425,0.4361,0.4231,0.4167,0.4231,0.4428,0.4495,0.4561,0.4694,0.4894,0.509,0.5289,0.5418,0.5617,0.6083,0.6412,0.6609,0.6675,0.6872,0.7068,0.7204,0.733,0.7526,0.7526,0.7526,0.7526,0.7526,0.7526,0.7526,0.7526,0.7526,0.7526,0.7526,0.7526,0.7526,0.7526,0.7526,0.7526,0.7526,0.7526,0.7526,0.7526,0.7526,0.7456,-1.4123,-1.3548,-1.3355,-1.29,-1.2328,-1.2127,-1.2065,-1.1996,-1.1685,-1.1567,-1.1373,-1.0814,-1.0561,-1.0498,-1.011,-0.9862,-0.9798,-0.9524,-0.9396,-0.921,-0.8894,-0.8641,-0.8447,-0.8117,-0.7787,-0.7526,-0.7073,-0.6811,-0.6675,-0.6346,-0.6013,-0.5617,-0.5491,-0.5428,-0.5359,-0.5359,-0.5292,-0.5087,-0.5087,-0.4888,-0.4561,-0.4364,-0.4167,-0.3964,-0.3961,-0.3894,-0.3758,-0.3426,-0.3159,-0.3092,-0.2555,-0.2154,-0.2018,-0.1412,-0.0873,-0.0403,0.0336,0.1143,0.2085,0.2554,0.2889,0.3226,0.3429,0.3696,0.3825,0.3892,0.4092,0.4428,0.4434,0.4298,0.4095,0.3959,0.3894,0.3892,0.3894,0.3894,0.4025,0.4028,0.4228,0.4561,0.4628,0.4761,0.509,0.5219,0.5422,0.5888,0.6148,0.635,0.6482,0.6609,0.6806,0.6942,0.7204,0.7461,0.7526,0.7526,0.7526,0.7526,0.7526,0.7526,0.7526,0.7526,0.7526,0.7526,0.7526,0.7526,0.7526,0.7526,0.7526,0.7526,0.7526,0.7526,0.7526,0.7545,0.7484,-1.4976,-1.4537,-1.4187,-1.3686,-1.3042,-1.2585,-1.2375,-1.2375,-1.2058,-1.1809,-1.1685,-1.131,-1.0996,-1.0681,-1.0428,-1.0244,-1.0053,-0.9792,-0.9594,-0.9396,-0.9081,-0.8829,-0.8641,-0.8306,-0.7982,-0.7787,-0.7396,-0.7138,-0.6811,-0.6412,-0.6079,-0.5752,-0.562,-0.5488,-0.5425,-0.5428,-0.5359,-0.5292,-0.5156,-0.502,-0.4888,-0.4625,-0.4364,-0.4164,-0.4167,-0.4097,-0.3961,-0.3761,-0.356,-0.3228,-0.2958,-0.2622,-0.2221,-0.1951,-0.1479,-0.0873,0.0134,0.0941,0.1547,0.2084,0.2488,0.2624,0.2958,0.3226,0.3357,0.3493,0.3696,0.3894,0.3964,0.3961,0.3894,0.3825,0.3825,0.3825,0.3825,0.3825,0.3894,0.3961,0.4097,0.4228,0.4425,0.4691,0.4894,0.5223,0.555,0.5888,0.6083,0.6218,0.635,0.6548,0.6741,0.6881,0.7138,0.733,0.7461,0.7526,0.7526,0.7526,0.7526,0.7526,0.7526,0.7526,0.7526,0.7526,0.7526,0.7526,0.7526,0.7526,0.7526,0.7536,0.7536,0.7555,0.7617,0.7645,0.7755,-1.5573,-1.5375,-1.4878,-1.4357,-1.383,-1.3328,-1.3097,-1.2971,-1.2649,-1.2405,-1.2125,-1.1881,-1.1515,-1.1003,-1.0744,-1.0561,-1.0371,-0.9989,-0.9728,-0.9536,-0.9279,-0.9131,-0.8935,-0.8667,-0.8363,-0.8169,-0.7841,-0.7435,-0.6957,-0.6501,-0.6156,-0.5952,-0.5708,-0.5554,-0.5425,-0.5428,-0.5428,-0.5359,-0.5223,-0.5153,-0.5087,-0.4891,-0.4628,-0.4431,-0.43,-0.4233,-0.4097,-0.403,-0.3828,-0.3429,-0.3293,-0.296,-0.249,-0.2288,-0.1883,-0.1076,-0.0067,0.0673,0.1008,0.1547,0.1951,0.2153,0.2555,0.2824,0.2891,0.3094,0.3295,0.3295,0.3424,0.3489,0.3692,0.3692,0.3625,0.3625,0.3625,0.3625,0.3694,0.3828,0.3961,0.4028,0.4295,0.4631,0.4831,0.5156,0.555,0.5818,0.6017,0.6214,0.6354,0.6548,0.6675,0.6876,0.7012,0.7204,0.7461,0.7526,0.7526,0.7526,0.7526,0.7526,0.7526,0.7526,0.7526,0.7526,0.7526,0.7526,0.7526,0.7526,0.7574,0.7602,0.7626,0.7626,0.782,0.7922,0.8062,-1.6102,-1.5739,-1.5217,-1.4854,-1.4615,-1.4442,-1.4254,-1.4016,-1.3637,-1.3338,-1.2924,-1.2466,-1.1981,-1.1549,-1.1059,-1.0751,-1.0561,-1.0193,-0.9951,-0.9783,-0.9682,-0.9589,-0.9388,-0.9273,-0.9029,-0.8638,-0.8274,-0.7799,-0.724,-0.668,-0.6333,-0.6192,-0.584,-0.5561,-0.5439,-0.5432,-0.5428,-0.5362,-0.5359,-0.5292,-0.5153,-0.5087,-0.4891,-0.4628,-0.4431,-0.43,-0.43,-0.4097,-0.3961,-0.3961,-0.3493,-0.3159,-0.3092,-0.2555,-0.1816,-0.0941,-0.0337,0.0269,0.074,0.1008,0.1344,0.1816,0.2085,0.2288,0.2423,0.2621,0.2753,0.2753,0.2822,0.3021,0.3362,0.336,0.3293,0.3293,0.3226,0.3362,0.3498,0.3694,0.3828,0.3961,0.4231,0.4498,0.4761,0.5024,0.5352,0.562,0.5822,0.6024,0.6354,0.642,0.6548,0.6811,0.6946,0.7007,0.7396,0.7526,0.7526,0.7526,0.7526,0.7526,0.7526,0.7526,0.7526,0.7526,0.7526,0.7526,0.7526,0.7569,0.7584,0.765,0.7807,0.7848,0.8103,0.8282,0.8426,-1.6826,-1.6446,-1.5923,-1.5553,-1.5318,-1.4818,-1.4584,-1.4453,-1.3983,-1.3661,-1.3352,-1.3014,-1.2623,-1.2313,-1.1779,-1.1235,-1.0721,-1.0341,-1.0171,-1.0155,-1.0006,-0.9851,-0.9651,-0.9533,-0.9222,-0.8865,-0.8649,-0.8089,-0.7442,-0.7091,-0.6784,-0.6483,-0.6134,-0.5913,-0.5691,-0.554,-0.5428,-0.5428,-0.5428,-0.5359,-0.5292,-0.5156,-0.502,-0.4891,-0.4694,-0.4564,-0.4498,-0.4428,-0.4295,-0.4028,-0.383,-0.356,-0.3161,-0.2555,-0.1884,-0.121,-0.074,-0.0269,0.0269,0.0672,0.1008,0.1344,0.1547,0.1748,0.1884,0.222,0.242,0.2421,0.2621,0.2822,0.2956,0.3025,0.3092,0.3159,0.3226,0.3228,0.3295,0.3496,0.3694,0.3892,0.4225,0.4561,0.4761,0.4957,0.5286,0.569,0.5888,0.6024,0.6288,0.642,0.6486,0.6815,0.6881,0.7012,0.7461,0.7526,0.7526,0.7526,0.7526,0.7526,0.7526,0.7526,0.7526,0.7526,0.7526,0.7545,0.7559,0.7669,0.7683,0.7787,0.7877,0.8192,0.8389,0.8568,0.8797,-1.7332,-1.707,-1.6692,-1.6369,-1.6111,-1.5601,-1.5344,-1.5076,-1.4681,-1.4285,-1.3918,-1.3564,-1.318,-1.2811,-1.2255,-1.1706,-1.12,-1.077,-1.052,-1.0552,-1.0402,-1.0254,-0.9984,-0.991,-0.9664,-0.9299,-0.8867,-0.836,-0.7775,-0.75,-0.7186,-0.6817,-0.6398,-0.6069,-0.5902,-0.5568,-0.5428,-0.5428,-0.5428,-0.5428,-0.5362,-0.5289,-0.5223,-0.5156,-0.5093,-0.4894,-0.4691,-0.4625,-0.4492,-0.4225,-0.4095,-0.3761,-0.3228,-0.2624,-0.2085,-0.1681,-0.1143,-0.0672,-0.0269,0.0202,0.0605,0.0875,0.1144,0.1344,0.1479,0.1748,0.1951,0.2085,0.2285,0.2418,0.2554,0.2688,0.2891,0.3092,0.3159,0.3159,0.3228,0.3362,0.3629,0.3892,0.4225,0.4564,0.4764,0.4894,0.5226,0.5756,0.5888,0.6024,0.6288,0.642,0.6548,0.6815,0.6881,0.7073,0.7396,0.7526,0.7526,0.7526,0.7526,0.7526,0.7526,0.7526,0.7461,0.7526,0.7545,0.7503,0.7574,0.7692,0.7815,0.7933,0.8221,0.8471,0.868,0.8941,0.9209,-1.7529,-1.747,-1.7539,-1.7207,-1.6844,-1.6748,-1.6515,-1.6053,-1.5799,-1.5228,-1.464,-1.4132,-1.363,-1.3044,-1.2438,-1.2011,-1.1929,-1.147,-1.1112,-1.0918,-1.0953,-1.0719,-1.0376,-1.0415,-1.014,-0.9777,-0.9054,-0.8528,-0.8116,-0.7746,-0.7368,-0.7012,-0.6545,-0.6194,-0.5935,-0.5666,-0.5439,-0.5428,-0.5428,-0.5428,-0.5428,-0.5359,-0.5359,-0.5359,-0.5362,-0.5163,-0.4827,-0.4691,-0.4628,-0.4561,-0.4225,-0.3761,-0.3295,-0.2758,-0.2356,-0.2085,-0.1547,-0.1076,-0.0739,-0.0337,0.0067,0.0404,0.0807,0.1076,0.121,0.1412,0.1614,0.1614,0.1816,0.2018,0.222,0.2354,0.2624,0.2889,0.3023,0.3092,0.3226,0.3362,0.3629,0.3961,0.4231,0.4434,0.4697,0.4827,0.5093,0.562,0.5822,0.602,0.6288,0.642,0.6552,0.6815,0.6942,0.7073,0.7265,0.7526,0.7526,0.7526,0.7526,0.7526,0.7456,0.7456,0.7396,0.74,0.748,0.7513,0.7692,0.782,0.8033,0.817,0.8461,0.8724,0.8906,0.915,0.9552,-1.8076,-1.7881,-1.7872,-1.7666,-1.7254,-1.7038,-1.6769,-1.6551,-1.6079,-1.5587,-1.5205,-1.4624,-1.4128,-1.3704,-1.3113,-1.2749,-1.2613,-1.2168,-1.1709,-1.1242,-1.1307,-1.1132,-1.0707,-1.0548,-1.0218,-0.9695,-0.9322,-0.8937,-0.8466,-0.8107,-0.7787,-0.7509,-0.7024,-0.6561,-0.622,-0.5935,-0.5677,-0.5439,-0.5428,-0.5428,-0.5428,-0.5428,-0.5428,-0.5428,-0.5428,-0.5296,-0.5229,-0.5024,-0.4824,-0.4625,-0.4492,-0.4095,-0.3496,-0.3094,-0.2691,-0.2221,-0.2018,-0.1547,-0.1076,-0.0807,-0.0471,-0.0,0.0269,0.0606,0.101,0.1144,0.1277,0.1277,0.1547,0.1748,0.1951,0.2018,0.2354,0.2956,0.3023,0.3025,0.3226,0.3493,0.3758,0.3828,0.4097,0.4434,0.4694,0.4761,0.5093,0.569,0.5892,0.602,0.6288,0.642,0.6552,0.6815,0.6876,0.7007,0.733,0.7526,0.7526,0.7526,0.7526,0.7526,0.7456,0.7391,0.733,0.7367,0.7384,0.7562,0.781,0.7985,0.8203,0.8436,0.8635,0.8886,0.914,0.9473,0.9846,-1.8357,-1.8212,-1.8144,-1.793,-1.7666,-1.7254,-1.7047,-1.683,-1.6281,-1.5788,-1.5426,-1.4935,-1.4489,-1.4057,-1.3484,-1.3119,-1.29,-1.2452,-1.1985,-1.149,-1.1537,-1.1335,-1.0887,-1.0594,-1.0218,-0.9771,-0.9397,-0.9089,-0.8699,-0.8327,-0.803,-0.777,-0.7234,-0.6757,-0.6376,-0.6077,-0.5716,-0.5449,-0.5428,-0.5428,-0.5428,-0.5428,-0.5428,-0.5428,-0.5428,-0.5428,-0.5428,-0.5289,-0.509,-0.4824,-0.4628,-0.4228,-0.3699,-0.336,-0.3025,-0.2624,-0.2288,-0.1951,-0.1547,-0.1277,-0.0942,-0.0471,-0.0135,0.0202,0.0607,0.074,0.0875,0.1144,0.1278,0.1479,0.1748,0.1883,0.2153,0.269,0.2822,0.2956,0.3159,0.356,0.3758,0.3894,0.4097,0.4431,0.4697,0.4827,0.5096,0.5693,0.5892,0.6024,0.6288,0.642,0.6618,0.6815,0.6881,0.7073,0.7396,0.7526,0.7526,0.7526,0.7526,0.7526,0.7526,0.733,0.7265,0.7193,0.7265,0.7587,0.778,0.816,0.8382,0.8584,0.8849,0.912,0.9397,0.9771,1.0067,-1.8549,-1.8549,-1.8414,-1.8212,-1.8008,-1.7676,-1.7332,-1.6908,-1.6482,-1.5991,-1.5497,-1.5078,-1.4649,-1.4065,-1.3484,-1.3119,-1.2826,-1.2452,-1.207,-1.1749,-1.1632,-1.1477,-1.1037,-1.0663,-1.0293,-0.9916,-0.9544,-0.9165,-0.878,-0.8403,-0.803,-0.7783,-0.733,-0.6842,-0.6463,-0.608,-0.5805,-0.5516,-0.5425,-0.5428,-0.5428,-0.5428,-0.5428,-0.5428,-0.5428,-0.5428,-0.5428,-0.5359,-0.5292,-0.509,-0.4628,-0.4298,-0.3961,-0.3493,-0.3226,-0.3092,-0.2555,-0.2287,-0.2018,-0.1547,-0.1143,-0.1008,-0.0471,-0.0,0.0135,0.0337,0.0607,0.0944,0.1078,0.1278,0.1547,0.1748,0.2018,0.2356,0.269,0.2889,0.3159,0.3558,0.3758,0.3828,0.4095,0.4431,0.4764,0.4761,0.516,0.5693,0.5892,0.6086,0.6288,0.642,0.6552,0.6749,0.6881,0.7138,0.7396,0.7526,0.7526,0.7526,0.7461,0.7461,0.7396,0.7199,0.7068,0.7061,0.7261,0.7513,0.7849,0.8215,0.856,0.8849,0.9069,0.9316,0.962,0.9997,1.0293,-1.9008,-1.8942,-1.8741,-1.8472,-1.8202,-1.794,-1.7666,-1.7254,-1.676,-1.6193,-1.57,-1.5275,-1.4705,-1.4129,-1.363,-1.32,-1.2872,-1.2425,-1.2083,-1.1706,-1.1706,-1.1409,-1.0962,-1.0663,-1.0368,-1.0067,-0.9695,-0.9397,-0.9094,-0.8708,-0.8327,-0.8025,-0.7732,-0.7248,-0.6705,-0.6399,-0.6022,-0.5593,-0.5422,-0.5428,-0.5428,-0.5428,-0.5428,-0.5428,-0.5428,-0.5428,-0.5428,-0.5428,-0.5292,-0.5087,-0.4758,-0.4431,-0.4228,-0.3828,-0.3491,-0.3226,-0.2824,-0.2487,-0.222,-0.1884,-0.1547,-0.1143,-0.0874,-0.0606,-0.0067,0.0067,0.027,0.0607,0.0876,0.1145,0.1345,0.1547,0.195,0.2485,0.2755,0.2956,0.3159,0.3431,0.3629,0.3758,0.3961,0.4295,0.4631,0.4827,0.5096,0.5693,0.5954,0.602,0.6288,0.642,0.6482,0.6749,0.6942,0.7138,0.733,0.7461,0.7526,0.7526,0.7461,0.7396,0.7265,0.7003,0.6872,0.6758,0.7197,0.753,0.7865,0.8217,0.8613,0.8917,0.917,0.9397,0.9771,1.0143,1.0443,-1.9341,-1.9142,-1.9008,-1.8751,-1.8337,-1.8076,-1.7803,-1.7392,-1.689,-1.6324,-1.5762,-1.5409,-1.4776,-1.4122,-1.3489,-1.3071,-1.269,-1.2134,-1.1716,-1.1376,-1.124,-1.1138,-1.0932,-1.0743,-1.0519,-1.0293,-0.9922,-0.9549,-0.9246,-0.8856,-0.8479,-0.808,-0.7795,-0.7306,-0.6761,-0.651,-0.6153,-0.5663,-0.5484,-0.5422,-0.5428,-0.5428,-0.5428,-0.5428,-0.5428,-0.5428,-0.5428,-0.5428,-0.5292,-0.509,-0.4891,-0.4691,-0.4428,-0.4161,-0.3825,-0.3491,-0.309,-0.2755,-0.2487,-0.2153,-0.1816,-0.1412,-0.121,-0.0942,-0.0539,-0.0202,0.0135,0.027,0.0809,0.1078,0.1278,0.1479,0.2017,0.2552,0.2822,0.2956,0.3159,0.3362,0.3563,0.3761,0.3961,0.4228,0.4697,0.4761,0.516,0.5693,0.5892,0.6086,0.635,0.635,0.6482,0.6745,0.6876,0.7073,0.7265,0.7396,0.7461,0.7461,0.733,0.7265,0.7068,0.6872,0.6745,0.6738,0.7181,0.7531,0.7825,0.8203,0.8673,0.8934,0.9135,0.9473,0.9916,1.0218,1.0513,-1.9539,-1.9351,-1.9208,-1.8875,-1.8482,-1.8212,-1.7872,-1.7401,-1.689,-1.6324,-1.5833,-1.5346,-1.4728,-1.3996,-1.3375,-1.2791,-1.2389,-1.1756,-1.1303,-1.1013,-1.0805,-1.0791,-1.0941,-1.087,-1.0663,-1.0438,-1.0073,-0.9695,-0.9316,-0.8932,-0.8528,-0.8098,-0.7742,-0.7265,-0.6777,-0.6487,-0.6116,-0.5782,-0.5617,-0.555,-0.5425,-0.5425,-0.5428,-0.5428,-0.5428,-0.5428,-0.5428,-0.5362,-0.5292,-0.5153,-0.5087,-0.4891,-0.4628,-0.4431,-0.4164,-0.3828,-0.3426,-0.3025,-0.2755,-0.2421,-0.2085,-0.1681,-0.1344,-0.1144,-0.0943,-0.0539,-0.0135,0.0067,0.0607,0.101,0.1211,0.1614,0.2084,0.2552,0.2686,0.2889,0.3159,0.3362,0.3563,0.3758,0.3894,0.4228,0.4628,0.4827,0.5096,0.576,0.5892,0.609,0.6288,0.642,0.6482,0.6675,0.6806,0.6942,0.7138,0.7335,0.7396,0.7396,0.7138,0.7007,0.6942,0.6745,0.6613,0.6697,0.7069,0.7377,0.7677,0.8065,0.862,0.9,0.9236,0.962,1.0067,1.0293,1.0588,-1.9802,-1.9736,-1.9417,-1.9075,-1.8741,-1.8482,-1.8018,-1.747,-1.7047,-1.6473,-1.5833,-1.5409,-1.4616,-1.3698,-1.3212,-1.2668,-1.2088,-1.156,-1.1224,-1.0893,-1.0508,-1.0562,-1.0725,-1.0745,-1.0726,-1.0507,-1.0293,-0.9841,-0.9387,-0.913,-0.8774,-0.8175,-0.7785,-0.7415,-0.6851,-0.6563,-0.632,-0.6047,-0.5811,-0.5617,-0.5554,-0.5425,-0.5428,-0.5428,-0.5428,-0.5428,-0.5428,-0.5428,-0.5359,-0.5292,-0.5223,-0.5024,-0.4761,-0.4498,-0.4298,-0.403,-0.356,-0.3159,-0.3025,-0.2691,-0.2288,-0.2018,-0.1681,-0.1412,-0.1143,-0.0943,-0.054,-0.0135,0.0405,0.0808,0.1278,0.1479,0.1949,0.2418,0.2686,0.2822,0.3092,0.3228,0.3429,0.3694,0.3825,0.4092,0.4697,0.4761,0.516,0.569,0.5958,0.609,0.6222,0.6354,0.6482,0.6609,0.6741,0.6872,0.7007,0.7204,0.7204,0.7265,0.7007,0.6876,0.6811,0.6618,0.6486,0.668,0.6987,0.7224,0.7544,0.8015,0.8572,0.8946,0.9322,0.9771,1.0067,1.0368,1.0738,-1.9933,-1.9868,-1.9539,-1.9274,-1.8942,-1.8607,-1.8134,-1.7588,-1.7107,-1.6482,-1.579,-1.5258,-1.4439,-1.3553,-1.2975,-1.2304,-1.1685,-1.1076,-1.0685,-1.0444,-1.0196,-1.0224,-1.0299,-1.0498,-1.0548,-1.045,-1.0363,-0.9948,-0.9494,-0.915,-0.8744,-0.811,-0.7812,-0.7368,-0.6962,-0.6671,-0.6443,-0.6238,-0.6013,-0.5815,-0.5752,-0.5554,-0.5425,-0.5428,-0.5428,-0.5428,-0.5428,-0.5428,-0.5428,-0.5359,-0.5292,-0.5156,-0.496,-0.4694,-0.45,-0.4233,-0.3897,-0.3426,-0.3226,-0.2958,-0.2624,-0.2221,-0.1884,-0.1547,-0.1278,-0.1145,-0.0809,-0.027,0.0202,0.0741,0.1345,0.1614,0.2016,0.235,0.2619,0.2822,0.3092,0.3226,0.336,0.3692,0.3825,0.4161,0.4495,0.4761,0.509,0.562,0.5892,0.6024,0.6218,0.635,0.6416,0.6548,0.6609,0.6741,0.6872,0.7007,0.7007,0.7007,0.6876,0.6811,0.6811,0.6613,0.642,0.6614,0.6869,0.7185,0.7504,0.804,0.8451,0.8965,0.9468,0.9771,1.0148,1.0368,1.0887,-2.0074,-1.9944,-1.9671,-1.9407,-1.9075,-1.8674,-1.8192,-1.7638,-1.7107,-1.6428,-1.5704,-1.5007,-1.4231,-1.337,-1.266,-1.1992,-1.1258,-1.0535,-1.0149,-1.0103,-0.9927,-0.9934,-0.9982,-1.0179,-1.0308,-1.0444,-1.0353,-0.9884,-0.941,-0.9062,-0.8667,-0.8037,-0.7679,-0.7377,-0.7022,-0.6768,-0.6556,-0.6346,-0.621,-0.6079,-0.5951,-0.5752,-0.5624,-0.5491,-0.5425,-0.5428,-0.5428,-0.5428,-0.5428,-0.5428,-0.5428,-0.5292,-0.5156,-0.4957,-0.4697,-0.4367,-0.4164,-0.3828,-0.3426,-0.3226,-0.2891,-0.2287,-0.2085,-0.1748,-0.1412,-0.1212,-0.0876,-0.0337,0.0202,0.0943,0.1412,0.1748,0.2083,0.2485,0.2686,0.2889,0.3092,0.3226,0.3426,0.3692,0.3892,0.4161,0.4495,0.4827,0.5156,0.5484,0.5756,0.5958,0.6152,0.6284,0.6416,0.6416,0.6548,0.6675,0.6806,0.6876,0.6946,0.6876,0.6806,0.6741,0.6741,0.6613,0.6486,0.6486,0.6701,0.7061,0.7489,0.7858,0.8437,0.9025,0.9387,0.9695,1.0067,1.0438,1.0962,-2.0216,-2.0009,-1.9747,-1.9483,-1.9208,-1.8751,-1.8192,-1.7638,-1.7148,-1.6294,-1.5412,-1.4898,-1.3961,-1.2976,-1.2465,-1.1768,-1.1001,-1.0327,-0.9989,-0.9919,-0.9756,-0.9723,-0.9898,-0.9898,-1.0045,-1.0032,-0.9972,-0.965,-0.9287,-0.8972,-0.8578,-0.8128,-0.785,-0.749,-0.7167,-0.6885,-0.6675,-0.6544,-0.6346,-0.6214,-0.6148,-0.5954,-0.5752,-0.562,-0.5554,-0.5557,-0.5428,-0.5428,-0.5428,-0.5428,-0.5428,-0.5359,-0.5292,-0.5156,-0.4891,-0.4561,-0.4364,-0.4097,-0.3694,-0.336,-0.3023,-0.2688,-0.2354,-0.1951,-0.1614,-0.1278,-0.0875,-0.0269,0.0606,0.148,0.1547,0.1884,0.2287,0.2621,0.2822,0.3025,0.3159,0.3362,0.356,0.3761,0.3959,0.4159,0.4561,0.4827,0.509,0.5422,0.5756,0.5954,0.6086,0.6284,0.642,0.642,0.642,0.6548,0.6675,0.6811,0.6881,0.6806,0.6741,0.6613,0.6609,0.6675,0.6613,0.6688,0.6779,0.7015,0.7441,0.7827,0.8332,0.8975,0.926,0.9539,1.0067,1.0594,1.0962,-2.027,-2.0085,-1.9736,-1.9539,-1.9341,-1.8741,-1.8279,-1.7755,-1.6943,-1.6147,-1.5281,-1.4497,-1.3614,-1.2706,-1.2292,-1.1692,-1.0968,-1.0295,-1.0047,-0.9919,-0.9682,-0.9532,-0.967,-0.9676,-0.967,-0.9699,-0.9594,-0.9412,-0.9155,-0.8959,-0.8628,-0.8194,-0.7883,-0.7626,-0.7358,-0.7138,-0.6872,-0.6741,-0.6544,-0.6412,-0.628,-0.6152,-0.5947,-0.5749,-0.5686,-0.569,-0.5554,-0.5557,-0.5488,-0.5488,-0.5422,-0.5425,-0.5359,-0.5292,-0.5093,-0.4761,-0.4564,-0.4298,-0.3961,-0.3627,-0.3357,-0.2889,-0.2488,-0.2085,-0.1681,-0.1277,-0.074,0.0067,0.0875,0.1681,0.1748,0.2085,0.2421,0.2755,0.2956,0.3092,0.3362,0.3496,0.3694,0.3894,0.3959,0.4225,0.4628,0.4894,0.5093,0.5359,0.569,0.5888,0.602,0.6218,0.642,0.642,0.642,0.6486,0.6548,0.6679,0.6815,0.6741,0.6741,0.6609,0.6613,0.6675,0.6885,0.7095,0.7131,0.7154,0.7401,0.7808,0.836,0.8855,0.9214,0.9599,1.0212,1.0669,1.1037,-2.0346,-2.0074,-1.9747,-1.9615,-1.9505,-1.8818,-1.822,-1.7687,-1.6768,-1.5793,-1.4982,-1.4078,-1.3252,-1.2536,-1.2029,-1.1567,-1.1059,-1.0295,-1.0047,-0.9926,-0.967,-0.949,-0.9484,-0.9478,-0.952,-0.9568,-0.9485,-0.925,-0.9147,-0.8925,-0.8678,-0.832,-0.7932,-0.7727,-0.7526,-0.7335,-0.7073,-0.6872,-0.6741,-0.6613,-0.6416,-0.6284,-0.6083,-0.5815,-0.5885,-0.5888,-0.5822,-0.5752,-0.5686,-0.562,-0.5554,-0.5491,-0.5428,-0.5428,-0.5226,-0.4894,-0.4758,-0.4425,-0.4161,-0.3894,-0.3491,-0.3023,-0.269,-0.222,-0.1614,-0.1076,-0.0404,0.0472,0.1279,0.1816,0.1951,0.2221,0.2555,0.2891,0.3092,0.3226,0.3429,0.3629,0.3828,0.3961,0.4028,0.4295,0.4694,0.4827,0.496,0.5359,0.569,0.5822,0.602,0.6288,0.642,0.642,0.642,0.642,0.6486,0.6548,0.6679,0.6741,0.6741,0.6741,0.6745,0.6811,0.7016,0.7292,0.7283,0.7329,0.7595,0.7845,0.8382,0.8809,0.914,0.9658,1.0282,1.0743,1.1117,-2.0475,-2.0074,-1.9747,-1.9658,-1.9579,-1.8849,-1.8051,-1.7272,-1.657,-1.5471,-1.4324,-1.381,-1.3066,-1.2242,-1.1549,-1.1247,-1.087,-1.0428,-1.0053,-0.9989,-0.967,-0.9542,-0.9478,-0.9478,-0.9478,-0.9478,-0.9478,-0.942,-0.9232,-0.8978,-0.8695,-0.8447,-0.8247,-0.7982,-0.7792,-0.7531,-0.733,-0.7134,-0.6872,-0.6609,-0.6416,-0.6354,-0.6218,-0.6148,-0.6083,-0.6152,-0.6024,-0.5954,-0.5885,-0.5818,-0.5686,-0.555,-0.555,-0.5491,-0.5292,-0.5093,-0.4894,-0.4631,-0.4298,-0.3961,-0.3558,-0.309,-0.2755,-0.2285,-0.1614,-0.074,0.0067,0.0944,0.1481,0.1816,0.2085,0.242,0.2822,0.3092,0.3295,0.3362,0.3565,0.3763,0.3961,0.4095,0.4228,0.4428,0.4761,0.4827,0.4964,0.5296,0.5627,0.5826,0.5958,0.6222,0.642,0.642,0.642,0.642,0.6482,0.6544,0.6675,0.6736,0.6806,0.6876,0.6937,0.7068,0.7209,0.741,0.7466,0.7499,0.7655,0.7976,0.8383,0.8831,0.93,0.9814,1.0363,1.0818,1.1186,-2.0335,-1.9944,-1.9736,-1.9505,-1.9327,-1.8761,-1.7965,-1.711,-1.6309,-1.5312,-1.4182,-1.3472,-1.2811,-1.2081,-1.1373,-1.1129,-1.094,-1.0428,-1.011,-0.9989,-0.9734,-0.9606,-0.9478,-0.9478,-0.9478,-0.9478,-0.9478,-0.9478,-0.935,-0.9215,-0.8958,-0.8705,-0.8511,-0.8312,-0.8057,-0.7792,-0.7526,-0.7265,-0.6937,-0.6613,-0.6486,-0.642,-0.6354,-0.6284,-0.6284,-0.6288,-0.6222,-0.6152,-0.6083,-0.6017,-0.5885,-0.5686,-0.5617,-0.555,-0.5422,-0.5292,-0.496,-0.4694,-0.4495,-0.4025,-0.3558,-0.3157,-0.2822,-0.2351,-0.1614,-0.0673,0.0269,0.1011,0.1414,0.1749,0.2085,0.242,0.2755,0.3092,0.3362,0.3563,0.3696,0.383,0.4028,0.4228,0.4428,0.4628,0.4827,0.496,0.5093,0.5362,0.5627,0.5892,0.6024,0.6222,0.6354,0.642,0.642,0.6416,0.6544,0.6675,0.6872,0.6937,0.7003,0.7138,0.7265,0.7396,0.7536,0.7606,0.7671,0.7729,0.775,0.8098,0.8498,0.8975,0.9453,0.9988,1.0519,1.1037,1.1484,-2.014,-1.9813,-1.9671,-1.9417,-1.9065,-1.8506,-1.7701,-1.6674,-1.5909,-1.4943,-1.3956,-1.3112,-1.2506,-1.2065,-1.1435,-1.1129,-1.1059,-1.0555,-1.0244,-0.9989,-0.9862,-0.9676,-0.9548,-0.9478,-0.9478,-0.9478,-0.9478,-0.9478,-0.9478,-0.9344,-0.9215,-0.8964,-0.87,-0.8576,-0.8382,-0.7992,-0.7661,-0.733,-0.6937,-0.6679,-0.6548,-0.6416,-0.642,-0.642,-0.642,-0.642,-0.642,-0.6284,-0.6284,-0.6218,-0.6083,-0.5885,-0.5815,-0.5683,-0.5554,-0.5359,-0.5027,-0.4761,-0.4495,-0.4159,-0.3625,-0.3224,-0.2688,-0.2083,-0.1613,-0.0605,0.0336,0.1011,0.1414,0.1682,0.2017,0.242,0.2755,0.309,0.336,0.3625,0.3825,0.3961,0.4164,0.4361,0.4561,0.4691,0.4891,0.509,0.5223,0.5428,0.5627,0.5892,0.609,0.6288,0.6354,0.642,0.6482,0.6548,0.6609,0.6741,0.6937,0.7134,0.7204,0.7335,0.7466,0.7596,0.7666,0.7736,0.7907,0.8062,0.824,0.8467,0.8695,0.9176,0.9732,1.0181,1.0663,1.1186,1.1781,-2.0074,-1.9605,-1.9594,-1.9351,-1.8962,-1.8127,-1.7064,-1.588,-1.5241,-1.4453,-1.3509,-1.2621,-1.2182,-1.1934,-1.1435,-1.1129,-1.1066,-1.0561,-1.0244,-1.0053,-0.9868,-0.9676,-0.9542,-0.9478,-0.9478,-0.9478,-0.9478,-0.9478,-0.9478,-0.9478,-0.9344,-0.9145,-0.8958,-0.8705,-0.8447,-0.8122,-0.7727,-0.7396,-0.7007,-0.6811,-0.6675,-0.6544,-0.6416,-0.642,-0.642,-0.642,-0.642,-0.633,-0.6294,-0.629,-0.614,-0.6074,-0.5921,-0.5734,-0.5538,-0.5446,-0.5058,-0.4803,-0.4619,-0.4159,-0.3625,-0.3023,-0.2353,-0.1747,-0.1546,-0.0605,0.0269,0.1011,0.1414,0.1749,0.2085,0.2488,0.2822,0.309,0.3426,0.3692,0.3894,0.4097,0.4298,0.4498,0.4694,0.4827,0.5024,0.5156,0.5289,0.5491,0.5756,0.602,0.6222,0.6354,0.642,0.6482,0.6613,0.6679,0.6741,0.6872,0.7138,0.7265,0.7396,0.7531,0.7727,0.7802,0.8002,0.8245,0.8445,0.859,0.8769,0.9018,0.9312,0.9556,1.0013,1.045,1.0956,1.1477,1.207,-1.9695,-1.9179,-1.8975,-1.8661,-1.8334,-1.7901,-1.6943,-1.5698,-1.5086,-1.425,-1.3155,-1.2428,-1.2065,-1.1872,-1.1435,-1.1129,-1.1066,-1.0688,-1.0308,-1.011,-0.9919,-0.9734,-0.9606,-0.9478,-0.9478,-0.9478,-0.9478,-0.9478,-0.9478,-0.9478,-0.9478,-0.9344,-0.9145,-0.8958,-0.8705,-0.8252,-0.7792,-0.7461,-0.7204,-0.7007,-0.6741,-0.6609,-0.6548,-0.642,-0.642,-0.6351,-0.627,-0.6254,-0.6189,-0.6128,-0.6049,-0.599,-0.5868,-0.5612,-0.553,-0.5471,-0.51,-0.4882,-0.468,-0.4154,-0.3558,-0.2822,-0.2151,-0.1614,-0.1547,-0.0605,0.0269,0.0943,0.1414,0.1748,0.2018,0.242,0.282,0.309,0.3424,0.3692,0.3961,0.4164,0.4367,0.4631,0.4764,0.4897,0.5027,0.5292,0.5422,0.5554,0.5885,0.6152,0.6288,0.642,0.6482,0.6548,0.6675,0.6872,0.6937,0.7073,0.7269,0.74,0.7591,0.7751,0.7972,0.8235,0.8436,0.8684,0.8988,0.9278,0.9491,0.9635,0.9863,1.0076,1.0427,1.0783,1.1329,1.1842,1.2365,-1.919,-1.8701,-1.8365,-1.7994,-1.7664,-1.7288,-1.6587,-1.5562,-1.4894,-1.404,-1.2989,-1.2367,-1.2065,-1.1941,-1.1435,-1.1129,-1.0996,-1.0744,-1.0364,-1.011,-0.9989,-0.9798,-0.9606,-0.9478,-0.9478,-0.9478,-0.9478,-0.9478,-0.9478,-0.9478,-0.9478,-0.9478,-0.9408,-0.9151,-0.8829,-0.8312,-0.7857,-0.7596,-0.733,-0.7138,-0.6868,-0.6741,-0.6675,-0.6465,-0.6424,-0.6278,-0.6168,-0.6111,-0.6026,-0.5961,-0.5921,-0.5844,-0.5711,-0.5536,-0.5467,-0.5293,-0.5121,-0.4929,-0.4611,-0.4079,-0.3422,-0.2755,-0.2151,-0.1748,-0.1344,-0.0672,0.0135,0.1011,0.1346,0.1614,0.1883,0.2353,0.2753,0.309,0.3558,0.3825,0.3959,0.4161,0.4431,0.4697,0.4827,0.496,0.5229,0.5425,0.5624,0.5752,0.5951,0.6218,0.635,0.6482,0.6548,0.6675,0.6806,0.7003,0.7134,0.7335,0.747,0.7531,0.7741,0.7997,0.819,0.8534,0.8947,0.9223,0.9575,0.993,1.0205,1.0359,1.0428,1.0498,1.0917,1.1335,1.1706,1.2218,1.2586,-1.8448,-1.8211,-1.7915,-1.7543,-1.7089,-1.6279,-1.5718,-1.5219,-1.4387,-1.3623,-1.2981,-1.2367,-1.2065,-1.1934,-1.1435,-1.1122,-1.1059,-1.0744,-1.0364,-1.0117,-0.9989,-0.9798,-0.9606,-0.9478,-0.9478,-0.9478,-0.9478,-0.9478,-0.9478,-0.9478,-0.9478,-0.9478,-0.9408,-0.928,-0.8877,-0.8306,-0.7922,-0.7661,-0.7396,-0.7265,-0.7068,-0.6872,-0.6741,-0.6599,-0.6454,-0.6303,-0.6158,-0.6063,-0.5976,-0.5914,-0.585,-0.585,-0.5858,-0.5624,-0.5475,-0.54,-0.522,-0.4915,-0.4577,-0.3906,-0.3351,-0.2822,-0.2218,-0.1816,-0.148,-0.0808,-0.0,0.0877,0.128,0.1547,0.195,0.2353,0.2688,0.3023,0.3491,0.3825,0.3959,0.4225,0.4495,0.4694,0.4957,0.5156,0.5425,0.5627,0.5826,0.5954,0.6083,0.628,0.6416,0.6548,0.6675,0.6806,0.7003,0.7134,0.733,0.7531,0.7666,0.7731,0.7952,0.8209,0.8594,0.9018,0.9371,0.9811,1.0237,1.0677,1.0919,1.1071,1.1175,1.1353,1.155,1.1929,1.2298,1.2526,1.2893,-1.7959,-1.7434,-1.7133,-1.6598,-1.6078,-1.5955,-1.5486,-1.474,-1.3934,-1.3346,-1.292,-1.2375,-1.2127,-1.1872,-1.156,-1.1185,-1.1059,-1.087,-1.0491,-1.0053,-0.9989,-0.9798,-0.9606,-0.9478,-0.9478,-0.9478,-0.9478,-0.9478,-0.9478,-0.9478,-0.9478,-0.9478,-0.9408,-0.9215,-0.8888,-0.8436,-0.8042,-0.7857,-0.7661,-0.7466,-0.7199,-0.706,-0.6876,-0.663,-0.6484,-0.6335,-0.6143,-0.6045,-0.5964,-0.5821,-0.5813,-0.5861,-0.58,-0.562,-0.5489,-0.5381,-0.5202,-0.4758,-0.446,-0.3954,-0.3556,-0.2956,-0.2285,-0.1816,-0.1547,-0.0876,-0.0067,0.0607,0.1144,0.1412,0.1748,0.2351,0.2753,0.2887,0.3288,0.3692,0.3959,0.4359,0.4625,0.4761,0.4957,0.5289,0.5557,0.569,0.5892,0.6086,0.628,0.6412,0.6548,0.6679,0.6741,0.7003,0.7134,0.733,0.7531,0.7661,0.7922,0.8052,0.8223,0.8548,0.8964,0.9468,0.9979,1.0485,1.0924,1.1353,1.1592,1.1838,1.2031,1.2218,1.2372,1.2372,1.2452,1.2746,1.3046,-1.7413,-1.6867,-1.6504,-1.5979,-1.543,-1.5494,-1.5068,-1.4258,-1.3519,-1.3103,-1.2928,-1.2436,-1.2127,-1.1996,-1.1622,-1.1247,-1.1122,-1.087,-1.0611,-1.011,-0.9989,-0.9862,-0.9676,-0.9548,-0.9478,-0.9478,-0.9478,-0.9478,-0.9478,-0.9478,-0.9478,-0.9478,-0.9338,-0.921,-0.8888,-0.8565,-0.8177,-0.7987,-0.7727,-0.7531,-0.7307,-0.7131,-0.6971,-0.6715,-0.6507,-0.6322,-0.6129,-0.6002,-0.5927,-0.5826,-0.5791,-0.5791,-0.5736,-0.5648,-0.5469,-0.5385,-0.5038,-0.472,-0.4514,-0.4097,-0.364,-0.3224,-0.2421,-0.1884,-0.148,-0.0876,-0.0202,0.0404,0.101,0.1345,0.168,0.2284,0.2619,0.282,0.3288,0.3692,0.3959,0.4292,0.4691,0.4827,0.5093,0.5355,0.562,0.5756,0.5954,0.6218,0.6416,0.6548,0.6675,0.6745,0.6872,0.7134,0.7335,0.7466,0.7661,0.7792,0.8047,0.8242,0.8565,0.8849,0.9496,1.0113,1.0639,1.1075,1.1522,1.1944,1.2271,1.2526,1.2673,1.282,1.29,1.29,1.2746,1.2966,1.3339,-1.6669,-1.6374,-1.6039,-1.5644,-1.5215,-1.5067,-1.4634,-1.3941,-1.3285,-1.3042,-1.2981,-1.249,-1.2243,-1.2058,-1.1747,-1.1435,-1.1185,-1.0933,-1.0618,-1.0364,-1.0117,-0.9926,-0.974,-0.9612,-0.9542,-0.9478,-0.9478,-0.9548,-0.9478,-0.9548,-0.9548,-0.9478,-0.9408,-0.9274,-0.9022,-0.8765,-0.8371,-0.8117,-0.7857,-0.7632,-0.7445,-0.7144,-0.6966,-0.6691,-0.6488,-0.6267,-0.6115,-0.6021,-0.5949,-0.59,-0.59,-0.585,-0.585,-0.585,-0.5631,-0.529,-0.4844,-0.478,-0.4668,-0.4168,-0.3806,-0.3411,-0.2691,-0.2085,-0.148,-0.0875,-0.0337,0.0269,0.0875,0.1278,0.1613,0.2084,0.2555,0.2889,0.3357,0.3692,0.3892,0.4225,0.4628,0.4894,0.5226,0.5491,0.5756,0.5958,0.6086,0.6284,0.6482,0.6679,0.6811,0.6876,0.7073,0.7265,0.7466,0.7661,0.7792,0.7987,0.8247,0.8441,0.8892,0.9285,0.9977,1.0618,1.1093,1.1565,1.2051,1.2452,1.2826,1.3119,1.3266,1.3346,1.3484,1.3419,1.3266,1.3339,1.3702,-1.6477,-1.6039,-1.5972,-1.5566,-1.5029,-1.4675,-1.4318,-1.3959,-1.3424,-1.3119,-1.2989,-1.2683,-1.2436,-1.2182,-1.1872,-1.1677,-1.1365,-1.1122,-1.0807,-1.0555,-1.0308,-1.0053,-0.9868,-0.974,-0.9606,-0.9548,-0.9548,-0.9612,-0.9676,-0.974,-0.974,-0.967,-0.9542,-0.9344,-0.9145,-0.8952,-0.8549,-0.8215,-0.7952,-0.7688,-0.7463,-0.7221,-0.6937,-0.6643,-0.6446,-0.6289,-0.617,-0.6225,-0.6168,-0.6223,-0.6327,-0.644,-0.6436,-0.6228,-0.5905,-0.5372,-0.5125,-0.5078,-0.4832,-0.4442,-0.4024,-0.3654,-0.2952,-0.2218,-0.1614,-0.1076,-0.0539,0.0135,0.0808,0.1212,0.1547,0.195,0.242,0.2822,0.3291,0.3694,0.3959,0.4292,0.4694,0.5027,0.5292,0.5557,0.5822,0.602,0.6152,0.635,0.6548,0.6745,0.6876,0.7007,0.7204,0.74,0.7596,0.7792,0.8052,0.8247,0.8441,0.8722,0.9182,0.9675,1.0288,1.0849,1.1469,1.2116,1.2649,1.3098,1.3492,1.3637,1.3848,1.4,1.4145,1.3928,1.3863,1.3928,1.4065,-1.6477,-1.6019,-1.5914,-1.5566,-1.5039,-1.4547,-1.4309,-1.4121,-1.3649,-1.3294,-1.3119,-1.2867,-1.2621,-1.2428,-1.2182,-1.1934,-1.156,-1.1373,-1.1122,-1.0681,-1.0498,-1.0308,-1.0053,-0.9932,-0.9798,-0.974,-0.974,-0.9798,-0.9862,-0.9862,-0.9856,-0.9798,-0.9676,-0.9472,-0.925,-0.8977,-0.8667,-0.8344,-0.8075,-0.7759,-0.7461,-0.7181,-0.6797,-0.6582,-0.6478,-0.6392,-0.6361,-0.644,-0.649,-0.649,-0.6652,-0.6707,-0.6652,-0.6391,-0.6123,-0.5648,-0.5378,-0.5189,-0.4932,-0.4525,-0.4152,-0.374,-0.3201,-0.2552,-0.1882,-0.1345,-0.074,-0.0067,0.0606,0.1212,0.1548,0.1883,0.2284,0.2686,0.3224,0.3694,0.4095,0.4428,0.4761,0.5027,0.5359,0.5624,0.5885,0.6083,0.628,0.6416,0.6618,0.6881,0.7012,0.7077,0.7339,0.7596,0.7792,0.7922,0.8247,0.8506,0.8759,0.9003,0.9414,0.9922,1.0492,1.1099,1.1677,1.2444,1.3302,1.3621,1.3894,1.4258,1.4425,1.4537,1.4649,1.4689,1.4553,1.4505,1.4641,-1.6524,-1.6114,-1.5904,-1.5614,-1.5147,-1.4715,-1.4538,-1.4469,-1.3872,-1.3519,-1.3363,-1.3103,-1.292,-1.2736,-1.256,-1.2243,-1.1872,-1.1622,-1.131,-1.0863,-1.0618,-1.0428,-1.0301,-1.011,-0.9989,-0.9989,-0.9989,-0.9919,-0.9983,-1.0047,-0.9989,-0.9862,-0.9736,-0.9578,-0.9277,-0.89,-0.8561,-0.8371,-0.8008,-0.769,-0.7375,-0.7052,-0.6744,-0.6582,-0.6462,-0.6436,-0.6495,-0.6598,-0.6701,-0.6701,-0.6761,-0.6815,-0.6652,-0.6549,-0.6337,-0.6014,-0.5656,-0.5321,-0.5053,-0.465,-0.4238,-0.3788,-0.3296,-0.2736,-0.2076,-0.1545,-0.0942,-0.027,0.0472,0.1077,0.1412,0.1748,0.2151,0.2621,0.3226,0.3627,0.3894,0.4359,0.4894,0.516,0.5422,0.5686,0.5888,0.6083,0.6218,0.6416,0.6683,0.6946,0.7077,0.7143,0.7405,0.7666,0.7857,0.8052,0.8447,0.87,0.9017,0.9344,0.967,1.0133,1.0689,1.1296,1.1868,1.2716,1.3497,1.3924,1.4253,1.4449,1.462,1.4854,1.501,1.5309,1.5296,1.5163,1.5213,-1.6591,-1.6249,-1.572,-1.542,-1.5294,-1.502,-1.4765,-1.4656,-1.4529,-1.4085,-1.3709,-1.3442,-1.3235,-1.3003,-1.2708,-1.2403,-1.2243,-1.1736,-1.1538,-1.1197,-1.0871,-1.0607,-1.0485,-1.0345,-1.0174,-1.0053,-1.0047,-1.0098,-1.0129,-1.0212,-1.0155,-1.0066,-0.9806,-0.9414,-0.9266,-0.8848,-0.8431,-0.83,-0.7907,-0.7602,-0.7302,-0.7077,-0.6874,-0.6749,-0.6598,-0.6647,-0.6707,-0.6869,-0.6972,-0.7025,-0.7192,-0.7192,-0.7031,-0.6923,-0.6657,-0.6228,-0.5841,-0.5553,-0.5148,-0.4738,-0.427,-0.3854,-0.3378,-0.2838,-0.2267,-0.1743,-0.1144,-0.0472,0.0202,0.0808,0.1345,0.1681,0.2018,0.2622,0.3226,0.3493,0.3825,0.4359,0.496,0.5226,0.5488,0.5686,0.5888,0.6086,0.6218,0.6416,0.6745,0.6946,0.7077,0.7274,0.7531,0.7792,0.7917,0.8117,0.8576,0.8899,0.9145,0.9402,0.9744,1.0334,1.0876,1.1636,1.2272,1.2893,1.3536,1.405,1.4296,1.4328,1.453,1.4883,1.536,1.5661,1.5904,1.5791,1.5834,-1.6201,-1.5873,-1.5411,-1.5133,-1.4966,-1.4797,-1.4628,-1.4506,-1.4393,-1.4166,-1.3859,-1.362,-1.3345,-1.3048,-1.2672,-1.2435,-1.2249,-1.1786,-1.1435,-1.1181,-1.1045,-1.0821,-1.0691,-1.0586,-1.0548,-1.0428,-1.0295,-1.0332,-1.0269,-1.0155,-1.0128,-0.9894,-0.95,-0.9244,-0.9153,-0.8663,-0.8288,-0.8219,-0.7751,-0.7489,-0.7245,-0.7052,-0.6915,-0.6722,-0.6761,-0.6815,-0.6918,-0.7085,-0.7192,-0.7246,-0.7408,-0.7359,-0.7192,-0.7085,-0.6869,-0.6495,-0.6069,-0.5711,-0.5313,-0.4843,-0.4367,-0.391,-0.34,-0.2805,-0.2341,-0.1817,-0.1144,-0.0472,0.0135,0.0741,0.1278,0.1681,0.2084,0.2621,0.3295,0.3766,0.4095,0.4558,0.4957,0.5156,0.5422,0.5686,0.5885,0.6083,0.6214,0.6416,0.6683,0.6881,0.7077,0.7274,0.7596,0.7857,0.7917,0.8306,0.8765,0.9022,0.921,0.953,0.9856,1.0437,1.1033,1.1891,1.2712,1.3065,1.3547,1.4123,1.4371,1.4416,1.4754,1.5151,1.557,1.6053,1.6152,1.6347,1.6606,-1.5715,-1.5383,-1.5123,-1.486,-1.4576,-1.4427,-1.4384,-1.4384,-1.416,-1.4014,-1.3844,-1.3663,-1.3257,-1.2817,-1.25,-1.2239,-1.2018,-1.1751,-1.1378,-1.1145,-1.1027,-1.0863,-1.0799,-1.0812,-1.0663,-1.0575,-1.0451,-1.0275,-1.0127,-1.0047,-0.9894,-0.9486,-0.9285,-0.9086,-0.8837,-0.8456,-0.8137,-0.7979,-0.768,-0.7415,-0.7214,-0.7095,-0.6939,-0.6825,-0.6874,-0.6982,-0.7144,-0.7252,-0.7413,-0.7467,-0.7568,-0.7515,-0.7413,-0.7246,-0.6977,-0.6652,-0.6277,-0.5845,-0.5385,-0.4922,-0.4422,-0.3898,-0.3333,-0.2845,-0.2386,-0.1814,-0.121,-0.0606,-0.0067,0.0607,0.1211,0.1681,0.2083,0.2621,0.3295,0.3969,0.4298,0.4694,0.4891,0.509,0.5355,0.562,0.5885,0.6083,0.6214,0.635,0.6552,0.6815,0.7012,0.7209,0.7466,0.7727,0.7922,0.8371,0.8888,0.9081,0.921,0.9664,1.0047,1.0548,1.1108,1.1909,1.2508,1.2988,1.3485,1.3978,1.4423,1.4646,1.4978,1.5314,1.567,1.6058,1.6449,1.6683,1.7243,-1.5855,-1.5569,-1.5362,-1.5133,-1.4966,-1.4851,-1.4756,-1.4756,-1.4588,-1.4323,-1.3949,-1.3753,-1.3408,-1.3032,-1.2831,-1.2512,-1.2163,-1.182,-1.1592,-1.1396,-1.1088,-1.0897,-1.0806,-1.0748,-1.0434,-1.0366,-1.0349,-1.0165,-1.0051,-0.9986,-0.9901,-0.9735,-0.916,-0.8976,-0.8813,-0.8428,-0.8063,-0.7871,-0.7703,-0.7521,-0.7311,-0.7203,-0.709,-0.709,-0.7144,-0.7203,-0.7306,-0.7515,-0.7622,-0.7676,-0.7735,-0.7676,-0.7568,-0.7413,-0.7198,-0.6869,-0.6495,-0.6055,-0.5542,-0.5068,-0.4569,-0.4107,-0.3564,-0.3038,-0.2535,-0.2071,-0.1473,-0.0942,-0.0337,0.0471,0.1076,0.1412,0.1814,0.2554,0.3293,0.383,0.4231,0.4561,0.4894,0.5093,0.5289,0.5557,0.5822,0.6017,0.6148,0.6284,0.6548,0.6745,0.6881,0.7138,0.7335,0.7596,0.7857,0.8371,0.8888,0.9017,0.921,0.9664,1.0174,1.0674,1.1178,1.1755,1.2297,1.2915,1.3248,1.3706,1.4118,1.4727,1.4943,1.5191,1.5553,1.5976,1.644,1.6956,1.7464]},{"header":{"parameterUnit":"m.s-1","parameterCategory":1,"la1":31.0,"la2":29.5877,"lo1":-88.7671,"lo2":-86.6584,"dy":0.0162,"dx":0.0185,"nx":115,"ny":88,"refTime":"2023-08-24T12:00:00:Z","depth":0,"parameterNumber":3,"parameterNumberName":"V-component_of_WINDS"},"data":[0.0,0.0,0.0,0.0,0.0,0.0,0.0,0.0,0.0,0.0,0.0,0.0,0.0,0.0,0.0,0.0,0.0,0.0,0.0,0.0,0.0,0.0,0.0,0.0,0.0,0.0,0.0,0.0,0.0,0.0,0.0,0.0,0.0,0.0,0.0,0.0,0.0,0.0,0.0,0.0,0.0,0.0,0.0,0.0,0.0,0.0,0.0,0.0,0.0,0.0,0.0,0.0,0.0,0.0,0.0,0.0,0.0,0.0,0.0,0.0,0.0,0.0,0.0,0.0,0.0,0.0,0.0,0.0,0.0,0.0,0.0,0.0,0.0,0.0,0.0,0.0,0.0,0.0,0.0,0.0,0.0,0.0,0.0,0.0,0.0,0.0,0.0,0.0,0.0,0.0,0.0,0.0,0.0,0.0,0.0,0.0,0.0,0.0,0.0,0.0,0.0,0.0,0.0,0.0,0.0,0.0,0.0,0.0,0.0,0.0,0.0,0.0,0.0,0.0,0.0,0.0,0.0,0.0,0.0,0.0,0.0,0.0,0.0,0.0,0.0,0.0,0.0,0.0,0.0,0.0,0.0,0.0,0.0,0.0,0.0,0.0,0.0,0.0,0.0,0.0,0.0,0.0,0.0,0.0,0.0,0.0,0.0,0.0,0.0,0.0,0.0,0.0,0.0,0.0,0.0,0.0,0.0,0.0,0.0,0.0,0.0,0.0,0.0,0.0,0.0,0.0,0.0,0.0,0.0,0.0,0.0,0.0,0.0,0.0,0.0,0.0,0.0,0.0,0.0,0.0,0.0,0.0,0.0,0.0,0.0,0.0,0.0,0.0,0.0,0.0,0.0,0.0,0.0,0.0,0.0,0.0,0.0,0.0,0.0,0.0,0.0,0.0,0.0,0.0,0.0,0.0,0.0,0.0,0.0,0.0,0.0,0.0,0.0,0.0,0.0,0.0,0.0,0.0,0.0,0.0,0.0,0.0,0.0,0.0,0.0,0.0,0.0,0.0,0.0,0.0,0.0,0.0,0.0,0.0,0.0,0.0,0.0,0.0,0.0,0.0,0.0,0.0,0.0,0.0,0.0,0.0,0.0,0.0,0.0,0.0,0.0,0.0,0.0,0.0,0.0,0.0,0.0,0.0,0.0,0.0,0.0,0.0,0.0,0.0,0.0,0.0,0.0,0.0,0.0,0.0,0.0,0.0,0.0,0.0,0.0,0.0,0.0,0.0,0.0,0.0,0.0,0.0,0.0,0.0,0.0,0.0,0.0,0.0,0.0,0.0,0.0,0.0,0.0,0.0,0.0,0.0,0.0,0.0,0.0,0.0,0.0,0.0,0.0,0.0,0.0,0.0,0.0,0.0,0.0,0.0,0.0,0.0,0.0,0.0,0.0,0.0,0.0,0.0,0.0,0.0,0.0,0.0,0.0,0.0,0.0,0.0,0.0,0.0,0.0,0.0,0.0,0.0,0.0,0.0,0.0,0.0,0.0,0.0,0.0,0.0,0.0,0.0,0.0,0.0,0.0,0.0,0.0,0.0,0.0,0.0,0.0,0.0,0.0,0.0,0.0,0.0,0.0,0.0,0.0,0.0,0.0,0.0,0.0,0.0,0.0,0.0,0.0,0.0,0.0,0.0,0.0,0.0,0.0,0.0,0.0,0.0,0.0,0.0,0.0,0.0,0.0,0.0,0.0,0.0,0.0,0.0,0.0,0.0,0.0,0.0,0.0,0.0,0.0,0.0,0.0,0.0,0.0,0.0,0.0,0.0,0.0,0.0,0.0,0.0,0.0,0.0,0.0,0.0,0.0,0.0,0.0,0.0,0.0,0.0,0.0,0.0,0.0,0.0,0.0,0.0,0.0,0.0,0.0,0.0,0.0,0.0,0.0,0.0,0.0,0.0,0.0,0.0,0.0,0.0,0.0,0.0,0.0,0.0,0.0,0.0,0.0,0.0,0.0,0.0,0.0,0.0,0.0,0.0,0.0,0.0,0.0,0.0,0.0,0.0,0.0,0.0,0.0,0.0,0.0,0.0,0.0,0.0,0.0,0.0,0.0,0.0,0.0,0.0,0.0,0.0,0.0,0.0,0.0,0.0,0.0,0.0,0.0,0.0,0.0,0.0,0.0,0.0,0.0,0.0,0.0,0.0,0.0,0.0,0.0,0.0,0.0,0.0,0.0,0.0,0.0,0.0,0.0,0.0,0.0,0.0,0.0,0.0,0.0,0.0,0.0,0.0,0.0,0.0,0.0,0.0,0.0,0.0,0.0,0.0,0.0,0.0,0.0,0.0,0.0,0.0,0.0,0.0,0.0,0.0,0.0,0.0,0.0,0.0,0.0,0.0,0.0,0.0,0.0,0.0,0.0,0.0,0.0,0.0,0.0,0.0,0.0,0.0,0.0,0.0,0.0,0.0,0.0,0.0,0.0,0.0,0.0,0.0,0.0,0.0,0.0,0.0,0.0,0.0,0.0,0.0,0.0,0.0,0.0,0.0,0.0,0.0,0.0,0.0,0.0,0.0,0.0,0.0,0.0,0.0,0.0,0.0,0.0,0.0,0.0,0.0,0.0,0.0,0.0,0.0,0.0,0.0,0.0,0.0,0.0,0.0,0.0,0.0,0.0,0.0,0.0,0.0,0.0,0.0,0.0,0.0,0.0,0.0,0.0,0.0,0.0,0.0,0.0,0.0,0.0,0.0,0.0,0.0,0.0,0.0,0.0,0.0,0.0,0.0,0.0,0.0,0.0,0.0,0.0,0.0,0.0,0.0,0.0,0.0,0.0,0.0,0.0,0.0,0.0,0.0,0.0,0.0,0.0,0.0,0.0,0.0,0.0,0.0,0.0,0.0,0.0,0.0,0.0,0.0,0.0,0.0,0.0,0.0,0.0,0.0,0.0,0.0,0.0,0.0,0.0,0.0,0.0,0.0,0.0,0.0,0.0,0.0,0.0,0.0,0.0,0.0,0.0,0.0,0.0,0.0,0.0,0.0,0.0,0.0,0.0,0.0,0.0,0.0,0.0,0.0,0.0,0.0,0.0,0.0,0.0,0.0,0.0,0.0,0.0,0.0,0.0,0.0,0.0,0.0,0.0,0.0,0.0,0.0,0.0,0.0,0.0,0.0,0.0,0.0,0.0,0.0,0.0,0.0,0.0,0.0,0.0,0.0,0.0,0.0,0.0,0.0,0.0,0.0,0.0,0.0,0.0,0.0,0.0,0.0,0.0,0.0,0.0,0.0,0.0,0.0,0.0,0.0,0.0,0.0,0.0,0.0,0.0,0.0,0.0,0.0,0.0,0.0,0.0,0.0,0.0,0.0,0.0,0.0,0.0,0.0,0.0,0.0,0.0,0.0,0.0,0.0,0.0,0.0,0.0,0.0,0.0,0.0,0.0,0.0,0.0,0.0,0.0,0.0,0.0,0.0,0.0,0.0,0.0,0.0,0.0,0.0,0.0,0.0,0.0,0.0,0.0,0.0,0.0,0.0,0.0,0.0,0.0,0.0,0.0,0.0,0.0,0.0,0.0,0.0,0.0,0.0,0.0,0.0,0.0,0.0,0.0,0.0,0.0,0.0,0.0,0.0,0.0,0.0,0.0,0.0,0.0,0.0,0.0,0.0,0.0,0.0,0.0,0.0,0.0,0.0,0.0,0.0,0.0,0.0,0.0,0.0,0.0,0.0,0.0,0.0,0.0,0.0,0.0,0.0,0.0,0.0,0.0,0.0,0.0,0.0,0.0,0.0,0.0,0.0,0.0,0.0,0.0,0.0,0.0,0.0,0.0,0.0,0.0,0.0,0.0,0.0,0.0,0.0,0.0,0.0,0.0,0.0,0.0,0.0,0.0,0.0,0.0,0.0,0.0,0.0,0.0,0.0,0.0,0.0,0.0,0.0,0.0,0.0,0.0,0.0,0.0,0.0,0.0,0.0,0.0,0.0,0.0,0.0,0.0,0.0,0.0,0.0,0.0,0.0,0.0,0.0,0.0,0.0,0.0,0.0,0.0,0.0,0.0,0.0,0.0,0.0,0.0,0.0,0.0,0.0,0.0,0.0,0.0,0.0,0.0,0.0,0.0,0.0,0.0,0.0,0.0,0.0,0.0,0.0,0.0,0.0,0.0,0.0,0.0,0.0,0.0,0.0,0.0,0.0,0.0,0.0,0.0,0.0,0.0,0.0,0.0,0.0,0.0,0.0,0.0,0.0,0.0,0.0,0.0,0.0,0.0,0.0,0.0,0.0,0.0,0.0,0.0,0.0,0.0,0.0,0.0,0.0,-1.527,0.0,0.0,0.0,0.0,0.0,0.0,0.0,0.0,0.0,0.0,0.0,0.0,0.0,0.0,0.0,0.0,0.0,0.0,0.0,0.0,0.0,0.0,0.0,0.0,0.0,0.0,0.0,0.0,0.0,0.0,0.0,0.0,0.0,0.0,0.0,0.0,0.0,0.0,0.0,0.0,0.0,0.0,0.0,0.0,0.0,0.0,0.0,0.0,0.0,0.0,0.0,0.0,0.0,0.0,0.0,0.0,0.0,0.0,0.0,0.0,0.0,0.0,0.0,0.0,0.0,0.0,0.0,0.0,0.0,0.0,0.0,0.0,0.0,0.0,0.0,0.0,0.0,0.0,0.0,0.0,0.0,0.0,0.0,0.0,0.0,0.0,0.0,0.0,0.0,0.0,0.0,0.0,0.0,0.0,0.0,0.0,0.0,0.0,0.0,0.0,0.0,0.0,0.0,0.0,0.0,0.0,0.0,0.0,0.0,0.0,-1.528,-1.5284,-1.5284,-1.5288,-1.5288,0.0,0.0,0.0,0.0,0.0,0.0,0.0,0.0,0.0,0.0,0.0,0.0,0.0,0.0,0.0,0.0,0.0,0.0,0.0,0.0,0.0,0.0,0.0,0.0,0.0,0.0,0.0,0.0,0.0,0.0,0.0,0.0,0.0,0.0,0.0,0.0,0.0,0.0,0.0,0.0,0.0,0.0,0.0,0.0,0.0,0.0,0.0,0.0,0.0,0.0,0.0,0.0,0.0,0.0,0.0,0.0,0.0,0.0,0.0,0.0,0.0,0.0,0.0,0.0,0.0,0.0,0.0,0.0,0.0,0.0,0.0,0.0,0.0,0.0,0.0,0.0,0.0,0.0,0.0,0.0,0.0,0.0,0.0,0.0,0.0,0.0,0.0,0.0,0.0,0.0,0.0,0.0,0.0,0.0,0.0,0.0,0.0,0.0,0.0,0.0,0.0,0.0,0.0,0.0,0.0,0.0,0.0,0.0,0.0,0.0,0.0,0.0,-1.532,-1.5323,-1.5326,0.0,0.0,0.0,0.0,0.0,0.0,0.0,0.0,0.0,0.0,0.0,0.0,0.0,0.0,0.0,0.0,0.0,0.0,0.0,0.0,0.0,0.0,0.0,0.0,0.0,0.0,0.0,0.0,0.0,0.0,0.0,0.0,0.0,0.0,0.0,0.0,0.0,0.0,0.0,0.0,0.0,0.0,0.0,0.0,0.0,0.0,0.0,0.0,0.0,0.0,0.0,0.0,0.0,0.0,0.0,0.0,0.0,0.0,0.0,0.0,0.0,0.0,0.0,0.0,0.0,0.0,0.0,0.0,0.0,0.0,0.0,0.0,0.0,0.0,0.0,0.0,0.0,0.0,0.0,0.0,0.0,0.0,0.0,0.0,0.0,0.0,0.0,0.0,0.0,0.0,0.0,0.0,0.0,0.0,0.0,0.0,0.0,0.0,0.0,0.0,0.0,0.0,0.0,0.0,0.0,0.0,0.0,0.0,0.0,0.0,-1.5387,-1.5387,-1.5379,0.0,-1.5387,0.0,0.0,0.0,0.0,0.0,0.0,0.0,0.0,0.0,0.0,0.0,0.0,0.0,0.0,0.0,0.0,0.0,0.0,0.0,0.0,0.0,0.0,0.0,0.0,0.0,0.0,0.0,0.0,0.0,0.0,0.0,0.0,0.0,0.0,0.0,0.0,0.0,0.0,0.0,0.0,0.0,0.0,0.0,0.0,0.0,0.0,0.0,0.0,0.0,0.0,0.0,0.0,0.0,0.0,0.0,0.0,0.0,0.0,0.0,0.0,0.0,0.0,0.0,0.0,0.0,0.0,0.0,0.0,0.0,0.0,0.0,0.0,0.0,0.0,0.0,0.0,0.0,0.0,0.0,0.0,0.0,0.0,0.0,0.0,0.0,0.0,0.0,0.0,0.0,0.0,0.0,0.0,0.0,0.0,0.0,0.0,0.0,0.0,0.0,0.0,0.0,0.0,0.0,0.0,0.0,0.0,0.0,0.0,0.0,0.0,-1.5418,-1.5418,-1.5407,-1.5415,0.0,0.0,0.0,0.0,0.0,0.0,0.0,0.0,0.0,0.0,0.0,0.0,0.0,0.0,0.0,0.0,0.0,0.0,0.0,0.0,0.0,0.0,0.0,0.0,0.0,0.0,0.0,0.0,0.0,0.0,0.0,0.0,0.0,0.0,0.0,0.0,0.0,0.0,0.0,0.0,0.0,0.0,0.0,0.0,0.0,0.0,0.0,0.0,0.0,0.0,0.0,0.0,0.0,0.0,0.0,0.0,0.0,0.0,0.0,0.0,0.0,0.0,0.0,0.0,0.0,0.0,0.0,0.0,0.0,0.0,0.0,0.0,0.0,0.0,0.0,0.0,0.0,0.0,0.0,0.0,0.0,0.0,0.0,0.0,0.0,0.0,0.0,0.0,0.0,0.0,0.0,0.0,0.0,0.0,0.0,0.0,0.0,0.0,0.0,0.0,0.0,0.0,0.0,0.0,0.0,0.0,0.0,0.0,0.0,0.0,-1.5761,-1.5765,-1.5729,-1.5522,-1.541,-1.5409,0.0,0.0,0.0,0.0,0.0,0.0,0.0,0.0,0.0,0.0,0.0,0.0,0.0,0.0,0.0,0.0,0.0,0.0,0.0,0.0,0.0,0.0,0.0,0.0,0.0,0.0,0.0,0.0,0.0,0.0,0.0,0.0,0.0,0.0,0.0,0.0,0.0,0.0,0.0,0.0,0.0,0.0,0.0,0.0,0.0,0.0,0.0,0.0,0.0,0.0,0.0,0.0,0.0,0.0,0.0,0.0,0.0,0.0,0.0,0.0,0.0,0.0,0.0,0.0,0.0,0.0,0.0,0.0,0.0,0.0,0.0,0.0,0.0,0.0,0.0,0.0,0.0,0.0,0.0,0.0,0.0,0.0,0.0,0.0,0.0,0.0,0.0,0.0,0.0,0.0,0.0,0.0,0.0,0.0,0.0,0.0,0.0,0.0,0.0,0.0,0.0,0.0,0.0,0.0,0.0,0.0,0.0,0.0,-1.6605,-1.663,-1.6656,-1.6621,-1.584,-1.5428,0.0,0.0,0.0,0.0,0.0,0.0,0.0,0.0,0.0,0.0,0.0,0.0,0.0,0.0,0.0,0.0,0.0,0.0,0.0,0.0,0.0,0.0,0.0,0.0,0.0,0.0,0.0,0.0,0.0,0.0,0.0,0.0,0.0,0.0,0.0,0.0,0.0,0.0,0.0,0.0,0.0,0.0,0.0,0.0,0.0,0.0,0.0,0.0,0.0,0.0,0.0,0.0,0.0,0.0,0.0,0.0,0.0,0.0,0.0,0.0,0.0,0.0,0.0,0.0,0.0,0.0,0.0,0.0,0.0,0.0,0.0,0.0,0.0,0.0,0.0,0.0,0.0,0.0,0.0,0.0,0.0,0.0,0.0,0.0,0.0,0.0,0.0,0.0,0.0,0.0,0.0,0.0,0.0,0.0,0.0,0.0,0.0,0.0,0.0,0.0,0.0,0.0,0.0,0.0,0.0,0.0,0.0,0.0,0.0,-1.7509,-1.7517,-1.7539,-1.7514,-1.7218,-1.7057,0.0,0.0,0.0,0.0,0.0,0.0,0.0,0.0,0.0,0.0,0.0,0.0,0.0,0.0,0.0,0.0,0.0,0.0,0.0,0.0,0.0,0.0,0.0,0.0,0.0,0.0,0.0,0.0,0.0,0.0,0.0,0.0,0.0,0.0,0.0,0.0,0.0,0.0,0.0,0.0,0.0,0.0,0.0,0.0,0.0,0.0,0.0,0.0,0.0,0.0,0.0,0.0,0.0,0.0,0.0,0.0,0.0,0.0,0.0,0.0,0.0,0.0,0.0,0.0,0.0,0.0,0.0,0.0,0.0,0.0,0.0,0.0,0.0,0.0,0.0,0.0,0.0,0.0,0.0,0.0,0.0,0.0,0.0,0.0,0.0,0.0,0.0,0.0,0.0,0.0,0.0,0.0,0.0,0.0,0.0,0.0,0.0,0.0,0.0,0.0,0.0,0.0,0.0,0.0,0.0,0.0,0.0,0.0,0.0,-1.8414,0.0,-1.8432,-1.8402,-1.8141,-1.8,0.0,0.0,0.0,0.0,0.0,0.0,0.0,0.0,0.0,0.0,0.0,0.0,0.0,0.0,0.0,0.0,0.0,0.0,0.0,0.0,0.0,0.0,0.0,0.0,0.0,0.0,0.0,0.0,0.0,0.0,0.0,0.0,0.0,0.0,0.0,0.0,0.0,0.0,0.0,0.0,0.0,0.0,0.0,0.0,0.0,0.0,0.0,0.0,0.0,0.0,0.0,0.0,0.0,0.0,0.0,0.0,0.0,0.0,0.0,0.0,0.0,0.0,0.0,0.0,0.0,0.0,0.0,0.0,0.0,0.0,0.0,0.0,0.0,0.0,0.0,0.0,0.0,0.0,0.0,0.0,0.0,0.0,0.0,0.0,0.0,0.0,0.0,0.0,0.0,0.0,0.0,0.0,0.0,0.0,0.0,0.0,0.0,0.0,0.0,0.0,0.0,0.0,0.0,0.0,0.0,0.0,0.0,0.0,-1.8451,-1.9258,-1.931,-1.9301,-1.9294,-1.8525,-1.8069,0.0,0.0,0.0,0.0,0.0,0.0,0.0,0.0,0.0,0.0,0.0,0.0,0.0,0.0,0.0,0.0,0.0,0.0,0.0,0.0,0.0,0.0,0.0,0.0,0.0,0.0,0.0,0.0,0.0,0.0,0.0,0.0,0.0,0.0,0.0,0.0,0.0,0.0,0.0,0.0,0.0,0.0,0.0,0.0,0.0,0.0,0.0,0.0,0.0,0.0,0.0,0.0,0.0,0.0,0.0,0.0,0.0,0.0,0.0,0.0,0.0,0.0,0.0,0.0,0.0,0.0,0.0,0.0,0.0,0.0,0.0,0.0,0.0,0.0,0.0,0.0,0.0,0.0,0.0,0.0,0.0,0.0,0.0,0.0,0.0,0.0,0.0,0.0,0.0,0.0,0.0,0.0,0.0,0.0,0.0,0.0,0.0,0.0,0.0,0.0,0.0,0.0,0.0,0.0,0.0,0.0,0.0,0.0,0.0,-2.0188,-2.0201,-2.0172,-2.0126,-1.9862,-1.9714,0.0,0.0,0.0,0.0,0.0,0.0,0.0,0.0,0.0,0.0,0.0,0.0,0.0,0.0,0.0,0.0,0.0,0.0,0.0,0.0,0.0,0.0,0.0,0.0,0.0,0.0,0.0,0.0,0.0,0.0,0.0,0.0,0.0,0.0,0.0,0.0,0.0,0.0,0.0,0.0,0.0,0.0,0.0,0.0,0.0,0.0,0.0,0.0,0.0,0.0,0.0,0.0,0.0,0.0,0.0,0.0,0.0,0.0,0.0,0.0,0.0,0.0,0.0,0.0,0.0,0.0,0.0,0.0,0.0,0.0,0.0,0.0,0.0,0.0,0.0,0.0,0.0,0.0,0.0,0.0,0.0,0.0,0.0,0.0,0.0,0.0,0.0,0.0,0.0,0.0,0.0,0.0,0.0,0.0,0.0,0.0,0.0,0.0,0.0,0.0,0.0,0.0,0.0,0.0,0.0,0.0,0.0,0.0,0.0,-2.0609,-2.0603,-2.0577,-2.0509,-2.0516,-2.0476,-2.0452,0.0,0.0,0.0,0.0,0.0,0.0,0.0,0.0,0.0,0.0,0.0,0.0,0.0,0.0,0.0,0.0,0.0,0.0,0.0,0.0,0.0,0.0,0.0,0.0,0.0,0.0,0.0,0.0,0.0,0.0,0.0,0.0,0.0,0.0,0.0,0.0,0.0,0.0,0.0,0.0,0.0,0.0,0.0,0.0,0.0,0.0,0.0,0.0,0.0,0.0,0.0,0.0,0.0,0.0,0.0,0.0,0.0,0.0,0.0,0.0,0.0,0.0,0.0,0.0,0.0,0.0,0.0,0.0,0.0,0.0,0.0,0.0,0.0,0.0,0.0,0.0,0.0,0.0,0.0,0.0,0.0,0.0,0.0,0.0,0.0,0.0,0.0,0.0,0.0,0.0,0.0,0.0,0.0,0.0,0.0,0.0,0.0,0.0,0.0,0.0,0.0,0.0,0.0,0.0,0.0,0.0,0.0,0.0,-2.0599,-2.0599,-2.0572,-2.0516,-2.0519,-2.0467,0.0,0.0,0.0,0.0,0.0,0.0,0.0,0.0,0.0,0.0,0.0,0.0,0.0,0.0,0.0,0.0,0.0,0.0,0.0,0.0,0.0,0.0,0.0,0.0,0.0,0.0,0.0,0.0,0.0,0.0,0.0,0.0,0.0,0.0,0.0,0.0,0.0,0.0,0.0,0.0,0.0,0.0,0.0,0.0,0.0,0.0,0.0,0.0,0.0,0.0,0.0,0.0,0.0,0.0,0.0,0.0,0.0,0.0,0.0,0.0,0.0,0.0,0.0,0.0,0.0,0.0,0.0,0.0,0.0,0.0,0.0,0.0,0.0,0.0,0.0,0.0,0.0,0.0,0.0,0.0,0.0,0.0,0.0,0.0,0.0,0.0,0.0,0.0,0.0,0.0,0.0,0.0,0.0,0.0,0.0,0.0,0.0,0.0,0.0,0.0,0.0,0.0,0.0,0.0,0.0,0.0,0.0,0.0,0.0,-2.0531,-2.0528,-2.0516,-2.0515,-2.0511,-2.0478,0.0,0.0,0.0,0.0,0.0,0.0,0.0,0.0,0.0,0.0,0.0,0.0,0.0,0.0,0.0,0.0,0.0,0.0,0.0,0.0,0.0,0.0,0.0,0.0,0.0,0.0,0.0,0.0,0.0,0.0,0.0,0.0,0.0,0.0,0.0,0.0,0.0,0.0,0.0,0.0,0.0,0.0,0.0,0.0,0.0,0.0,0.0,0.0,0.0,0.0,0.0,0.0,0.0,0.0,0.0,0.0,0.0,0.0,0.0,0.0,0.0,0.0,0.0,0.0,0.0,0.0,0.0,0.0,0.0,0.0,0.0,0.0,0.0,0.0,0.0,0.0,0.0,0.0,0.0,0.0,0.0,0.0,0.0,0.0,0.0,0.0,0.0,0.0,0.0,0.0,0.0,0.0,0.0,0.0,0.0,0.0,0.0,0.0,0.0,0.0,0.0,0.0,0.0,0.0,0.0,0.0,0.0,0.0,-2.0511,-2.0503,-2.0513,-2.0476,-2.0448,-2.0449,-2.0432,0.0,0.0,0.0,0.0,0.0,0.0,0.0,0.0,0.0,0.0,0.0,0.0,0.0,0.0,0.0,0.0,0.0,0.0,0.0,0.0,0.0,0.0,0.0,0.0,0.0,0.0,0.0,0.0,0.0,0.0,0.0,0.0,0.0,0.0,0.0,0.0,0.0,0.0,0.0,0.0,0.0,0.0,0.0,0.0,0.0,0.0,0.0,0.0,0.0,0.0,0.0,0.0,0.0,0.0,0.0,0.0,0.0,0.0,0.0,0.0,0.0,0.0,0.0,0.0,0.0,0.0,0.0,0.0,0.0,0.0,0.0,0.0,0.0,0.0,0.0,0.0,0.0,0.0,0.0,0.0,0.0,0.0,0.0,0.0,0.0,0.0,0.0,0.0,0.0,0.0,0.0,0.0,0.0,0.0,0.0,0.0,0.0,0.0,0.0,0.0,0.0,0.0,0.0,0.0,0.0,0.0,0.0,0.0,-2.0542,-2.0633,-2.0636,-2.0647,-2.0653,-2.0501,-2.0371,0.0,0.0,0.0,0.0,0.0,0.0,0.0,0.0,0.0,0.0,0.0,0.0,0.0,0.0,0.0,0.0,0.0,0.0,0.0,0.0,0.0,0.0,0.0,0.0,0.0,0.0,0.0,0.0,0.0,0.0,0.0,0.0,0.0,0.0,0.0,0.0,0.0,0.0,0.0,0.0,0.0,0.0,0.0,0.0,0.0,0.0,0.0,0.0,0.0,0.0,0.0,0.0,0.0,0.0,0.0,0.0,0.0,0.0,0.0,0.0,0.0,0.0,0.0,0.0,0.0,0.0,0.0,0.0,0.0,0.0,0.0,0.0,0.0,0.0,0.0,0.0,0.0,0.0,0.0,0.0,0.0,0.0,0.0,0.0,0.0,0.0,0.0,0.0,0.0,0.0,0.0,0.0,0.0,0.0,0.0,0.0,0.0,0.0,0.0,0.0,0.0,0.0,0.0,0.0,0.0,0.0,0.0,0.0,-2.0847,-2.15,-2.1527,-2.1813,-2.2419,-2.1111,-2.0386,0.0,0.0,0.0,0.0,0.0,0.0,0.0,0.0,0.0,0.0,0.0,0.0,0.0,0.0,0.0,0.0,0.0,0.0,0.0,0.0,0.0,0.0,0.0,0.0,0.0,0.0,0.0,0.0,0.0,0.0,0.0,0.0,0.0,0.0,0.0,0.0,0.0,0.0,0.0,0.0,0.0,0.0,0.0,0.0,0.0,0.0,0.0,0.0,-1.7811,0.0,0.0,0.0,0.0,0.0,0.0,0.0,0.0,0.0,0.0,0.0,0.0,0.0,0.0,0.0,0.0,0.0,0.0,0.0,0.0,0.0,0.0,0.0,0.0,0.0,0.0,0.0,0.0,0.0,0.0,0.0,0.0,0.0,0.0,0.0,0.0,0.0,0.0,0.0,0.0,0.0,0.0,0.0,0.0,0.0,0.0,0.0,0.0,0.0,0.0,0.0,0.0,0.0,0.0,0.0,0.0,0.0,0.0,0.0,-2.1519,-2.2388,-2.2375,-2.2567,-2.2932,-2.2081,-2.1359,0.0,0.0,0.0,0.0,0.0,0.0,0.0,0.0,0.0,0.0,0.0,0.0,0.0,0.0,0.0,0.0,0.0,0.0,0.0,0.0,0.0,0.0,0.0,0.0,0.0,0.0,0.0,0.0,0.0,0.0,0.0,0.0,0.0,0.0,0.0,0.0,0.0,0.0,0.0,0.0,0.0,0.0,0.0,0.0,0.0,0.0,0.0,0.0,0.0,0.0,0.0,0.0,0.0,0.0,0.0,0.0,0.0,0.0,0.0,0.0,0.0,0.0,0.0,0.0,0.0,0.0,0.0,0.0,0.0,0.0,0.0,0.0,0.0,0.0,0.0,0.0,0.0,0.0,0.0,0.0,0.0,0.0,0.0,0.0,0.0,0.0,0.0,0.0,0.0,0.0,0.0,0.0,0.0,0.0,0.0,0.0,0.0,0.0,0.0,0.0,0.0,0.0,0.0,0.0,0.0,0.0,0.0,-2.1792,-2.229,-2.3232,-2.3222,-2.3256,-2.3366,-2.3191,-2.2743,-2.2026,0.0,0.0,0.0,0.0,0.0,0.0,0.0,0.0,0.0,0.0,0.0,0.0,0.0,0.0,0.0,0.0,0.0,0.0,0.0,0.0,0.0,0.0,0.0,0.0,0.0,0.0,0.0,0.0,0.0,0.0,0.0,0.0,0.0,0.0,0.0,0.0,0.0,0.0,-1.8009,-1.7772,0.0,0.0,0.0,0.0,0.0,0.0,0.0,0.0,-1.7878,0.0,0.0,0.0,0.0,0.0,0.0,0.0,0.0,0.0,0.0,0.0,0.0,0.0,0.0,0.0,0.0,0.0,0.0,0.0,0.0,0.0,0.0,0.0,0.0,0.0,0.0,0.0,0.0,0.0,0.0,0.0,0.0,0.0,0.0,0.0,0.0,0.0,0.0,0.0,0.0,0.0,0.0,0.0,0.0,0.0,0.0,0.0,0.0,0.0,0.0,0.0,0.0,0.0,0.0,0.0,0.0,-2.1788,-2.1799,-2.2532,-2.4044,-2.4078,-2.4408,-2.5033,-2.4372,-2.3902,-2.3645,0.0,0.0,0.0,0.0,0.0,0.0,0.0,0.0,0.0,0.0,0.0,0.0,0.0,0.0,0.0,0.0,0.0,0.0,0.0,0.0,0.0,0.0,0.0,0.0,0.0,0.0,0.0,0.0,0.0,0.0,0.0,0.0,0.0,0.0,0.0,0.0,0.0,0.0,0.0,-1.7772,-1.7606,0.0,0.0,0.0,0.0,0.0,0.0,0.0,0.0,-1.8005,0.0,0.0,0.0,0.0,0.0,0.0,0.0,0.0,0.0,0.0,0.0,0.0,0.0,0.0,0.0,0.0,0.0,0.0,0.0,0.0,0.0,0.0,0.0,0.0,0.0,0.0,0.0,0.0,0.0,0.0,0.0,0.0,0.0,0.0,0.0,0.0,0.0,0.0,0.0,0.0,0.0,0.0,0.0,0.0,0.0,0.0,0.0,0.0,0.0,0.0,0.0,0.0,0.0,0.0,0.0,-2.2442,-2.2921,-2.3755,-2.4924,-2.4992,-2.5141,-2.5479,-2.5096,-2.4645,0.0,0.0,0.0,0.0,0.0,0.0,0.0,0.0,0.0,0.0,0.0,0.0,0.0,0.0,0.0,0.0,0.0,0.0,0.0,0.0,0.0,0.0,0.0,0.0,0.0,0.0,0.0,0.0,0.0,0.0,0.0,0.0,0.0,0.0,0.0,0.0,0.0,0.0,0.0,0.0,-1.7755,-1.7606,-1.7599,0.0,0.0,0.0,0.0,0.0,0.0,-1.7856,-1.8,0.0,0.0,0.0,0.0,0.0,0.0,0.0,0.0,0.0,0.0,0.0,0.0,0.0,0.0,0.0,0.0,0.0,0.0,0.0,0.0,0.0,0.0,0.0,0.0,0.0,0.0,0.0,0.0,0.0,0.0,0.0,0.0,0.0,0.0,0.0,0.0,0.0,0.0,0.0,0.0,0.0,0.0,0.0,0.0,0.0,0.0,0.0,0.0,0.0,0.0,0.0,0.0,0.0,0.0,0.0,-2.3333,-2.4023,-2.4787,-2.5552,-2.5595,-2.5568,-2.5525,-2.5517,-2.5136,0.0,0.0,0.0,0.0,0.0,0.0,0.0,0.0,0.0,0.0,0.0,0.0,0.0,0.0,0.0,0.0,0.0,0.0,0.0,0.0,0.0,0.0,0.0,0.0,0.0,0.0,0.0,0.0,0.0,0.0,0.0,0.0,0.0,0.0,0.0,0.0,0.0,0.0,0.0,0.0,0.0,-1.7612,-1.7622,-1.7552,0.0,0.0,0.0,0.0,-1.7687,-1.7895,0.0,0.0,0.0,0.0,0.0,0.0,0.0,0.0,0.0,0.0,0.0,0.0,0.0,0.0,0.0,0.0,0.0,0.0,0.0,0.0,0.0,0.0,0.0,0.0,0.0,0.0,0.0,0.0,0.0,0.0,0.0,0.0,0.0,0.0,0.0,0.0,0.0,0.0,0.0,0.0,0.0,0.0,0.0,0.0,0.0,0.0,0.0,0.0,0.0,0.0,0.0,0.0,0.0,0.0,0.0,0.0,-2.4131,-2.4304,-2.4795,-2.5565,-2.561,-2.5609,-2.5595,-2.5543,-2.5422,0.0,0.0,0.0,0.0,0.0,0.0,0.0,0.0,0.0,0.0,0.0,0.0,0.0,0.0,0.0,0.0,0.0,0.0,0.0,0.0,0.0,0.0,0.0,0.0,0.0,0.0,0.0,0.0,0.0,0.0,0.0,0.0,0.0,0.0,0.0,0.0,0.0,0.0,0.0,0.0,0.0,-1.7704,-1.7675,-1.7629,-1.7606,0.0,0.0,-1.7726,-1.7789,-1.79,0.0,0.0,0.0,0.0,0.0,0.0,0.0,0.0,0.0,0.0,0.0,0.0,0.0,0.0,0.0,0.0,0.0,0.0,0.0,0.0,0.0,0.0,0.0,0.0,0.0,0.0,0.0,0.0,0.0,0.0,0.0,0.0,0.0,0.0,0.0,0.0,0.0,0.0,0.0,0.0,0.0,0.0,0.0,0.0,0.0,0.0,0.0,0.0,0.0,0.0,0.0,0.0,0.0,0.0,0.0,-2.3951,-2.4287,-2.4849,-2.5305,-2.5585,-2.56,-2.56,-2.5601,-2.5577,-2.5543,0.0,0.0,0.0,0.0,0.0,0.0,0.0,0.0,0.0,0.0,0.0,0.0,0.0,0.0,0.0,0.0,0.0,0.0,0.0,0.0,0.0,0.0,0.0,0.0,0.0,0.0,0.0,0.0,0.0,0.0,0.0,0.0,0.0,0.0,0.0,0.0,0.0,0.0,0.0,0.0,0.0,0.0,-1.8272,-1.8265,0.0,0.0,0.0,-1.908,-1.9144,0.0,0.0,0.0,0.0,0.0,0.0,0.0,0.0,0.0,0.0,0.0,0.0,0.0,0.0,0.0,0.0,0.0,0.0,0.0,0.0,0.0,0.0,0.0,0.0,0.0,0.0,0.0,0.0,0.0,0.0,0.0,0.0,0.0,0.0,0.0,0.0,0.0,0.0,0.0,0.0,0.0,0.0,0.0,0.0,0.0,0.0,0.0,0.0,0.0,0.0,0.0,0.0,0.0,0.0,0.0,0.0,0.0,-2.4637,-2.534,-2.566,-2.5628,-2.5628,-2.5615,-2.5599,-2.5607,0.0,0.0,0.0,0.0,0.0,0.0,0.0,0.0,0.0,0.0,0.0,0.0,0.0,0.0,0.0,0.0,0.0,0.0,0.0,0.0,0.0,0.0,0.0,0.0,0.0,0.0,0.0,-1.9497,0.0,0.0,0.0,0.0,0.0,0.0,0.0,0.0,0.0,0.0,0.0,0.0,0.0,0.0,-1.8606,-1.9117,-1.9117,-1.9335,0.0,0.0,-2.0178,-2.0235,-2.0374,-2.0453,0.0,0.0,0.0,0.0,0.0,0.0,0.0,0.0,0.0,0.0,0.0,0.0,0.0,0.0,0.0,0.0,0.0,0.0,0.0,0.0,0.0,0.0,0.0,0.0,0.0,0.0,0.0,0.0,0.0,0.0,0.0,0.0,0.0,0.0,0.0,0.0,0.0,0.0,0.0,0.0,0.0,0.0,0.0,0.0,0.0,0.0,0.0,0.0,0.0,0.0,0.0,0.0,0.0,0.0,-2.5498,-2.5526,-2.5644,-2.5707,-2.5699,-2.5699,-2.5671,-2.56,-2.5604,-2.557,0.0,0.0,0.0,0.0,0.0,0.0,0.0,0.0,0.0,0.0,0.0,0.0,0.0,0.0,0.0,0.0,0.0,0.0,0.0,0.0,0.0,0.0,0.0,0.0,0.0,0.0,0.0,0.0,0.0,0.0,0.0,0.0,0.0,0.0,0.0,0.0,0.0,0.0,0.0,0.0,0.0,-2.0123,-2.0191,-2.0191,-2.0226,0.0,-2.0277,-2.0326,-2.047,-2.0494,-2.0506,-2.0582,0.0,0.0,0.0,0.0,0.0,0.0,0.0,0.0,0.0,0.0,0.0,0.0,0.0,0.0,0.0,0.0,0.0,0.0,0.0,0.0,0.0,0.0,0.0,0.0,0.0,0.0,0.0,0.0,0.0,0.0,0.0,0.0,0.0,0.0,0.0,0.0,0.0,0.0,0.0,0.0,0.0,0.0,0.0,0.0,0.0,0.0,0.0,0.0,0.0,0.0,0.0,0.0,0.0,-2.5624,-2.5671,-2.5707,-2.5694,-2.5697,-2.5697,-2.5691,-2.5675,-2.5658,-2.5634,0.0,0.0,0.0,0.0,0.0,0.0,0.0,0.0,0.0,0.0,0.0,0.0,0.0,0.0,0.0,0.0,0.0,0.0,0.0,0.0,0.0,0.0,0.0,0.0,0.0,0.0,0.0,0.0,-1.9387,-1.9261,-1.9153,0.0,0.0,0.0,0.0,0.0,0.0,0.0,0.0,0.0,0.0,-2.0625,-2.1066,-2.1118,0.0,0.0,-2.1824,-2.1849,-2.19,-2.2,-2.2056,-2.2129,-2.2224,0.0,0.0,0.0,0.0,0.0,0.0,0.0,0.0,0.0,0.0,0.0,0.0,0.0,0.0,0.0,0.0,0.0,0.0,0.0,0.0,0.0,0.0,0.0,0.0,0.0,0.0,0.0,0.0,0.0,0.0,0.0,0.0,0.0,0.0,0.0,0.0,0.0,0.0,0.0,0.0,0.0,0.0,0.0,0.0,0.0,0.0,0.0,0.0,0.0,0.0,0.0,0.0,-2.5632,-2.5703,-2.5694,-2.5704,-2.569,-2.5693,-2.5704,-2.5691,-2.5703,-2.5663,0.0,0.0,0.0,0.0,0.0,0.0,0.0,0.0,0.0,0.0,0.0,0.0,0.0,0.0,0.0,0.0,0.0,0.0,0.0,0.0,0.0,0.0,0.0,0.0,0.0,0.0,0.0,0.0,-1.9589,-1.9719,-1.9878,0.0,0.0,0.0,0.0,0.0,0.0,0.0,0.0,0.0,0.0,-2.1485,-2.1982,-2.2044,-2.2218,-2.2747,-2.285,-2.2919,-2.2919,-2.302,-2.3119,-2.3193,0.0,0.0,0.0,0.0,0.0,0.0,0.0,0.0,0.0,0.0,0.0,0.0,0.0,0.0,0.0,0.0,0.0,0.0,0.0,0.0,0.0,0.0,0.0,0.0,0.0,0.0,0.0,-2.0425,0.0,0.0,-2.0508,0.0,0.0,0.0,0.0,0.0,0.0,0.0,0.0,0.0,0.0,0.0,0.0,0.0,0.0,0.0,0.0,0.0,0.0,0.0,0.0,0.0,0.0,-2.5703,-2.5694,-2.569,-2.5696,-2.569,-2.5696,-2.5696,-2.569,-2.5691,-2.5671,-2.5605,0.0,0.0,0.0,0.0,0.0,0.0,0.0,0.0,0.0,0.0,0.0,0.0,0.0,0.0,0.0,0.0,0.0,0.0,0.0,0.0,0.0,0.0,0.0,0.0,0.0,0.0,-1.9573,-2.0086,-2.0813,0.0,0.0,0.0,0.0,0.0,0.0,0.0,0.0,0.0,0.0,-2.3042,-2.2968,-2.3042,-2.301,-2.2968,-2.3095,-2.3077,-2.3102,-2.3175,-2.3241,-2.3313,0.0,0.0,0.0,0.0,0.0,0.0,0.0,0.0,0.0,0.0,0.0,0.0,0.0,0.0,0.0,0.0,0.0,0.0,0.0,0.0,0.0,0.0,0.0,0.0,0.0,0.0,0.0,-2.1007,-2.0527,0.0,0.0,0.0,0.0,0.0,0.0,0.0,0.0,0.0,0.0,0.0,-2.3825,-2.3834,0.0,0.0,0.0,0.0,0.0,0.0,0.0,0.0,0.0,0.0,0.0,0.0,-2.5704,-2.569,-2.5696,-2.5698,-2.5703,-2.5705,-2.5703,-2.5703,-2.5693,-2.5671,-2.561,0.0,0.0,0.0,0.0,0.0,0.0,0.0,0.0,0.0,0.0,0.0,0.0,0.0,0.0,0.0,0.0,0.0,0.0,0.0,0.0,0.0,0.0,0.0,0.0,0.0,-2.1231,0.0,0.0,0.0,0.0,0.0,0.0,0.0,0.0,0.0,0.0,0.0,-2.3163,-2.3319,-2.3289,-2.3283,-2.3289,-2.3271,-2.3289,0.0,0.0,0.0,0.0,0.0,0.0,0.0,0.0,0.0,0.0,0.0,0.0,0.0,0.0,-2.3915,-2.3876,-2.3955,-2.4036,-2.4151,0.0,0.0,0.0,0.0,0.0,0.0,0.0,0.0,0.0,0.0,0.0,0.0,0.0,0.0,-2.1804,0.0,-2.1355,0.0,0.0,0.0,0.0,0.0,0.0,0.0,0.0,-2.3862,-2.43,-2.4775,-2.4782,-2.5095,0.0,-2.5644,-2.5615,0.0,0.0,0.0,0.0,0.0,0.0,0.0,0.0,-2.5693,-2.5698,-2.5698,-2.5703,-2.5693,-2.5693,-2.5691,-2.5687,-2.5701,-2.5662,-2.5595,-2.5537,-2.5471,0.0,0.0,0.0,0.0,0.0,0.0,0.0,0.0,0.0,0.0,0.0,0.0,0.0,0.0,0.0,0.0,0.0,0.0,0.0,0.0,0.0,0.0,0.0,-2.2208,0.0,0.0,0.0,0.0,0.0,0.0,0.0,0.0,0.0,-2.3721,-2.3696,-2.3629,-2.3544,-2.3517,-2.3494,-2.3499,0.0,0.0,0.0,0.0,0.0,0.0,0.0,-2.4222,-2.4496,-2.4639,-2.4614,-2.4324,-2.4312,-2.4283,-2.4051,0.0,0.0,-2.3996,-2.4074,-2.4133,-2.419,-2.4229,-2.4303,-2.4412,-2.4464,-2.4497,0.0,0.0,0.0,0.0,0.0,0.0,0.0,0.0,-2.2827,-2.2844,0.0,-2.2887,0.0,0.0,0.0,0.0,-2.3257,-2.4062,0.0,0.0,-2.5273,-2.5696,-2.569,-2.5675,-2.5695,-2.5693,-2.5697,-2.5706,-2.5703,-2.5644,0.0,0.0,0.0,0.0,0.0,0.0,-2.5696,-2.5698,-2.5705,-2.5693,-2.57,-2.57,-2.5697,-2.5687,-2.5701,-2.5662,-2.5609,-2.5535,-2.5479,-2.5414,-2.534,0.0,0.0,0.0,0.0,0.0,0.0,0.0,0.0,0.0,0.0,0.0,0.0,0.0,0.0,0.0,0.0,0.0,0.0,0.0,0.0,-2.2185,0.0,0.0,0.0,0.0,0.0,0.0,0.0,0.0,0.0,0.0,-2.3937,-2.3852,-2.3804,-2.3786,0.0,0.0,0.0,0.0,-2.3833,-2.3894,-2.3904,-2.4179,-2.494,-2.511,-2.5408,-2.6154,0.0,0.0,-2.5382,-2.5254,-2.5017,-2.4253,-2.4278,-2.4263,-2.4241,-2.4244,-2.4209,-2.421,-2.4303,-2.443,-2.4482,-2.4497,-2.4547,-2.5595,0.0,0.0,0.0,0.0,-2.4431,-2.4143,-2.3591,-2.3698,-2.3386,-2.2837,-2.29,0.0,0.0,0.0,0.0,0.0,0.0,-2.532,-2.5344,-2.5585,-2.5703,-2.5702,-2.5699,-2.5696,-2.5691,-2.5691,-2.5693,-2.5694,-2.5677,-2.5689,-2.5704,0.0,0.0,0.0,0.0,-2.5687,-2.5696,-2.57,-2.5702,-2.5703,-2.5703,-2.5702,-2.5698,-2.5689,-2.5696,-2.5671,-2.5615,-2.5543,-2.5478,-2.541,0.0,0.0,0.0,0.0,0.0,0.0,0.0,0.0,0.0,0.0,0.0,0.0,0.0,0.0,0.0,0.0,0.0,0.0,0.0,-2.4024,-2.402,-2.4128,0.0,0.0,0.0,0.0,0.0,0.0,0.0,0.0,0.0,-2.4266,-2.4113,-2.3974,0.0,0.0,-2.4683,-2.4704,-2.5241,-2.563,-2.5713,-2.5756,0.0,-2.6088,-2.6146,-2.6277,-2.6478,-2.6576,-2.6544,-2.6383,-2.6346,-2.6272,-2.6015,-2.6016,-2.6055,-2.5981,-2.504,-2.4377,-2.4339,-2.4393,-2.4464,-2.4497,-2.4582,-2.4685,-2.6711,-2.5618,-2.5423,-2.5192,-2.4977,-2.507,-2.4827,-2.4347,-2.4481,-2.4236,-2.3764,-2.3827,-2.4157,-2.4675,-2.4743,0.0,0.0,0.0,-2.5671,-2.5665,-2.5659,-2.5666,-2.5705,-2.5694,-2.5699,-2.57,-2.57,-2.57,-2.57,-2.605,-2.6229,-2.6208,0.0,0.0,-2.6218,-2.6556,-2.6735,-2.6738,-2.6738,-2.6737,-2.6735,-2.6737,-2.6562,-2.6229,-2.6206,-2.606,-2.5712,-2.566,-2.5605,-2.5537,-2.5485,-2.5418,0.0,0.0,0.0,0.0,0.0,0.0,0.0,0.0,0.0,0.0,0.0,-2.3724,-2.3214,0.0,0.0,0.0,-2.4501,-2.4813,-2.4817,-2.4813,0.0,0.0,0.0,0.0,0.0,0.0,0.0,-2.458,-2.4811,-2.4983,-2.4966,-2.5116,-2.5076,-2.4606,-2.5205,-2.5695,-2.5695,0.0,-2.6536,-2.6576,-2.6618,-2.6809,-2.7122,-2.7198,-2.7308,-2.7624,-2.7703,-2.7594,-2.7337,-2.732,-2.7209,-2.6949,-2.6876,-2.6877,-2.6877,-2.6042,-2.5393,-2.5412,-2.5466,-2.5518,-2.5568,-2.5656,-2.5705,-2.7733,-2.7047,-2.6369,-2.5675,-2.4998,-2.5059,-2.5042,-2.5013,-2.5125,-2.5176,-2.5182,-2.5253,-2.5332,-2.5387,-2.5449,0.0,-2.5492,-2.5568,-2.5576,-2.5593,-2.5593,-2.5624,-2.5707,-2.5765,-2.5801,-2.5804,-2.5863,-2.5921,-2.596,-2.6718,-2.7095,-2.7112,-2.7165,-2.7167,-2.7148,-2.789,-2.83,-2.828,-2.8277,-2.8291,-2.8283,-2.8293,-2.7907,-2.7128,-2.7089,-2.6714,-2.5963,-2.584,-2.5773,-2.5693,-2.5574,-2.5473,-2.541,0.0,0.0,0.0,0.0,0.0,0.0,0.0,0.0,0.0,0.0,0.0,0.0,0.0,0.0,0.0,-2.4827,0.0,-2.4827,-2.4827,0.0,0.0,0.0,-2.4832,-2.4915,-2.4896,-2.4904,-2.4901,0.0,0.0,-2.5926,-2.6617,-2.6786,-2.5854,-2.6291,-2.673,-2.6709,-2.6882,-2.6921,-2.6995,-2.6999,-2.7318,-2.8063,-2.8211,-2.8417,-2.9033,-2.9295,-2.8979,-2.8384,-2.8199,-2.7901,-2.7325,-2.7196,-2.7252,-2.7233,-2.727,-2.727,-2.714,-2.7065,-2.708,-2.7075,-2.7073,-2.7086,-2.8505,-2.7845,-2.7642,-2.684,-2.5681,-2.5786,-2.5485,-2.4945,-2.5019,-2.505,-2.5037,-2.5126,-2.5201,-2.5244,-2.5302,-2.5374,-2.5418,-2.5449,-2.5459,-2.5525,-2.5537,-2.5529,-2.5574,-2.6281,-2.6612,-2.6665,-2.7288,-2.7604,-2.7608,-2.7823,-2.7928,-2.7947,-2.859,-2.8606,-2.8018,-2.8187,-2.8293,-2.8293,-2.8288,-2.8288,-2.8291,-2.8281,-2.8209,-2.7995,-2.7985,-2.7891,-2.7672,-2.7036,-2.6666,-2.6576,-2.5941,-2.5549,-2.5478,-2.5426,0.0,0.0,0.0,0.0,0.0,0.0,0.0,0.0,0.0,-2.4798,-2.4798,0.0,-2.4903,0.0,-2.5004,-2.5031,-2.5037,-2.5018,0.0,0.0,-2.4974,-2.5219,-2.5868,-2.5863,-2.6027,-2.6688,-2.689,-2.6956,-2.694,-2.7584,-2.7979,-2.7737,-2.7734,-2.7729,-2.7747,-2.8344,-2.8755,-2.8717,-2.8739,-2.8929,-2.9078,-2.9153,-2.919,-2.9415,-2.9453,-2.9379,-2.9191,-2.9173,-2.9099,-2.8931,-2.8894,-2.8913,-2.8876,-2.8951,-2.8989,-2.8952,-2.807,-2.7187,-2.7204,-2.7255,-2.7301,-2.892,-2.8579,-2.8619,-2.7956,-2.6842,-2.6643,-2.6083,-2.5363,-2.5409,-2.5256,-2.4961,-2.5031,-2.508,-2.5115,-2.5203,-2.5264,-2.5322,-2.534,-2.5588,-2.5981,-2.6006,-2.6184,-2.6575,-2.712,-2.7401,-2.7421,-2.7906,-2.8151,-2.8176,-2.8538,-2.8724,-2.8754,-2.9599,-2.9802,-2.9401,-2.9392,-2.9414,-2.9414,-2.9409,-2.9418,-2.9409,-2.9416,-2.9247,-2.8842,-2.8854,-2.8686,-2.83,-2.7829,-2.7544,-2.7465,-2.7012,-2.6569,-2.6151,-2.6075,-2.5805,0.0,0.0,0.0,0.0,0.0,0.0,0.0,0.0,0.0,0.0,0.0,-2.4985,-2.505,-2.5089,-2.5095,-2.5101,-2.545,-2.5685,-2.5683,-2.5977,-2.6338,-2.6833,-2.683,-2.694,-2.738,-2.7736,-2.7935,-2.7883,-2.8551,-2.9024,-2.9006,-2.8914,-2.882,-2.8762,-2.9134,-2.9453,-2.9453,-2.9472,-2.9512,-2.9531,-2.9588,-2.9607,-2.9589,-2.9589,-2.9589,-2.9607,-2.9607,-2.9589,-2.9589,-2.9607,-2.9589,-2.957,-2.9626,-2.9664,-2.9606,-2.9039,-2.8472,-2.8416,-2.8412,-2.8461,-2.9062,-2.9178,-2.924,-2.8852,-2.8188,-2.7624,-2.6876,-2.6028,-2.6107,-2.5733,-2.5036,-2.4985,-2.4981,-2.5013,-2.5213,-2.5329,-2.5362,-2.5499,-2.6002,-2.6717,-2.6727,-2.7132,-2.7865,-2.8049,-2.8134,-2.815,-2.8326,-2.8419,-2.8446,-2.9186,-2.955,-2.9589,-3.0314,-3.0688,-3.0692,-3.0749,-3.0789,-3.0794,-3.0794,-3.0784,-3.0793,-3.0798,-3.0435,-2.9728,-2.9718,-2.9394,-2.8658,-2.8534,-2.8434,-2.8369,-2.8274,-2.7878,-2.7123,-2.702,-2.6605,0.0,-2.5738,0.0,0.0,0.0,0.0,0.0,0.0,0.0,0.0,-2.5209,-2.5304,-2.5438,-2.545,-2.5456,-2.5459,-2.6116,-2.6574,-2.6596,-2.7198,-2.7675,-2.7771,-2.7782,-2.7793,-2.7828,-2.8453,-2.8843,-2.8831,-2.9406,-2.9825,-2.9751,-2.9732,-2.9643,-2.957,-2.9532,-2.9551,-2.9531,-2.9531,-2.957,-2.9608,-2.9683,-2.9701,-2.9701,-2.9701,-2.9701,-2.972,-2.972,-2.972,-2.972,-2.9701,-2.9701,-2.9717,-2.9717,-2.9754,-2.9808,-2.9767,-2.9763,-2.9763,-2.9744,-2.9929,-2.8923,-2.9058,-2.9081,-2.9038,-2.8978,-2.8855,-2.8047,-2.6786,-2.6857,-2.6472,-2.5762,-2.5144,-2.4865,-2.4983,-2.5687,-2.6032,-2.613,-2.6797,-2.7217,-2.7421,-2.7477,-2.7577,-2.7785,-2.8472,-2.8865,-2.9014,-2.9699,-3.0057,-3.0036,-3.021,-3.0333,-3.0377,-3.0543,-3.0621,-3.0621,0.0,0.0,0.0,-3.0728,-3.0728,-3.0734,-3.0764,-3.0721,-3.0555,-3.0568,0.0,-3.0323,-2.9654,-2.9274,-2.9238,-2.8629,0.0,0.0,0.0,0.0,0.0,0.0,0.0,0.0,0.0,0.0,0.0,-2.729,-2.6675,-2.5265,-2.5755,-2.6447,-2.7147,-2.7242,-2.7297,-2.7278,-2.7412,-2.7539,-2.7539,-2.7692,-2.8006,-2.8619,-2.8728,-2.8976,-2.9617,-2.977,-2.9817,-2.9791,-2.9931,-2.994,-2.9891,-2.9893,-2.9842,-2.9773,-2.9718,-2.9736,-2.9736,-2.9737,-2.9736,-2.9755,-2.9773,-2.9773,-2.9773,-2.9773,-2.9773,-2.9756,-2.9774,-2.9773,-2.9774,-2.9774,-2.9773,-2.979,-2.9771,-2.9808,-2.9878,-2.9895,-2.9912,-2.9912,-2.991,-2.9907,-2.8779,-2.8858,-2.89,-2.8952,0.0,-2.9108,-2.8691,-2.8022,-2.7716,-2.7176,-2.6478,-2.6115,-2.5941,-2.601,-2.6491,-2.6722,-2.6801,-2.7247,-2.7694,-2.8132,-2.8174,-2.8444,-2.8891,-2.9379,-2.9634,-2.9713,-3.0171,-3.0417,-3.046,-3.0451,-3.0482,-3.055,-3.055,-3.055,-3.055,-3.0577,-3.061,-3.0651,-3.0651,-3.0678,-3.0698,-3.073,-3.0761,-3.0759,-3.0799,0.0,0.0,0.0,0.0,0.0,0.0,0.0,0.0,-2.8856,0.0,-2.8198,-2.8119,-2.8073,-2.8004,-2.798,-2.7923,-2.7903,-2.7871,-2.7428,-2.6496,-2.684,-2.7273,-2.7707,-2.7769,-2.7812,-2.7865,-2.8192,-2.8464,-2.8506,-2.8841,-2.9271,-2.9594,-2.9665,-2.98,-3.0144,-3.018,-3.0171,-3.0161,-3.0098,-3.0034,-2.9988,-3.001,-2.9959,-2.991,-2.9823,-2.9789,-2.9789,-2.9789,-2.9789,-2.9789,-2.9789,-2.9789,-2.9789,-2.9789,-2.9771,-2.9773,-2.979,-2.9789,-2.9787,-2.9787,-2.9789,-2.9861,-2.9861,-2.9859,-2.9874,-2.991,-2.991,-2.991,-2.9907,-2.9924,-2.8739,-2.8669,-2.8737,-2.881,-2.8881,-2.8929,-2.8998,-2.9012,-2.8352,0.0,0.0,-2.7101,-2.7063,-2.71,-2.73,-2.7426,-2.7495,-2.7714,-2.8196,-2.8869,-2.8881,-2.9304,-3.0053,-3.0132,-3.0152,-3.0207,-3.0254,-3.0311,-3.0386,-3.0383,-3.0417,-3.0488,-3.0488,-3.0479,-3.0509,-3.054,-3.0588,-3.0585,-3.0582,-3.0626,-3.0683,-3.0664,-3.0697,-3.0691,-3.0767,-3.0784,-3.0774,-3.0793,-3.0798,-3.0801,-3.0792,-3.0506,-2.9861,-2.9775,-2.9408,-2.8731,-2.8622,-2.8559,-2.8558,-2.8501,-2.8459,-2.8443,-2.8395,-2.8264,-2.8042,-2.8023,-2.8099,-2.8253,-2.8265,-2.8288,-2.8362,-2.8951,-2.9377,-2.9438,-3.0015,-3.0386,-3.0402,-3.0371,-3.0316,-3.0318,-3.0279,-3.0221,-3.0213,-3.0185,-3.0142,-3.0113,-3.0117,-3.0102,-3.0022,-2.9891,-2.9823,-2.9823,-2.9823,-2.9806,-2.9825,-2.9806,-2.9825,-2.9823,-2.9806,-2.9825,-2.9825,-2.9825,-2.9822,-2.9815,-2.9803,-2.9859,-2.9895,-2.9893,-2.9893,-2.9907,-2.9907,-2.9907,-2.9907,-2.9907,-2.9943,-2.9089,-2.8536,-2.8587,-2.8662,-2.8737,-2.881,-2.8858,-2.8879,-2.8301,-2.7964,-2.7822,-2.7213,-2.6953,-2.7065,-2.7793,-2.8147,-2.8202,-2.9007,-2.9437,-2.9565,-2.96,-2.9744,-2.994,-2.9921,-3.0034,-3.0185,-3.0213,-3.024,-3.0324,-3.0323,-3.0348,-3.0402,-3.0406,-3.0439,-3.0479,-3.0509,-3.053,-3.0511,-3.0576,-3.061,-3.0618,-3.0618,-3.0642,-3.0697,-3.0704,-3.0717,-3.0709,-3.0769,-3.0789,-3.0793,-3.0791,-3.0751,-3.0642,-3.0604,-3.0556,-3.0445,-3.0412,-3.0389,-3.0322,-3.0261,-3.0206,-3.0144,-3.0123,-2.977,-2.8936,-2.8879,-2.9229,-2.9925,-2.994,-3.007,-3.0141,-3.018,-3.0248,-3.0278,-3.0402,-3.0499,-3.0469,-3.0469,-3.0436,-3.0398,-3.0367,-3.0343,-3.0312,-3.0266,-3.024,-3.0185,-3.0157,-3.0161,-3.0068,-2.9991,-2.9907,-2.9891,-2.9891,-2.9872,-2.9891,-2.9891,-2.9891,-2.9872,-2.9891,-2.9891,-2.9891,-2.9891,-2.9891,-2.9888,-2.9891,-2.9891,-2.9907,-2.9907,-2.9907,-2.9907,-2.9907,-2.9907,-2.9907,-2.9907,-2.9943,-2.9249,-2.89,-2.8612,-2.851,-2.8518,-2.8637,-2.8737,-2.8773,-2.8539,-2.8493,-2.8566,-2.8278,-2.8172,-2.8211,-2.8665,-2.8835,-2.8874,-2.9363,-2.9608,-2.9645,-2.9719,-2.9754,-2.9786,-2.9872,-2.9937,-3.0034,-3.0109,-3.0185,-3.024,-3.0247,-3.0279,-3.0348,-3.039,-3.0406,-3.0439,-3.0439,-3.0449,-3.0481,-3.0521,-3.0558,-3.0613,-3.0613,-3.061,-3.0634,-3.0653,-3.0676,-3.0698,-3.073,-3.0773,-3.0799,-3.0802,-3.0788,-3.0788,-3.0799,-3.08,-3.0792,-3.0794,-3.0782,-3.0753,-3.0691,-3.0614,-3.0567,-3.0569,-3.0365,-2.9858,-2.9828,-3.0021,-3.0417,-3.0458,-3.0469,-3.0481,-3.0481,-3.051,-3.054,-3.055,-3.054,-3.05,-3.0481,-3.049,-3.0447,-3.0425,-3.0371,-3.0362,-3.033,-3.0273,-3.0207,-3.0185,-3.0142,-3.0094,-3.0022,-2.9956,-2.9975,-2.994,-2.9907,-2.9907,-2.9907,-2.9907,-2.9907,-2.9907,-2.9907,-2.9907,-2.9907,-2.9907,-2.9907,-2.9907,-2.9907,-2.9907,-2.9907,-2.9907,-2.9907,-2.9907,-2.9907,-2.9907,-2.9907,-2.9924,-2.9579,-2.9223,-2.8746,-2.8506,-2.838,-2.851,-2.8587,-2.8637,-2.8694,-2.8834,-2.8975,-2.9112,-2.9156,-2.9156,-2.9246,-2.9272,-2.9312,-2.9394,-2.9492,-2.9569,-2.9645,-2.9701,-2.9699,-2.9822,-2.9891,-2.9924,-3.0034,-3.0123,-3.0152,-3.0194,-3.0228,-3.0304,-3.0367,-3.039,-3.0406,-3.0406,-3.0417,-3.0469,-3.049,-3.052,-3.0577,-3.0606,-3.0604,-3.0621,-3.0621,-3.0637,-3.0676,-3.071,-3.0717,-3.0778,-3.0794,-3.0798,-3.0788,-3.0788,-3.0799,-3.08,-3.0792,-3.0791,-3.0784,-3.0736,-3.0683,-3.0626,-3.0604,-3.0588,-3.054,-3.053,-3.051,-3.049,-3.0519,-3.053,-3.0511,-3.0521,-3.055,-3.0588,-3.0616,-3.0588,-3.054,-3.053,-3.052,-3.05,-3.0469,-3.0417,-3.0383,-3.034,-3.0304,-3.0234,-3.0166,-3.0123,-3.0109,-3.0064,-3.0019,-3.0007,-2.9956,-2.9907,-2.9907,-2.9907,-2.9907,-2.9907,-2.9907,-2.9907,-2.9907,-2.9907,-2.9907,-2.9907,-2.9907,-2.9907,-2.9907,-2.9907,-2.9907,-2.9907,-2.9907,-2.9907,-2.9907,-2.9907,-2.9905,-3.0459,-2.9219,-2.9136,-2.8806,-2.8354,-2.8398,-2.8424,-2.8432,-2.8562,-2.863,-2.8687,-2.8923,-2.9017,-2.904,-2.9156,-2.9262,-2.9283,-2.9312,-2.9353,-2.9433,-2.955,-2.9645,-2.9701,-2.9773,-2.9841,-2.9907,-3.0038,-3.0098,-3.0109,-3.018,-3.0228,-3.0304,-3.0367,-3.0398,-3.039,-3.039,-3.0402,-3.0398,-3.0398,-3.043,-3.052,-3.0569,-3.0616,-3.0623,-3.0604,-3.0613,-3.061,-3.0668,-3.0697,-3.0704,-3.0753,-3.0804,-3.0793,-3.0788,-3.0788,-3.0798,-3.0799,-3.0799,-3.0789,-3.0734,-3.0704,-3.069,-3.0688,-3.0657,-3.0602,-3.0593,-3.0567,-3.054,-3.0579,-3.0578,-3.0586,-3.0585,-3.0613,-3.0593,-3.0613,-3.0613,-3.0576,-3.0595,-3.0568,-3.052,-3.051,-3.049,-3.0417,-3.0375,-3.0359,-3.0292,-3.0221,-3.0199,-3.0171,-3.0123,-3.0079,-3.0068,-3.0007,-2.9924,-2.9907,-2.9907,-2.9907,-2.9907,-2.9907,-2.9907,-2.9907,-2.9907,-2.9907,-2.9907,-2.9907,-2.9907,-2.9907,-2.9907,-2.9907,-2.9907,-2.9907,-2.9907,-2.9907,-2.9983,-3.0018,-3.0876,-3.0307,-2.9911,-2.9349,-2.8785,-2.8433,-2.8291,-2.8291,-2.8406,-2.851,-2.8562,-2.8712,-2.8834,-2.8952,-2.9044,-2.913,-2.9197,-2.9265,-2.931,-2.9353,-2.9472,-2.9569,-2.9645,-2.97,-2.9789,-2.9841,-2.994,-3.0022,-3.0098,-3.0166,-3.0215,-3.0299,-3.0323,-3.0348,-3.0379,-3.0398,-3.039,-3.0402,-3.0406,-3.0409,-3.043,-3.0491,-3.0569,-3.0597,-3.0616,-3.0606,-3.0604,-3.0629,-3.0653,-3.071,-3.0717,-3.0748,-3.0799,-3.0798,-3.0785,-3.0788,-3.08,-3.0786,-3.0801,-3.0769,-3.0759,-3.0767,-3.0717,-3.069,-3.0656,-3.0661,-3.0657,-3.0613,-3.0623,-3.0604,-3.0613,-3.0602,-3.0602,-3.0602,-3.0602,-3.0602,-3.0613,-3.0604,-3.0606,-3.0568,-3.0521,-3.0481,-3.0469,-3.0394,-3.0316,-3.0292,-3.0234,-3.0226,-3.0199,-3.0157,-3.0094,-3.0102,-3.0022,-2.9956,-2.9924,-2.9907,-2.9907,-2.9907,-2.9907,-2.9907,-2.9907,-2.9907,-2.9907,-2.9907,-2.9907,-2.9907,-2.9907,-2.9907,-2.9907,-2.9945,-2.9945,-3.0021,-3.0549,-3.0663,-3.0817,-3.1235,-3.1007,-3.0337,-2.9765,-2.9324,-2.8912,-2.8738,-2.8795,-2.8917,-2.8874,-2.8738,-2.8861,-2.8862,-2.8852,-2.8929,-2.9017,-2.9085,-2.9218,-2.9286,-2.9349,-2.9656,-2.9866,-2.9925,-3.0227,-3.0414,-3.0487,-3.0593,-3.0674,-3.0746,-3.0586,-3.0598,-3.0618,-3.0426,-3.0336,-3.0379,-3.0398,-3.0398,-3.039,-3.0394,-3.0386,-3.0398,-3.0449,-3.051,-3.0559,-3.0598,-3.0607,-3.0606,-3.0615,-3.0621,-3.0688,-3.0683,-3.0737,-3.0778,-3.0794,-3.0782,-3.0801,-3.082,-3.0832,-3.0804,-3.0801,-3.0798,-3.0784,-3.0753,-3.073,-3.0724,-3.0723,-3.0703,-3.0703,-3.0649,-3.0622,-3.0618,-3.0618,-3.0626,-3.0626,-3.0626,-3.0626,-3.0637,-3.0621,-3.0604,-3.0595,-3.0559,-3.053,-3.0499,-3.0406,-3.0316,-3.0286,-3.0247,-3.0207,-3.0218,-3.0157,-3.0109,-3.0083,-3.0072,-3.0007,-2.9924,-2.9907,-2.9907,-2.9907,-2.9907,-2.9907,-2.9907,-2.9907,-2.9907,-2.9907,-2.9907,-2.9907,-2.9907,-2.9907,-3.0097,-3.021,-3.0305,-3.0587,-3.1364,-3.1479,-3.1746,-3.1603,-3.0889,-3.019,-2.9957,-2.9966,-2.9941,-3.0053,-3.0057,-3.0273,-2.9958,-2.9372,-2.9548,-2.9285,-2.8764,-2.8998,-2.8947,-2.9017,-2.9189,-2.9314,-2.9453,-3.0246,-3.0644,-3.0706,-3.1556,-3.2013,-3.1959,-3.1994,-3.2174,-3.2324,-3.1766,-3.1479,-3.1487,-3.0759,-3.0374,-3.0456,-3.0417,-3.0398,-3.041,-3.039,-3.0402,-3.0386,-3.0398,-3.0449,-3.051,-3.0559,-3.0598,-3.0598,-3.0606,-3.0604,-3.0604,-3.0661,-3.0697,-3.0704,-3.0753,-3.0786,-3.0806,-3.0857,-3.0858,-3.0811,-3.0784,-3.0791,-3.0786,-3.0789,-3.0794,-3.0784,-3.0728,-3.0697,-3.0697,-3.071,-3.0672,-3.0695,-3.0676,-3.0683,-3.0683,-3.069,-3.0695,-3.07,-3.0637,-3.0621,-3.0604,-3.0588,-3.055,-3.049,-3.0428,-3.0352,-3.0323,-3.0305,-3.0286,-3.0218,-3.0204,-3.0157,-3.0098,-3.0087,-3.0053,-2.994,-2.9907,-2.9907,-2.9907,-2.9907,-2.9907,-2.9907,-2.9907,-2.9907,-2.9907,-2.9907,-2.9907,-2.9907,-3.0078,-3.0416,-3.0682,-3.1025,-3.1478,-3.2199,-3.2315,-3.258,-3.1645,-3.1425,-3.0751,-3.0524,-3.0555,-3.0214,-3.0068,-3.0131,-3.033,-3.0327,-3.0165,-3.0291,-3.0287,-3.0098,-3.029,-2.985,-2.9062,-2.9613,-2.9961,-3.0132,-3.1024,-3.1483,-3.1565,-3.1927,-3.2161,-3.2241,-3.2279,-3.2444,-3.2559,-3.2317,-3.2263,-3.2225,-3.1558,-3.1143,-3.1085,-3.0636,-3.0398,-3.0398,-3.0398,-3.039,-3.0402,-3.0406,-3.0409,-3.0449,-3.05,-3.054,-3.055,-3.054,-3.0559,-3.0595,-3.064,-3.0653,-3.0717,-3.0753,-3.0802,-3.0796,-3.0811,-3.0839,-3.0858,-3.0813,-3.0784,-3.0791,-3.0801,-3.079,-3.0802,-3.0779,-3.0745,-3.0764,-3.0728,-3.071,-3.0698,-3.0711,-3.0704,-3.0697,-3.069,-3.071,-3.0703,-3.068,-3.0637,-3.0593,-3.0549,-3.052,-3.049,-3.0439,-3.0364,-3.033,-3.0292,-3.0286,-3.0232,-3.0204,-3.019,-3.0117,-3.0102,-3.0072,-2.9924,-2.9907,-2.9907,-2.9907,-2.9907,-2.9907,-2.9907,-2.9907,-2.9907,-2.9907,-2.9907,-2.9983,-3.004,-3.0476,-3.0814,-3.1231,-3.1591,-3.2257,-3.3033,-3.3129,-3.3412,-3.1593,-3.1603,-3.1229,-3.1113,-3.1115,-3.0784,-3.0608,-3.074,-3.0953,-3.0987,-3.0897,-3.1011,-3.1049,-3.0928,-3.1111,-3.0695,-2.9759,-3.0415,-3.0771,-3.0863,-3.1778,-3.2277,-3.2403,-3.267,-3.2887,-3.2972,-3.309,-3.3222,-3.3344,-3.3146,-3.3096,-3.3134,-3.2163,-3.159,-3.1463,-3.079,-3.0398,-3.0398,-3.0398,-3.0398,-3.041,-3.0383,-3.0394,-3.0406,-3.0436,-3.0469,-3.0481,-3.0491,-3.0511,-3.0549,-3.0586,-3.0629,-3.071,-3.0767,-3.0789,-3.0794,-3.0799,-3.0813,-3.0858,-3.0859,-3.0834,-3.0827,-3.0819,-3.0791,-3.0785,-3.079,-3.0798,-3.0789,-3.0755,-3.0725,-3.0734,-3.0722,-3.0724,-3.0704,-3.0697,-3.0697,-3.071,-3.0695,-3.0665,-3.0593,-3.0549,-3.054,-3.0509,-3.0469,-3.0414,-3.0318,-3.0292,-3.0286,-3.0232,-3.0204,-3.0157,-3.0117,-3.0102,-3.0038,-2.994,-2.9907,-2.9907,-2.9907,-2.9907,-2.9907,-2.9907,-2.9907,-2.9924,-2.9907,-2.9983,-3.0094,-3.0379,-3.0852,-3.1345,-3.1819,-3.2371,-3.3053,-3.3564,-3.396,-3.407,-3.1462,-3.1517,-3.1479,-3.1528,-3.1679,-3.1664,-3.1896,-3.2022,-3.2213,-3.1925,-3.1576,-3.1742,-3.1536,-3.1106,-3.1374,-3.1289,-3.1279,-3.1513,-3.1599,-3.1708,-3.2501,-3.299,-3.3161,-3.3803,-3.4233,-3.4379,-3.4697,-3.4851,-3.4808,-3.4232,-3.3936,-3.3712,-3.2532,-3.1864,-3.1636,-3.095,-3.0456,-3.0398,-3.0398,-3.0398,-3.0398,-3.039,-3.039,-3.039,-3.041,-3.0444,-3.0479,-3.0481,-3.051,-3.052,-3.0549,-3.0629,-3.0703,-3.0755,-3.0789,-3.0789,-3.0801,-3.0801,-3.0792,-3.0857,-3.0859,-3.0876,-3.0829,-3.0821,-3.0796,-3.0807,-3.0798,-3.0798,-3.0786,-3.0793,-3.0779,-3.0769,-3.0767,-3.0704,-3.0691,-3.0704,-3.069,-3.0695,-3.0665,-3.0604,-3.0588,-3.0579,-3.0519,-3.0479,-3.0436,-3.0323,-3.0305,-3.0266,-3.0232,-3.0204,-3.0176,-3.0117,-3.0068,-3.0038,-2.9972,-2.9907,-2.9907,-2.9907,-2.9907,-2.9907,-2.9905,-2.9905,-2.994,-2.9959,-3.0281,-3.0414,-3.0852,-3.1364,-3.2217,-3.2766,-3.3317,-3.3734,-3.413,-3.445,-3.4442,-3.1151,-3.1286,-3.1269,-3.1385,-3.1614,-3.1709,-3.1873,-3.1965,-3.2249,-3.2316,-3.2239,-3.2464,-3.2491,-3.2481,-3.2661,-3.2784,-3.2858,-3.2983,-3.2838,-3.265,-3.3309,-3.3759,-3.3957,-3.4232,-3.4495,-3.4666,-3.4788,-3.4869,-3.4926,-3.477,-3.4764,-3.4585,-3.3769,-3.2986,-3.2377,-3.1636,-3.1008,-3.0456,-3.0398,-3.0398,-3.0398,-3.0398,-3.0398,-3.0398,-3.0398,-3.0421,-3.0433,-3.0428,-3.046,-3.0491,-3.0511,-3.0586,-3.068,-3.0723,-3.0761,-3.0799,-3.0793,-3.0801,-3.0801,-3.0829,-3.0856,-3.0879,-3.0858,-3.0873,-3.0862,-3.0838,-3.0794,-3.0794,-3.0801,-3.079,-3.0798,-3.0793,-3.0769,-3.0698,-3.0691,-3.0711,-3.069,-3.0661,-3.061,-3.0621,-3.0606,-3.0579,-3.05,-3.049,-3.0436,-3.033,-3.0312,-3.0266,-3.0232,-3.0204,-3.0176,-3.0117,-3.0083,-3.0053,-2.9956,-2.9907,-2.9907,-2.9907,-2.9907,-2.9907,-2.9905,-2.9921,-2.9956,-3.0108,-3.0465,-3.0905,-3.1326,-3.2027,-3.2899,-3.3525,-3.3999,-3.4358,-3.4715,-3.4747,-3.4623,-3.1009,-3.1072,-3.1112,-3.1213,-3.1385,-3.1614,-3.1726,-3.1819,-3.2126,-3.2371,-3.2523,-3.2773,-3.293,-3.3117,-3.3375,-3.352,-3.3605,-3.3753,-3.3611,-3.337,-3.3746,-3.4124,-3.4269,-3.4381,-3.4495,-3.4645,-3.4768,-3.483,-3.4889,-3.502,-3.5129,-3.5047,-3.4404,-3.3585,-3.2804,-3.2006,-3.1219,-3.0513,-3.0398,-3.0398,-3.0398,-3.0398,-3.0398,-3.0398,-3.0398,-3.0398,-3.0398,-3.0383,-3.0417,-3.046,-3.051,-3.0568,-3.0676,-3.0676,-3.0711,-3.0767,-3.0794,-3.0798,-3.0801,-3.0794,-3.0825,-3.0856,-3.0879,-3.0898,-3.0892,-3.085,-3.0847,-3.0819,-3.0813,-3.0785,-3.079,-3.0782,-3.0784,-3.0742,-3.071,-3.0698,-3.0697,-3.0653,-3.061,-3.0613,-3.0606,-3.0559,-3.0519,-3.0479,-3.0455,-3.0349,-3.0312,-3.0286,-3.0232,-3.0204,-3.0161,-3.0117,-3.0102,-3.0038,-2.994,-2.9907,-2.9907,-2.9907,-2.9907,-2.9907,-2.9907,-2.9956,-2.9972,-3.025,-3.0554,-3.1301,-3.1796,-3.2728,-3.3619,-3.4112,-3.4528,-3.464,-3.4768,-3.4645,-3.4539,-3.0871,-3.0871,-3.0952,-3.1072,-3.119,-3.1402,-3.1593,-3.18,-3.2001,-3.2249,-3.2489,-3.2707,-3.2902,-3.3135,-3.3375,-3.352,-3.3633,-3.3753,-3.385,-3.388,-3.4023,-3.4055,-3.4221,-3.434,-3.4473,-3.4583,-3.4708,-3.481,-3.4889,-3.5001,-3.5129,-3.5105,-3.4483,-3.3627,-3.2867,-3.2026,-3.1322,-3.0501,-3.0379,-3.0398,-3.0398,-3.0398,-3.0398,-3.0398,-3.0398,-3.0398,-3.0398,-3.039,-3.0402,-3.0417,-3.051,-3.0578,-3.0604,-3.0661,-3.069,-3.0704,-3.0753,-3.0774,-3.0793,-3.0801,-3.0799,-3.0804,-3.0856,-3.0879,-3.0879,-3.0897,-3.0892,-3.0884,-3.086,-3.0813,-3.0801,-3.079,-3.0793,-3.0789,-3.0742,-3.0704,-3.0697,-3.0634,-3.061,-3.0621,-3.0586,-3.0559,-3.0509,-3.049,-3.0425,-3.0349,-3.0312,-3.0253,-3.0232,-3.0204,-3.0176,-3.0132,-3.0102,-3.0022,-2.994,-2.9907,-2.9907,-2.9907,-2.9924,-2.9924,-2.994,-2.9988,-3.0019,-3.0281,-3.0836,-3.1599,-3.2383,-3.3258,-3.4017,-3.4528,-3.4754,-3.4769,-3.4687,-3.458,-3.4473,-3.0568,-3.0609,-3.0733,-3.0895,-3.1055,-3.123,-3.1385,-3.1614,-3.1856,-3.2126,-3.237,-3.2573,-3.2834,-3.3086,-3.3316,-3.3509,-3.3532,-3.368,-3.3887,-3.3998,-3.3998,-3.4099,-3.4245,-3.434,-3.445,-3.4539,-3.4666,-3.4768,-3.4849,-3.4927,-3.502,-3.511,-3.4876,-3.4101,-3.2958,-3.2541,-3.1718,-3.0547,-3.0359,-3.0398,-3.0398,-3.0398,-3.0398,-3.0398,-3.0398,-3.0398,-3.0398,-3.0398,-3.0402,-3.0398,-3.0471,-3.0559,-3.0568,-3.0621,-3.0642,-3.069,-3.073,-3.0739,-3.0779,-3.0802,-3.0801,-3.0799,-3.0808,-3.0853,-3.0898,-3.0918,-3.0917,-3.0892,-3.0866,-3.0858,-3.081,-3.0801,-3.0778,-3.072,-3.0716,-3.0698,-3.0697,-3.0707,-3.0665,-3.061,-3.0604,-3.0559,-3.053,-3.0479,-3.0455,-3.0349,-3.0279,-3.0266,-3.0232,-3.0204,-3.0171,-3.0132,-3.0068,-3.0022,-2.9956,-2.9924,-2.9907,-2.9907,-2.9924,-2.994,-2.9972,-3.0034,-3.0064,-3.017,-3.1172,-3.1977,-3.276,-3.358,-3.4226,-3.4793,-3.4829,-3.4768,-3.4645,-3.4517,-3.4427,-3.0359,-3.0485,-3.0568,-3.0749,-3.0975,-3.1151,-3.1308,-3.1538,-3.1765,-3.2038,-3.2318,-3.2488,-3.2802,-3.3068,-3.2972,-3.2972,-3.3058,-3.2892,-3.2856,-3.3038,-3.3352,-3.3777,-3.4152,-3.4335,-3.4404,-3.4473,-3.4602,-3.4727,-3.4809,-3.487,-3.4983,-3.4997,-3.4802,-3.4009,-3.2866,-3.2359,-3.1654,-3.0554,-3.0328,-3.0359,-3.0398,-3.0398,-3.0398,-3.0398,-3.0398,-3.0398,-3.0398,-3.0398,-3.0402,-3.0417,-3.0449,-3.0481,-3.054,-3.0577,-3.0602,-3.0642,-3.0685,-3.0716,-3.0739,-3.0784,-3.0786,-3.0788,-3.0796,-3.0825,-3.0894,-3.0917,-3.0918,-3.0917,-3.0907,-3.088,-3.0813,-3.0785,-3.0774,-3.0714,-3.071,-3.0698,-3.0697,-3.0695,-3.0673,-3.0629,-3.0604,-3.0568,-3.0519,-3.049,-3.0425,-3.0349,-3.0312,-3.0253,-3.0199,-3.0199,-3.0171,-3.0113,-3.0083,-3.0038,-2.9972,-2.994,-2.9924,-2.9924,-2.9956,-2.9972,-3.0019,-3.0064,-3.0113,-3.0395,-3.1416,-3.2298,-3.2911,-3.3523,-3.415,-3.4547,-3.4696,-3.4747,-3.4583,-3.4495,-3.4386,-3.0231,-3.0375,-3.0443,-3.0651,-3.0912,-3.1072,-3.1269,-3.1555,-3.1765,-3.2038,-3.2283,-3.2539,-3.2695,-3.2973,-3.2491,-3.2264,-3.2274,-3.1865,-3.1697,-3.1985,-3.253,-3.3213,-3.3924,-3.4213,-3.434,-3.4409,-3.4558,-3.4666,-3.4769,-3.485,-3.4851,-3.4732,-3.4213,-3.3459,-3.2584,-3.1886,-3.1103,-3.0452,-3.0304,-3.0316,-3.0379,-3.0379,-3.0398,-3.0398,-3.0398,-3.0398,-3.0398,-3.041,-3.0402,-3.0386,-3.0398,-3.0449,-3.051,-3.0559,-3.0597,-3.0621,-3.0668,-3.0711,-3.0716,-3.0764,-3.0789,-3.0794,-3.0791,-3.0819,-3.0864,-3.0894,-3.0918,-3.0918,-3.0912,-3.0862,-3.0816,-3.0798,-3.0769,-3.0714,-3.0703,-3.0704,-3.0697,-3.0695,-3.0673,-3.061,-3.0613,-3.0568,-3.051,-3.0479,-3.0455,-3.0337,-3.0312,-3.0272,-3.0232,-3.0204,-3.0171,-3.0109,-3.0079,-3.0068,-3.0022,-2.9975,-2.994,-2.994,-3.0022,-3.0053,-3.0068,-3.0113,-3.0142,-3.0524,-3.1241,-3.1952,-3.2604,-3.3275,-3.3942,-3.449,-3.4771,-3.4687,-3.4539,-3.4473,-3.4363,-3.006,-3.0103,-3.0333,-3.0526,-3.0733,-3.0912,-3.1207,-3.1517,-3.1726,-3.1984,-3.2283,-3.2488,-3.2446,-3.2272,-3.2094,-3.1955,-3.149,-3.1334,-3.1477,-3.1634,-3.1867,-3.2507,-3.3255,-3.3822,-3.4279,-3.4367,-3.4473,-3.4604,-3.473,-3.4678,-3.4548,-3.4052,-3.3722,-3.3105,-3.1889,-3.1551,-3.1063,-3.04,-3.0248,-3.0304,-3.0336,-3.0379,-3.0398,-3.0398,-3.0398,-3.0398,-3.0398,-3.0398,-3.039,-3.0402,-3.0394,-3.0428,-3.049,-3.055,-3.0578,-3.0615,-3.0653,-3.0697,-3.0711,-3.0761,-3.0794,-3.0793,-3.0794,-3.0788,-3.0799,-3.0864,-3.0913,-3.0918,-3.0915,-3.0868,-3.0813,-3.0785,-3.0759,-3.0725,-3.0703,-3.071,-3.0704,-3.071,-3.0688,-3.0637,-3.0602,-3.0567,-3.0519,-3.049,-3.0425,-3.033,-3.0299,-3.0272,-3.0245,-3.0218,-3.0171,-3.0123,-3.0094,-3.0064,-3.0053,-3.0007,-3.0007,-2.9972,-3.0053,-3.0083,-3.0098,-3.0161,-3.019,-3.0448,-3.0879,-3.1607,-3.2355,-3.3066,-3.3753,-3.4282,-3.4788,-3.4645,-3.4539,-3.445,-3.4316,-2.9973,-3.0017,-3.0231,-3.0401,-3.0609,-3.0814,-3.1095,-3.1406,-3.1671,-3.2001,-3.2196,-3.217,-3.2054,-3.193,-3.1325,-3.0839,-3.064,-3.043,-3.0383,-3.0549,-3.0921,-3.1467,-3.1935,-3.2794,-3.3455,-3.418,-3.4431,-3.4411,-3.4235,-3.4147,-3.3809,-3.3143,-3.2854,-3.2235,-3.1405,-3.1049,-3.0638,-3.0322,-3.0228,-3.0267,-3.0299,-3.0336,-3.0379,-3.0398,-3.0398,-3.0398,-3.0398,-3.0398,-3.0398,-3.039,-3.0402,-3.0406,-3.0458,-3.05,-3.0569,-3.0607,-3.0632,-3.0668,-3.069,-3.0717,-3.0767,-3.0799,-3.0802,-3.0801,-3.0813,-3.0858,-3.0907,-3.0917,-3.0898,-3.087,-3.081,-3.0798,-3.0754,-3.0711,-3.0709,-3.071,-3.0704,-3.069,-3.0676,-3.0618,-3.0602,-3.0577,-3.053,-3.049,-3.0417,-3.0323,-3.0312,-3.0286,-3.0226,-3.0199,-3.0185,-3.0157,-3.0123,-3.0094,-3.0064,-3.0053,-3.0053,-3.0053,-3.0083,-3.0098,-3.0098,-3.0142,-3.0204,-3.0462,-3.0666,-3.1435,-3.2184,-3.2859,-3.3582,-3.4357,-3.4728,-3.4645,-3.4536,-3.445,-3.4269,-2.9902,-2.9989,-3.0146,-3.0316,-3.0526,-3.0773,-3.1038,-3.1334,-3.1671,-3.1897,-3.202,-3.1641,-3.1591,-3.1308,-3.0377,-2.987,-2.9716,-2.9545,-2.9474,-2.9551,-3.0105,-3.0575,-3.095,-3.1563,-3.2445,-3.3896,-3.3863,-3.3636,-3.3366,-3.324,-3.2921,-3.2236,-3.168,-3.1331,-3.1032,-3.0528,-3.0195,-3.018,-3.0188,-3.0215,-3.026,-3.0299,-3.0343,-3.0367,-3.0379,-3.0398,-3.0398,-3.0398,-3.0398,-3.0398,-3.0398,-3.0402,-3.0406,-3.0439,-3.0519,-3.0588,-3.0597,-3.0621,-3.0668,-3.069,-3.0724,-3.0774,-3.0789,-3.079,-3.0807,-3.0855,-3.0886,-3.0897,-3.0878,-3.0864,-3.0807,-3.079,-3.075,-3.072,-3.0703,-3.0704,-3.0704,-3.069,-3.0668,-3.0618,-3.0593,-3.0577,-3.053,-3.0479,-3.0406,-3.0328,-3.0318,-3.0299,-3.024,-3.0213,-3.0185,-3.0185,-3.0157,-3.0109,-3.0079,-3.0083,-3.0087,-3.0083,-3.0079,-3.0094,-3.0094,-3.0142,-3.019,-3.019,-3.0543,-3.1203,-3.1806,-3.2421,-3.3223,-3.4281,-3.473,-3.4666,-3.4539,-3.4409,-3.4245,-2.983,-2.9946,-3.0119,-3.029,-3.0443,-3.0749,-3.1038,-3.1334,-3.1582,-3.1636,-3.1424,-3.1411,-3.0813,-3.0202,-2.9909,-2.9497,-2.9229,-2.9163,-2.9218,-2.9222,-2.9585,-2.9925,-3.0463,-3.0689,-3.1381,-3.2061,-3.2366,-3.232,-3.2386,-3.2353,-3.2015,-3.1427,-3.1195,-3.0902,-3.0437,-3.0122,-3.0109,-3.0138,-3.018,-3.0207,-3.0221,-3.0279,-3.0299,-3.0323,-3.0336,-3.0355,-3.0398,-3.0398,-3.0398,-3.0398,-3.0398,-3.039,-3.0402,-3.0406,-3.0449,-3.052,-3.0569,-3.0606,-3.0637,-3.0676,-3.0691,-3.0722,-3.0769,-3.0798,-3.0798,-3.0813,-3.0847,-3.0878,-3.0853,-3.0804,-3.0801,-3.0802,-3.0774,-3.0728,-3.071,-3.0711,-3.0697,-3.0695,-3.0653,-3.0629,-3.0585,-3.0558,-3.052,-3.0479,-3.0417,-3.0359,-3.0318,-3.0279,-3.0253,-3.0213,-3.0204,-3.0204,-3.0204,-3.0157,-3.0109,-3.0098,-3.0102,-3.0079,-3.0094,-3.0142,-3.0123,-3.0109,-3.0142,-3.0166,-3.0266,-3.0693,-3.1295,-3.1986,-3.2806,-3.3789,-3.4259,-3.4689,-3.4539,-3.4381,-3.4245,-2.977,-2.9918,-3.0103,-3.0231,-3.0359,-3.0733,-3.1032,-3.1223,-3.1205,-3.1185,-3.0988,-3.0564,-3.0048,-2.9574,-2.9134,-2.8938,-2.8949,-2.9071,-2.9178,-2.9222,-2.9363,-2.9556,-2.9983,-3.0002,-3.0209,-3.0528,-3.0663,-3.1026,-3.1408,-3.1505,-3.1111,-3.0581,-3.0481,-3.0305,-3.007,-3.0022,-3.0064,-3.0094,-3.0138,-3.0166,-3.0194,-3.024,-3.0241,-3.0279,-3.0311,-3.033,-3.0336,-3.0355,-3.0348,-3.0348,-3.0359,-3.0379,-3.039,-3.0402,-3.0436,-3.049,-3.054,-3.0578,-3.0604,-3.0645,-3.0656,-3.0704,-3.0759,-3.0789,-3.0794,-3.0794,-3.0831,-3.0859,-3.0847,-3.0794,-3.079,-3.0789,-3.0764,-3.0716,-3.0698,-3.0704,-3.0695,-3.068,-3.0637,-3.0613,-3.0585,-3.0549,-3.051,-3.0469,-3.0436,-3.039,-3.033,-3.0292,-3.0266,-3.0226,-3.0204,-3.0204,-3.0204,-3.019,-3.0157,-3.0128,-3.0117,-3.0094,-3.0094,-3.0123,-3.0142,-3.0109,-3.0122,-3.0133,-3.0285,-3.038,-3.1124,-3.191,-3.2618,-3.3336,-3.4089,-3.4612,-3.4476,-3.4358,-3.4221,-2.9742,-2.9902,-3.0119,-3.0205,-3.0323,-3.0708,-3.0931,-3.0946,-3.0722,-3.0664,-3.0547,-2.9682,-2.9247,-2.9179,-2.8863,-2.863,-2.881,-2.9071,-2.9178,-2.924,-2.9326,-2.9425,-2.9407,-2.9388,-2.9518,-2.9667,-2.9632,-2.9788,-3.0392,-3.062,-3.0265,-3.0,-2.9863,-2.9876,-2.9907,-2.9975,-3.0038,-3.0064,-3.0094,-3.0142,-3.0185,-3.0213,-3.0234,-3.0267,-3.0273,-3.0292,-3.0305,-3.0299,-3.0311,-3.0323,-3.0336,-3.0367,-3.0398,-3.0398,-3.0414,-3.0469,-3.0471,-3.0521,-3.0577,-3.0613,-3.0642,-3.0691,-3.0742,-3.0779,-3.0798,-3.0821,-3.0857,-3.0875,-3.0833,-3.0786,-3.0798,-3.0799,-3.0753,-3.0724,-3.0704,-3.069,-3.0688,-3.0665,-3.0621,-3.0604,-3.0595,-3.0559,-3.05,-3.0479,-3.0458,-3.039,-3.033,-3.0305,-3.0266,-3.0232,-3.0204,-3.0204,-3.0204,-3.0204,-3.019,-3.0157,-3.0128,-3.0094,-3.0094,-3.0094,-3.0113,-3.0098,-3.0091,-3.0086,-3.0048,-3.0238,-3.1037,-3.176,-3.241,-3.3166,-3.4109,-3.4534,-3.4435,-3.4335,-3.4216,-2.9653,-2.9902,-3.0119,-3.0271,-3.0438,-3.0758,-3.0645,-3.0374,-3.0518,-3.0039,-2.9369,-2.9117,-2.8838,-2.8667,-2.8764,-2.8737,-2.8881,-2.9044,-2.9197,-2.9218,-2.9326,-2.9368,-2.9388,-2.9388,-2.9388,-2.9388,-2.9388,-2.9427,-2.9732,-2.9831,-2.9833,-2.9701,-2.9737,-2.9789,-2.9859,-2.9926,-2.9956,-3.0003,-3.0064,-3.0123,-3.0185,-3.0218,-3.0226,-3.0221,-3.0234,-3.024,-3.0286,-3.0279,-3.0273,-3.0286,-3.0311,-3.0316,-3.0316,-3.0367,-3.0402,-3.0436,-3.0469,-3.053,-3.0578,-3.0604,-3.0634,-3.0685,-3.0716,-3.0755,-3.0798,-3.085,-3.0879,-3.0884,-3.0824,-3.0786,-3.0789,-3.0745,-3.071,-3.0704,-3.0703,-3.0695,-3.0692,-3.0649,-3.0604,-3.0586,-3.0568,-3.054,-3.049,-3.0479,-3.0477,-3.0421,-3.0362,-3.0324,-3.0299,-3.0245,-3.0204,-3.0204,-3.0204,-3.0204,-3.0171,-3.0138,-3.0109,-3.0075,-3.0079,-3.0083,-3.0049,-3.0019,-3.0026,-2.9997,-2.9943,-3.0075,-3.0701,-3.1405,-3.2127,-3.2958,-3.3823,-3.4226,-3.4431,-3.4311,-3.4173,-2.9726,-2.9989,-3.0103,-3.0323,-3.0483,-3.0766,-3.0651,-3.0241,-3.0038,-2.9572,-2.8917,-2.8564,-2.8439,-2.846,-2.8687,-2.8804,-2.8876,-2.9044,-2.9156,-2.9218,-2.9304,-2.9347,-2.9388,-2.9388,-2.9388,-2.9388,-2.9388,-2.9388,-2.9429,-2.9451,-2.9531,-2.9626,-2.9683,-2.9719,-2.9809,-2.9859,-2.9907,-2.9972,-3.0049,-3.0142,-3.019,-3.0204,-3.0218,-3.0213,-3.0213,-3.0232,-3.0245,-3.024,-3.0234,-3.0247,-3.0273,-3.0311,-3.0304,-3.0316,-3.0359,-3.0402,-3.0458,-3.05,-3.053,-3.0576,-3.0634,-3.0678,-3.071,-3.073,-3.0798,-3.0832,-3.0858,-3.0882,-3.0846,-3.081,-3.0789,-3.0745,-3.0716,-3.0704,-3.0695,-3.0673,-3.0657,-3.064,-3.0595,-3.0568,-3.054,-3.051,-3.0479,-3.0458,-3.0436,-3.041,-3.0362,-3.0312,-3.0286,-3.0245,-3.0218,-3.0204,-3.0204,-3.0185,-3.0138,-3.0109,-3.0064,-3.0049,-3.0034,-3.0022,-2.9972,-2.994,-2.9945,-2.9948,-2.9931,-3.0158,-3.0516,-3.1313,-3.2279,-3.292,-3.3517,-3.3992,-3.4404,-3.4221,-3.4074,-2.9858,-3.0076,-3.0146,-3.0333,-3.051,-3.0647,-3.0352,-2.9926,-2.9454,-2.9015,-2.8614,-2.828,-2.8254,-2.8424,-2.8662,-2.8804,-2.881,-2.8998,-2.913,-2.9218,-2.9262,-2.9344,-2.9386,-2.9388,-2.9388,-2.9388,-2.9388,-2.9388,-2.9388,-2.9411,-2.9451,-2.9549,-2.9608,-2.9664,-2.9719,-2.9827,-2.9893,-2.9956,-3.0049,-3.0128,-3.0157,-3.0185,-3.0204,-3.0204,-3.0204,-3.0204,-3.0204,-3.0213,-3.0213,-3.0226,-3.0234,-3.0273,-3.0267,-3.0292,-3.0336,-3.039,-3.0447,-3.049,-3.053,-3.0558,-3.0626,-3.0671,-3.0722,-3.075,-3.0778,-3.0795,-3.0818,-3.0882,-3.0846,-3.0813,-3.0774,-3.0745,-3.0716,-3.0685,-3.0676,-3.0626,-3.0602,-3.0604,-3.0597,-3.055,-3.052,-3.0481,-3.0449,-3.0417,-3.0394,-3.0398,-3.0362,-3.0312,-3.0272,-3.0232,-3.0218,-3.0204,-3.0171,-3.0157,-3.0123,-3.0094,-3.0049,-3.0003,-3.0007,-2.9975,-2.9943,-2.991,-2.9912,-2.9914,-3.0031,-3.0354,-3.0751,-3.16,-3.2449,-3.3087,-3.366,-3.4098,-3.434,-3.4173,-3.3972,-2.9902,-3.0189,-3.0172,-3.0375,-3.0643,-3.0168,-2.9705,-2.9248,-2.8815,-2.8366,-2.8006,-2.8182,-2.8353,-2.8458,-2.8662,-2.8804,-2.8828,-2.9017,-2.913,-2.9197,-2.928,-2.9344,-2.9368,-2.9388,-2.9388,-2.9388,-2.9388,-2.9388,-2.9388,-2.9388,-2.9411,-2.9453,-2.9531,-2.9626,-2.9701,-2.9792,-2.9876,-2.994,-3.0053,-3.0098,-3.0109,-3.0138,-3.0185,-3.0204,-3.0204,-3.0204,-3.0204,-3.0103,-2.9931,-2.9912,-2.9844,-2.9857,-2.9768,-2.9845,-2.9882,-3.0117,-3.0224,-3.0325,-3.0452,-3.0558,-3.0626,-3.0691,-3.075,-3.0771,-3.0781,-3.0795,-3.0819,-3.0882,-3.0846,-3.081,-3.0789,-3.0759,-3.071,-3.0685,-3.0668,-3.0618,-3.0613,-3.0606,-3.0578,-3.055,-3.05,-3.0479,-3.0428,-3.0406,-3.0383,-3.0367,-3.0318,-3.0266,-3.0245,-3.0218,-3.0204,-3.0171,-3.0142,-3.0128,-3.0094,-3.0064,-3.0022,-2.9972,-2.994,-2.9926,-2.9876,-2.9897,-3.0127,-3.0244,-3.0452,-3.0716,-3.1092,-3.1975,-3.2745,-3.3325,-3.3802,-3.418,-3.4227,-3.4055,-3.385,-2.9756,-2.9534,-2.9642,-2.9864,-3.0066,-2.9939,-2.9347,-2.8613,-2.8522,-2.8272,-2.7893,-2.8246,-2.8424,-2.8484,-2.8662,-2.8804,-2.8828,-2.897,-2.9108,-2.9156,-2.9222,-2.9304,-2.9347,-2.9388,-2.9388,-2.9388,-2.9388,-2.9388,-2.9388,-2.9388,-2.9388,-2.9411,-2.9453,-2.9531,-2.9626,-2.9756,-2.9859,-2.9924,-3.0007,-3.0053,-3.0094,-3.0123,-3.0157,-3.0204,-3.0204,-2.9879,-2.9497,-2.9421,-2.9115,-2.8829,-2.8765,-2.8798,-2.8843,-2.8874,-2.9128,-2.9517,-2.9682,-2.9976,-3.0404,-3.0519,-3.0634,-3.071,-3.0765,-3.0798,-3.0801,-3.0795,-3.0839,-3.0864,-3.0846,-3.079,-3.0793,-3.0745,-3.0691,-3.0685,-3.0649,-3.0618,-3.0604,-3.0597,-3.0588,-3.053,-3.0509,-3.0488,-3.0447,-3.0402,-3.0359,-3.0336,-3.0273,-3.024,-3.0232,-3.0204,-3.0171,-3.0157,-3.0109,-3.0064,-3.0049,-3.0038,-2.9991,-2.9959,-2.9891,-2.9971,-3.0014,-3.0469,-3.0678,-3.0791,-3.109,-3.1575,-3.2042,-3.2529,-3.3032,-3.3478,-3.384,-3.42,-3.4105,-3.391,-3.3743,-2.913,-2.8796,-2.8966,-2.922,-2.9398,-2.9349,-2.8876,-2.822,-2.8159,-2.8159,-2.8014,-2.8273,-2.8424,-2.8476,-2.8662,-2.8804,-2.8834,-2.8929,-2.9067,-2.9156,-2.9218,-2.9283,-2.9347,-2.9388,-2.9388,-2.9388,-2.9388,-2.9388,-2.9388,-2.9388,-2.9388,-2.9388,-2.939,-2.9471,-2.9569,-2.9719,-2.9842,-2.991,-2.9956,-3.0022,-3.0045,-3.0094,-3.0109,-3.0095,-2.9904,-2.9535,-2.902,-2.8752,-2.8351,-2.8045,-2.7854,-2.7791,-2.7758,-2.7834,-2.8126,-2.8557,-2.9044,-2.9454,-2.996,-3.047,-3.063,-3.0716,-3.0765,-3.079,-3.0791,-3.0813,-3.0859,-3.0882,-3.083,-3.0798,-3.0782,-3.075,-3.0697,-3.0685,-3.0634,-3.0602,-3.0585,-3.0577,-3.0559,-3.0519,-3.0479,-3.0458,-3.0433,-3.0379,-3.0343,-3.0299,-3.026,-3.0226,-3.0199,-3.0171,-3.0157,-3.0109,-3.0079,-3.0034,-3.0003,-2.9975,-2.9962,-2.9926,-2.9933,-3.0108,-3.0299,-3.0772,-3.1203,-3.1388,-3.1813,-3.2481,-3.2866,-3.3105,-3.3328,-3.3552,-3.3849,-3.4124,-3.3998,-3.3797,-3.3662,-2.8005,-2.8043,-2.8256,-2.8489,-2.8582,-2.8197,-2.8066,-2.8029,-2.7785,-2.7777,-2.7996,-2.8273,-2.8424,-2.8458,-2.8662,-2.8785,-2.881,-2.8929,-2.9067,-2.9175,-2.9218,-2.9283,-2.9347,-2.9388,-2.9388,-2.9388,-2.9388,-2.9388,-2.9388,-2.9388,-2.9388,-2.9388,-2.939,-2.9431,-2.9494,-2.97,-2.9825,-2.9893,-2.994,-2.9972,-3.0019,-3.0064,-3.0094,-2.9766,-2.9417,-2.9031,-2.8363,-2.7924,-2.7523,-2.7236,-2.723,-2.723,-2.7268,-2.7338,-2.7527,-2.7781,-2.851,-2.8981,-2.9313,-3.0178,-3.0598,-3.071,-3.076,-3.0786,-3.0804,-3.0849,-3.0898,-3.0905,-3.0852,-3.0801,-3.0778,-3.075,-3.0722,-3.0691,-3.0642,-3.0602,-3.0585,-3.0549,-3.053,-3.05,-3.0439,-3.0406,-3.0379,-3.0362,-3.0324,-3.0279,-3.0234,-3.0194,-3.0185,-3.0157,-3.0109,-3.0079,-3.0034,-3.0003,-2.9956,-2.9926,-2.9912,-2.9895,-2.9938,-3.0112,-3.0471,-3.0939,-3.1385,-3.1843,-3.2467,-3.3106,-3.3356,-3.3573,-3.3642,-3.3685,-3.3783,-3.3921,-3.3788,-3.3726,-3.3587,-2.7787,-2.7498,-2.7686,-2.7623,-2.7432,-2.7775,-2.7793,-2.7577,-2.7644,-2.7824,-2.8025,-2.8291,-2.8398,-2.8484,-2.8612,-2.8761,-2.881,-2.8881,-2.9021,-2.9197,-2.9218,-2.9283,-2.9347,-2.9388,-2.9388,-2.9388,-2.9388,-2.9388,-2.9388,-2.9388,-2.9388,-2.9388,-2.939,-2.9451,-2.9531,-2.9664,-2.9753,-2.9842,-2.9893,-2.9943,-2.9988,-2.9981,-2.9783,-2.9298,-2.8951,-2.8284,-2.7426,-2.6988,-2.6625,-2.6257,-2.6219,-2.6168,-2.6162,-2.6161,-2.6388,-2.6749,-2.7401,-2.8056,-2.8975,-3.0034,-3.0614,-3.0698,-3.0755,-3.0786,-3.0801,-3.0866,-3.0898,-3.0892,-3.0838,-3.0807,-3.079,-3.073,-3.0697,-3.0685,-3.0644,-3.0618,-3.0585,-3.053,-3.0491,-3.049,-3.0439,-3.0383,-3.0355,-3.033,-3.0312,-3.0253,-3.0194,-3.0166,-3.0157,-3.0128,-3.0094,-3.0034,-3.0003,-2.9956,-2.9926,-2.9893,-2.9825,-2.979,-2.9906,-3.0058,-3.0507,-3.1213,-3.1893,-3.2511,-3.3128,-3.3685,-3.3666,-3.3663,-3.3739,-3.3797,-3.3762,-3.3762,-3.3753,-3.3643,-3.3549,-2.7071,-2.6862,-2.7064,-2.6992,-2.686,-2.7386,-2.7466,-2.739,-2.7719,-2.794,-2.8042,-2.8264,-2.8398,-2.8432,-2.8587,-2.8737,-2.8785,-2.8881,-2.8957,-2.9156,-2.9218,-2.9262,-2.9344,-2.9386,-2.9388,-2.9388,-2.9388,-2.9388,-2.9388,-2.9388,-2.9388,-2.9388,-2.9392,-2.9433,-2.9531,-2.9626,-2.9736,-2.9808,-2.9876,-2.9926,-2.9861,-2.9703,-2.9319,-2.8798,-2.8184,-2.7385,-2.6548,-2.5996,-2.5672,-2.5235,-2.5082,-2.5082,-2.5095,-2.5215,-2.5454,-2.5891,-2.6538,-2.7468,-2.8907,-2.962,-3.0191,-3.0671,-3.0764,-3.0802,-3.0804,-3.0866,-3.0898,-3.0896,-3.0843,-3.081,-3.0774,-3.0735,-3.0709,-3.0691,-3.0644,-3.0618,-3.0585,-3.054,-3.0481,-3.0479,-3.0436,-3.0371,-3.0323,-3.0318,-3.0279,-3.0226,-3.0185,-3.0157,-3.0109,-3.0113,-3.0064,-3.0003,-2.9975,-2.9943,-2.9893,-2.9859,-2.9771,-2.9718,-2.987,-3.0114,-3.1061,-3.1831,-3.2502,-3.3099,-3.3462,-3.3729,-3.3715,-3.3726,-3.3671,-3.3615,-3.3605,-3.3605,-3.3643,-3.3559,-3.3433,-2.604,-2.6203,-2.6432,-2.6691,-2.6893,-2.7043,-2.7235,-2.7509,-2.7853,-2.7968,-2.7996,-2.8219,-2.8327,-2.8406,-2.8536,-2.8662,-2.8761,-2.8858,-2.8975,-2.9067,-2.9175,-2.924,-2.9323,-2.9365,-2.9368,-2.9388,-2.9388,-2.9386,-2.9388,-2.9386,-2.9386,-2.9388,-2.939,-2.9412,-2.9511,-2.9589,-2.9682,-2.9773,-2.9842,-2.978,-2.9585,-2.9197,-2.8738,-2.8141,-2.7286,-2.6616,-2.5969,-2.557,-2.5266,-2.5057,-2.5057,-2.5089,-2.5089,-2.5089,-2.5139,-2.5432,-2.6137,-2.7458,-2.8665,-2.9196,-2.9915,-3.0533,-3.0761,-3.0789,-3.0804,-3.0847,-3.0877,-3.0878,-3.0847,-3.0813,-3.0778,-3.0769,-3.0753,-3.0704,-3.0656,-3.0618,-3.0593,-3.0549,-3.051,-3.0469,-3.0414,-3.0367,-3.0318,-3.0299,-3.0253,-3.0213,-3.0171,-3.0128,-3.0098,-3.0083,-3.0038,-2.9972,-2.9943,-2.9893,-2.9859,-2.9808,-2.9737,-2.9682,-3.0019,-3.037,-3.1402,-3.2201,-3.268,-3.3117,-3.3566,-3.3753,-3.3633,-3.352,-3.3462,-3.3452,-3.3375,-3.3422,-3.3462,-3.3433,-3.3286,-2.6115,-2.6432,-2.645,-2.6691,-2.6975,-2.7169,-2.7359,-2.7544,-2.783,-2.7975,-2.8014,-2.8154,-2.8264,-2.8353,-2.8484,-2.8543,-2.8669,-2.8785,-2.8905,-2.8998,-2.9108,-2.9197,-2.928,-2.9323,-2.9347,-2.9386,-2.9386,-2.9365,-2.9344,-2.9323,-2.9323,-2.9326,-2.9368,-2.9411,-2.9453,-2.9512,-2.957,-2.9624,-2.9676,-2.9463,-2.9117,-2.8695,-2.8082,-2.7148,-2.6593,-2.5948,-2.5454,-2.52,-2.4972,-2.4959,-2.4912,-2.4903,-2.4884,-2.4977,-2.5076,-2.5275,-2.6063,-2.7067,-2.8123,-2.8859,-2.9571,-3.0308,-3.0659,-3.076,-3.0798,-3.0821,-3.0855,-3.0859,-3.0849,-3.0836,-3.0801,-3.0778,-3.0745,-3.071,-3.0664,-3.0637,-3.0585,-3.054,-3.05,-3.0447,-3.0402,-3.0355,-3.0305,-3.0266,-3.024,-3.0199,-3.0157,-3.0113,-3.0083,-3.0053,-3.0007,-2.9959,-2.991,-2.9859,-2.979,-2.9737,-2.9682,-2.9683,-3.0034,-3.0453,-3.1199,-3.1959,-3.2612,-3.3065,-3.3387,-3.3465,-3.3393,-3.3334,-3.3226,-3.3183,-3.3122,-3.3214,-3.3262,-3.3214,-3.3135,-2.6115,-2.6399,-2.6485,-2.6691,-2.6992,-2.7215,-2.7341,-2.7417,-2.7677,-2.7871,-2.7975,-2.8071,-2.8182,-2.8246,-2.8353,-2.8458,-2.8612,-2.8687,-2.8785,-2.8952,-2.904,-2.9108,-2.9197,-2.9259,-2.9283,-2.9323,-2.9323,-2.9283,-2.9262,-2.9262,-2.9243,-2.9283,-2.9344,-2.937,-2.9338,-2.9137,-2.9027,-2.9101,-2.9116,-2.8959,-2.8593,-2.802,-2.7009,-2.6399,-2.5982,-2.5399,-2.5045,-2.4903,-2.487,-2.487,-2.4827,-2.4813,-2.4827,-2.4936,-2.5023,-2.5215,-2.5573,-2.6389,-2.7272,-2.8174,-2.908,-2.9923,-3.0457,-3.0714,-3.0763,-3.081,-3.085,-3.0879,-3.0873,-3.0855,-3.082,-3.0782,-3.0735,-3.0703,-3.0671,-3.0637,-3.0586,-3.054,-3.049,-3.0447,-3.039,-3.0343,-3.0273,-3.0234,-3.0194,-3.0185,-3.0161,-3.0102,-3.0072,-3.0057,-2.9994,-2.991,-2.9859,-2.9825,-2.9737,-2.9664,-2.957,-2.968,-3.0085,-3.0538,-3.1131,-3.1562,-3.2082,-3.263,-3.3132,-3.3087,-3.2931,-3.2988,-3.2979,-3.2844,-3.2709,-3.2798,-3.288,-3.2965,-3.2884,-2.6063,-2.6295,-2.6468,-2.664,-2.6909,-2.7103,-2.7198,-2.7213,-2.7522,-2.7719,-2.7859,-2.794,-2.8025,-2.8109,-2.8209,-2.8327,-2.8484,-2.8587,-2.8712,-2.8863,-2.8975,-2.9044,-2.9089,-2.9156,-2.9218,-2.9218,-2.9218,-2.9222,-2.92,-2.9178,-2.9218,-2.9262,-2.9098,-2.9047,-2.8981,-2.8445,-2.8222,-2.8259,-2.8161,-2.7966,-2.7768,-2.7025,-2.6076,-2.5916,-2.5442,-2.4884,-2.4889,-2.4842,-2.4794,-2.4794,-2.4798,-2.4783,-2.4827,-2.4875,-2.495,-2.505,-2.5253,-2.5865,-2.6614,-2.7421,-2.8357,-2.9268,-3.0093,-3.0502,-3.0652,-3.0762,-3.0825,-3.0897,-3.0895,-3.0841,-3.0807,-3.079,-3.0765,-3.0728,-3.069,-3.0645,-3.0613,-3.053,-3.0469,-3.0425,-3.0359,-3.0311,-3.0292,-3.0234,-3.0226,-3.0185,-3.0147,-3.0087,-3.0057,-3.0041,-2.9978,-2.9912,-2.9842,-2.979,-2.9701,-2.9608,-2.9492,-2.9636,-2.9983,-3.0283,-3.0609,-3.1035,-3.1532,-3.1873,-3.2187,-3.2409,-3.2393,-3.2264,-3.208,-3.2036,-3.2007,-3.2276,-3.2433,-3.2517,-3.2623,-2.6043,-2.6258,-2.6555,-2.6708,-2.6758,-2.6957,-2.7053,-2.7135,-2.7181,-2.7348,-2.7647,-2.7713,-2.7747,-2.7727,-2.7885,-2.8022,-2.8157,-2.816,-2.8558,-2.8609,-2.8693,-2.875,-2.9003,-2.9012,-2.9134,-2.9197,-2.9178,-2.9119,-2.9005,-2.9038,-2.9079,-2.9027,-2.8682,-2.8341,-2.8307,-2.7642,-2.7363,-2.7362,-2.6909,-2.6733,-2.6553,-2.6412,-2.588,-2.5408,-2.4842,-2.4808,-2.4813,-2.4768,-2.4719,-2.4704,-2.4676,-2.4676,-2.4723,-2.4753,-2.4846,-2.4977,-2.5051,-2.5576,-2.6178,-2.6871,-2.774,-2.8786,-2.9652,-3.016,-3.0502,-3.0693,-3.0819,-3.0875,-3.0898,-3.0849,-3.081,-3.0794,-3.0793,-3.0748,-3.069,-3.0661,-3.0602,-3.053,-3.0458,-3.0414,-3.0348,-3.0311,-3.0292,-3.0253,-3.0226,-3.0185,-3.0113,-3.0087,-3.0057,-3.001,-2.9926,-2.9859,-2.9806,-2.9773,-2.9664,-2.9569,-2.9453,-2.9372,-2.9548,-2.9802,-3.0087,-3.0513,-3.0957,-3.0936,-3.113,-3.1372,-3.1369,-3.0902,-3.0808,-3.1029,-3.1319,-3.1584,-3.1725,-3.1847,-3.2109,-2.4947,-2.5157,-2.5397,-2.5563,-2.5662,-2.5759,-2.5856,-2.5902,-2.5965,-2.609,-2.6342,-2.673,-2.6912,-2.6753,-2.6869,-2.713,-2.7193,-2.7269,-2.727,-2.7501,-2.804,-2.819,-2.8406,-2.8695,-2.898,-2.9044,-2.9071,-2.8975,-2.8603,-2.8478,-2.8404,-2.8135,-2.759,-2.7429,-2.7357,-2.686,-2.6487,-2.6468,-2.5753,-2.5485,-2.5474,-2.5427,-2.5363,-2.4869,-2.4798,-2.4783,-2.4734,-2.4707,-2.4676,-2.466,-2.4613,-2.4647,-2.4676,-2.4707,-2.4768,-2.4889,-2.5037,-2.5241,-2.5826,-2.6455,-2.719,-2.8266,-2.9276,-2.981,-3.0594,-3.0806,-3.0819,-3.0875,-3.0918,-3.087,-3.0813,-3.0794,-3.0769,-3.0728,-3.0703,-3.0668,-3.0586,-3.0501,-3.0439,-3.0406,-3.0359,-3.0311,-3.0273,-3.0234,-3.0207,-3.0185,-3.0147,-3.0102,-3.0057,-3.001,-2.991,-2.9842,-2.9806,-2.97,-2.9589,-2.9511,-2.9433,-2.933,-2.9243,-2.9269,-2.9509,-2.9995,-3.0314,-3.0227,-3.0249,-3.0459,-3.03,-2.9888,-2.9919,-3.0223,-3.0559,-3.0837,-3.1028,-3.1235,-3.1562,-2.363,-2.3801,-2.3968,-2.4131,-2.4258,-2.437,-2.4418,-2.4418,-2.4526,-2.452,-2.4594,-2.5429,-2.5467,-2.5429,-2.5347,-2.5517,-2.5773,-2.6239,-2.6168,-2.6417,-2.6953,-2.7229,-2.7591,-2.7984,-2.8145,-2.8283,-2.8329,-2.804,-2.7636,-2.7603,-2.7368,-2.6788,-2.6589,-2.6576,-2.6412,-2.6024,-2.5613,-2.55,-2.5122,-2.4834,-2.4751,-2.4745,-2.481,-2.4821,-2.4787,-2.4757,-2.4711,-2.4679,-2.4631,-2.4615,-2.4564,-2.458,-2.4631,-2.466,-2.4738,-2.4827,-2.4945,-2.507,-2.5332,-2.5924,-2.6786,-2.7735,-2.8694,-2.9551,-3.0316,-3.0767,-3.0796,-3.0853,-3.0898,-3.0892,-3.0816,-3.0794,-3.075,-3.0728,-3.0703,-3.0662,-3.0578,-3.05,-3.0449,-3.0417,-3.0371,-3.0323,-3.0273,-3.0234,-3.0207,-3.0199,-3.0176,-3.0117,-3.0072,-3.0026,-2.9943,-2.9876,-2.9825,-2.9682,-2.9531,-2.9472,-2.9433,-2.9307,-2.9178,-2.898,-2.8937,-2.9293,-2.9467,-2.9344,-2.942,-2.947,-2.9408,-2.9057,-2.9238,-2.9262,-2.9472,-2.9729,-3.0295,-3.0568,-3.1107,-2.3395,-2.3634,-2.3769,-2.3869,-2.3951,-2.3999,-2.408,-2.408,-2.416,-2.3955,-2.3563,-2.3701,-2.4189,-2.5034,-2.5181,-2.5232,-2.5077,-2.5348,-2.5732,-2.6054,-2.6123,-2.6309,-2.6579,-2.6939,-2.6832,-2.7004,-2.7137,-2.683,-2.6706,-2.671,-2.6658,-2.6387,-2.5867,-2.5704,-2.5595,-2.519,-2.4817,-2.4776,-2.4808,-2.4599,-2.4682,-2.4714,-2.4726,-2.4726,-2.4711,-2.4714,-2.4663,-2.458,-2.4547,-2.453,-2.4532,-2.453,-2.4564,-2.4631,-2.4695,-2.4768,-2.4889,-2.498,-2.5258,-2.5477,-2.6246,-2.7073,-2.8016,-2.8903,-2.9716,-3.0574,-3.0668,-3.0825,-3.0857,-3.0856,-3.0821,-3.0788,-3.0767,-3.0734,-3.0683,-3.064,-3.0588,-3.052,-3.0469,-3.0436,-3.0383,-3.0355,-3.0305,-3.0247,-3.0221,-3.0213,-3.0157,-3.0113,-3.0102,-3.0022,-2.9975,-2.991,-2.9842,-2.9682,-2.9531,-2.9492,-2.9433,-2.9307,-2.9134,-2.8934,-2.8743,-2.8554,-2.8622,-2.8671,-2.8411,-2.8258,-2.8163,-2.8291,-2.7956,-2.7978,-2.8203,-2.8526,-2.9206,-2.9969,-3.0556]}]]